[[{"header":{"parameterUnit":"m.s-1","parameterCategory":1,"la1":30.6,"la2":28.766,"lo1":-90.7593,"lo2":-88.6598,"dy":0.0162,"dx":0.0183,"nx":116,"ny":114,"refTime":"2024-05-21T12:00:00:Z","depth":0,"parameterNumber":2,"parameterNumberName":"U-component_of_WINDS"},"data":[0.0,0.0,0.0,0.0,0.0,0.0,0.0,0.0,0.0,0.0,0.0,0.0,0.0,0.0,0.0,0.0,0.0,0.0,0.0,0.0,0.0,0.0,0.0,0.0,0.0,0.0,0.0,0.0,0.0,0.0,0.0,0.0,0.0,0.0,0.0,0.0,0.0,0.0,0.0,0.0,0.0,0.0,0.0,0.0,0.0,0.0,0.0,0.0,0.0,0.0,0.0,0.0,0.0,0.0,0.0,0.0,0.0,0.0,0.0,0.0,0.0,0.0,0.0,0.0,0.0,0.0,0.0,0.0,0.0,0.0,0.0,0.0,0.0,0.0,0.0,0.0,0.0,0.0,0.0,0.0,0.0,0.0,0.0,0.0,0.0,0.0,0.0,0.0,0.0,0.0,0.0,0.0,0.0,0.0,0.0,0.0,0.0,0.0,0.0,0.0,0.0,0.0,0.0,0.0,0.0,0.0,0.0,0.0,0.0,0.0,0.0,0.0,0.0,0.0,0.0,0.0,0.0,0.0,0.0,0.0,0.0,0.0,0.0,0.0,0.0,0.0,0.0,0.0,0.0,0.0,0.0,0.0,0.0,0.0,0.0,0.0,0.0,0.0,0.0,0.0,0.0,0.0,0.0,0.0,0.0,0.0,0.0,0.0,0.0,0.0,0.0,0.0,0.0,0.0,0.0,0.0,0.0,0.0,0.0,0.0,0.0,0.0,0.0,0.0,0.0,0.0,0.0,0.0,0.0,0.0,0.0,0.0,0.0,0.0,0.0,0.0,0.0,0.0,0.0,0.0,0.0,0.0,0.0,0.0,0.0,0.0,0.0,0.0,0.0,0.0,0.0,0.0,0.0,0.0,0.0,0.0,0.0,0.0,0.0,0.0,0.0,0.0,0.0,0.0,0.0,0.0,0.0,0.0,0.0,0.0,0.0,0.0,0.0,0.0,0.0,0.0,0.0,0.0,0.0,0.0,0.0,0.0,0.0,0.0,0.0,0.0,0.0,0.0,0.0,0.0,0.0,0.0,0.0,0.0,0.0,0.0,0.0,0.0,0.0,0.0,0.0,0.0,0.0,0.0,0.0,0.0,0.0,0.0,0.0,0.0,0.0,0.0,0.0,0.0,0.0,0.0,0.0,0.0,0.0,0.0,0.0,0.0,0.0,0.0,0.0,0.0,0.0,0.0,0.0,0.0,0.0,0.0,0.0,0.0,0.0,0.0,0.0,0.0,0.0,0.0,0.0,0.0,0.0,0.0,0.0,0.0,0.0,0.0,0.0,0.0,0.0,0.0,0.0,0.0,0.0,0.0,0.0,0.0,0.0,0.0,0.0,0.0,0.0,0.0,0.0,0.0,0.0,0.0,0.0,0.0,0.0,0.0,0.0,0.0,0.0,0.0,0.0,0.0,0.0,0.0,0.0,0.0,0.0,0.0,0.0,0.0,0.0,0.0,0.0,0.0,0.0,0.0,0.0,0.0,0.0,0.0,0.0,0.0,0.0,0.0,0.0,0.0,0.0,0.0,0.0,0.0,0.0,0.0,0.0,0.0,0.0,0.0,0.0,0.0,0.0,0.0,0.0,0.0,0.0,0.0,0.0,0.0,0.0,0.0,0.0,0.0,0.0,0.0,0.0,0.0,0.0,0.0,0.0,0.0,0.0,0.0,0.0,0.0,0.0,0.0,0.0,0.0,0.0,0.0,0.0,0.0,0.0,0.0,0.0,0.0,0.0,0.0,0.0,0.0,0.0,0.0,0.0,0.0,0.0,0.0,0.0,0.0,0.0,0.0,0.0,0.0,0.0,0.0,0.0,0.0,0.0,0.0,0.0,0.0,0.0,0.0,0.0,0.0,0.0,0.0,0.0,0.0,0.0,0.0,0.0,0.0,0.0,0.0,0.0,0.0,0.0,0.0,0.0,0.0,0.0,0.0,0.0,0.0,0.0,0.0,0.0,0.0,0.0,0.0,0.0,0.0,0.0,0.0,0.0,0.0,0.0,0.0,0.0,0.0,0.0,0.0,0.0,0.0,0.0,0.0,0.0,0.0,0.0,0.0,0.0,0.0,0.0,0.0,0.0,0.0,0.0,0.0,0.0,0.0,0.0,0.0,0.0,0.0,0.0,0.0,0.0,0.0,0.0,0.0,0.0,0.0,0.0,0.0,0.0,0.0,0.0,0.0,0.0,0.0,0.0,0.0,0.0,0.0,0.0,0.0,0.0,0.0,0.0,0.0,0.0,0.0,0.0,0.0,0.0,0.0,0.0,0.0,0.0,0.0,0.0,0.0,0.0,0.0,0.0,0.0,0.0,0.0,0.0,0.0,0.0,0.0,0.0,0.0,0.0,0.0,0.0,0.0,0.0,0.0,0.0,0.0,0.0,0.0,0.0,0.0,0.0,0.0,0.0,0.0,0.0,0.0,0.0,0.0,0.0,0.0,0.0,0.0,0.0,0.0,0.0,0.0,0.0,0.0,0.0,0.0,0.0,0.0,0.0,0.0,0.0,0.0,0.0,0.0,0.0,0.0,0.0,0.0,0.0,0.0,0.0,0.0,0.0,0.0,0.0,0.0,0.0,0.0,0.0,0.0,0.0,0.0,0.0,0.0,0.0,0.0,0.0,0.0,0.0,0.0,0.0,0.0,0.0,0.0,0.0,0.0,0.0,0.0,0.0,0.0,0.0,0.0,0.0,0.0,0.0,0.0,0.0,0.0,0.0,0.0,0.0,0.0,0.0,0.0,0.0,0.0,0.0,0.0,0.0,0.0,0.0,0.0,0.0,0.0,0.0,0.0,0.0,0.0,0.0,0.0,0.0,0.0,0.0,0.0,0.0,0.0,0.0,0.0,0.0,0.0,0.0,0.0,0.0,0.0,0.0,0.0,0.0,0.0,0.0,0.0,0.0,0.0,0.0,0.0,0.0,0.0,0.0,0.0,0.0,0.0,0.0,0.0,0.0,0.0,0.0,0.0,0.0,0.0,0.0,0.0,0.0,0.0,0.0,0.0,0.0,0.0,0.0,0.0,0.0,0.0,0.0,0.0,0.0,0.0,0.0,0.0,0.0,0.0,0.0,0.0,0.0,0.0,0.0,0.0,0.0,0.0,0.0,0.0,0.0,0.0,0.0,0.0,0.0,0.0,0.0,0.0,0.0,0.0,0.0,0.0,0.0,0.0,0.0,0.0,0.0,0.0,0.0,0.0,0.0,0.0,0.0,0.0,0.0,0.0,0.0,0.0,0.0,0.0,0.0,0.0,0.0,0.0,0.0,0.0,0.0,0.0,0.0,0.0,0.0,0.0,0.0,0.0,0.0,0.0,0.0,0.0,0.0,0.0,0.0,0.0,0.0,0.0,0.0,0.0,0.0,0.0,0.0,0.0,0.0,0.0,0.0,0.0,0.0,0.0,0.0,0.0,0.0,0.0,0.0,0.0,0.0,0.0,0.0,0.0,0.0,0.0,0.0,0.0,0.0,0.0,0.0,0.0,0.0,0.0,0.0,0.0,0.0,0.0,0.0,0.0,0.0,0.0,0.0,0.0,0.0,0.0,0.0,0.0,0.0,0.0,0.0,0.0,0.0,0.0,0.0,0.0,0.0,0.0,0.0,0.0,0.0,0.0,0.0,0.0,0.0,0.0,0.0,0.0,0.0,0.0,0.0,0.0,0.0,0.0,0.0,0.0,0.0,0.0,0.0,0.0,0.0,0.0,0.0,0.0,0.0,0.0,0.0,0.0,0.0,0.0,0.0,0.0,0.0,0.0,0.0,0.0,0.0,0.0,0.0,0.0,0.0,0.0,0.0,0.0,0.0,0.0,0.0,0.0,0.0,0.0,0.0,0.0,0.0,0.0,0.0,0.0,0.0,0.0,0.0,0.0,0.0,0.0,0.0,0.0,0.0,0.0,0.0,0.0,0.0,0.0,0.0,0.0,0.0,0.0,0.0,0.0,0.0,0.0,0.0,0.0,0.0,0.0,0.0,0.0,0.0,0.0,0.0,0.0,0.0,0.0,0.0,0.0,0.0,0.0,0.0,0.0,0.0,0.0,0.0,0.0,0.0,0.0,0.0,0.0,0.0,0.0,0.0,0.0,0.0,0.0,0.0,0.0,0.0,0.0,0.0,0.0,0.0,0.0,0.0,0.0,0.0,0.0,0.0,0.0,0.0,0.0,0.0,0.0,0.0,0.0,0.0,0.0,0.0,0.0,0.0,0.0,0.0,0.0,0.0,0.0,0.0,0.0,0.0,0.0,0.0,0.0,0.0,0.0,0.0,0.0,0.0,0.0,0.0,0.0,0.0,0.0,0.0,0.0,0.0,0.0,0.0,0.0,0.0,0.0,0.0,0.0,0.0,0.0,0.0,0.0,0.0,0.0,0.0,0.0,0.0,0.0,0.0,0.0,0.0,0.0,0.0,0.0,0.0,0.0,0.0,0.0,0.0,0.0,0.0,0.0,0.0,0.0,0.0,0.0,0.0,0.0,0.0,0.0,0.0,0.0,0.0,0.0,0.0,0.0,0.0,0.0,0.0,0.0,0.0,0.0,0.0,0.0,0.0,0.0,0.0,0.0,0.0,0.0,0.0,0.0,0.0,0.0,0.0,0.0,0.0,0.0,0.0,0.0,0.0,0.0,0.0,0.0,0.0,0.0,0.0,0.0,0.0,0.0,0.0,0.0,0.0,0.0,0.0,0.0,0.0,0.0,0.0,0.0,0.0,0.0,0.0,0.0,0.0,0.0,0.0,0.0,0.0,0.0,0.0,0.0,0.0,0.0,0.0,0.0,0.0,0.0,0.0,0.0,0.0,0.0,0.0,0.0,0.0,0.0,0.0,0.0,0.0,0.0,0.0,0.0,0.0,0.0,0.0,0.0,0.0,0.0,0.0,0.0,0.0,0.0,0.0,0.0,0.0,0.0,0.0,0.0,0.0,0.0,0.0,0.0,0.0,0.0,0.0,0.0,0.0,0.0,0.0,0.0,0.0,0.0,0.0,0.0,0.0,0.0,0.0,0.0,0.0,0.0,0.0,0.0,0.0,0.0,0.0,0.0,0.0,0.0,0.0,0.0,0.0,0.0,0.0,0.0,0.0,0.0,0.0,0.0,0.0,0.0,0.0,0.0,0.0,0.0,0.0,0.0,0.0,0.0,0.0,0.0,0.0,0.0,0.0,0.0,0.0,0.0,0.0,0.0,0.0,0.0,0.0,0.0,0.0,0.0,0.0,0.0,0.0,0.0,0.0,0.0,0.0,0.0,0.0,0.0,0.0,0.0,0.0,0.0,0.0,0.0,0.0,0.0,0.0,0.0,0.0,0.0,0.0,0.0,0.0,0.0,0.0,0.0,0.0,0.0,0.0,0.0,0.0,0.0,0.0,0.0,0.0,0.0,0.0,0.0,0.0,0.0,0.0,0.0,0.0,0.0,0.0,0.0,0.0,0.0,0.0,0.0,0.0,0.0,0.0,0.0,0.0,0.0,0.0,0.0,0.0,0.0,0.0,0.0,0.0,0.0,0.0,0.0,0.0,0.0,0.0,0.0,0.0,0.0,0.0,0.0,0.0,0.0,0.0,0.0,0.0,0.0,0.0,0.0,0.0,0.0,0.0,0.0,0.0,0.0,0.0,0.0,0.0,0.0,0.0,0.0,0.0,0.0,0.0,0.0,0.0,0.0,0.0,0.0,0.0,0.0,0.0,0.0,0.0,0.0,0.0,0.0,0.0,0.0,0.0,0.0,0.0,0.0,0.0,0.0,0.0,0.0,0.0,0.0,0.0,0.0,0.0,0.0,0.0,0.0,0.0,0.0,0.0,0.0,0.0,0.0,0.0,0.0,0.0,0.0,0.0,0.0,0.0,0.0,0.0,0.0,0.0,0.0,0.0,0.0,0.0,0.0,0.0,0.0,0.0,0.0,0.0,0.0,0.0,0.0,0.0,0.0,0.0,0.0,0.0,0.0,0.0,0.0,0.0,0.0,0.0,0.0,0.0,0.0,0.0,0.0,0.0,0.0,0.0,0.0,0.0,0.0,0.0,0.0,0.0,0.0,0.0,0.0,0.0,0.0,0.0,0.0,0.0,0.0,0.0,0.0,0.0,0.0,0.0,0.0,0.0,0.0,0.0,0.0,-5.3703,0.0,0.0,0.0,0.0,0.0,0.0,0.0,0.0,0.0,0.0,0.0,0.0,0.0,0.0,0.0,0.0,0.0,0.0,0.0,0.0,0.0,0.0,0.0,0.0,-3.316,-3.343,-3.4699,-3.4814,-3.4853,-3.4853,0.0,0.0,0.0,0.0,0.0,-3.3606,-3.3669,-3.4154,-3.5078,-3.7705,-4.0259,-4.266,-4.2655,-3.9494,-3.3919,0.0,0.0,0.0,0.0,0.0,0.0,0.0,0.0,0.0,0.0,0.0,0.0,0.0,0.0,0.0,0.0,0.0,0.0,0.0,0.0,0.0,0.0,0.0,0.0,0.0,0.0,0.0,0.0,0.0,0.0,0.0,0.0,0.0,0.0,0.0,0.0,0.0,0.0,0.0,0.0,0.0,0.0,0.0,0.0,0.0,0.0,0.0,0.0,0.0,0.0,0.0,0.0,0.0,0.0,0.0,0.0,0.0,0.0,0.0,0.0,0.0,0.0,0.0,0.0,0.0,0.0,0.0,0.0,0.0,0.0,0.0,-5.6857,0.0,0.0,0.0,0.0,0.0,0.0,0.0,0.0,0.0,0.0,0.0,0.0,0.0,0.0,0.0,0.0,0.0,0.0,0.0,0.0,0.0,-3.0852,-3.4846,-3.4776,-3.4891,-3.6038,-3.5885,-3.5545,-3.5129,-3.5968,0.0,0.0,0.0,-3.5219,-3.4622,-3.4118,-3.5354,-3.8377,-4.2459,-4.721,-5.2465,-5.3341,-4.8707,-3.9658,-3.8244,0.0,0.0,0.0,0.0,0.0,0.0,0.0,0.0,0.0,0.0,0.0,0.0,0.0,0.0,0.0,0.0,0.0,0.0,0.0,0.0,0.0,0.0,0.0,0.0,0.0,0.0,0.0,0.0,0.0,0.0,0.0,0.0,0.0,0.0,0.0,0.0,0.0,0.0,0.0,0.0,0.0,0.0,0.0,0.0,0.0,0.0,0.0,0.0,0.0,0.0,0.0,0.0,0.0,0.0,0.0,0.0,0.0,0.0,0.0,0.0,0.0,0.0,0.0,-6.8552,-6.8855,-6.8675,-6.8869,-6.9155,-6.9441,-6.8507,-6.7962,-6.7243,0.0,0.0,0.0,0.0,0.0,0.0,0.0,0.0,0.0,0.0,0.0,0.0,0.0,0.0,0.0,0.0,0.0,0.0,0.0,0.0,-3.1275,-3.4083,-3.493,-3.6276,-3.8584,-3.743,-3.7161,-3.8553,-3.6776,0.0,0.0,-3.5885,-3.5748,-3.6274,-3.6965,-3.9386,-4.3519,-5.0229,-5.4661,-5.6965,-5.7853,-5.7067,-5.4726,-5.0832,-4.7469,-4.4595,0.0,0.0,0.0,0.0,0.0,0.0,0.0,0.0,0.0,0.0,0.0,0.0,0.0,0.0,0.0,0.0,0.0,0.0,0.0,0.0,0.0,0.0,0.0,0.0,0.0,0.0,0.0,0.0,0.0,0.0,0.0,0.0,0.0,0.0,0.0,0.0,0.0,0.0,0.0,0.0,0.0,-4.9144,-5.1844,0.0,0.0,0.0,0.0,0.0,0.0,0.0,0.0,0.0,0.0,0.0,0.0,0.0,-6.4155,-6.5897,-7.0898,-7.3822,-7.4707,-7.9131,-8.1246,-8.1215,-8.1246,-8.1308,-8.1183,-7.8154,0.0,-6.9888,-6.6768,0.0,0.0,0.0,0.0,0.0,0.0,0.0,0.0,0.0,0.0,0.0,0.0,0.0,0.0,0.0,0.0,0.0,0.0,0.0,0.0,0.0,-3.8507,-4.1277,-4.3393,-4.4586,-4.4355,-4.2239,-4.197,-4.0346,-3.6846,-3.7315,-3.7317,-3.6627,-3.8481,-4.3524,-5.1869,-5.9471,-6.407,-6.5761,-6.713,-6.7005,-6.5572,-6.3682,-5.826,-5.0353,-4.7681,0.0,0.0,0.0,0.0,0.0,0.0,0.0,0.0,0.0,0.0,0.0,0.0,0.0,0.0,0.0,0.0,0.0,0.0,0.0,0.0,0.0,0.0,0.0,0.0,0.0,0.0,0.0,0.0,0.0,0.0,0.0,0.0,0.0,0.0,0.0,0.0,0.0,0.0,0.0,-4.8049,-5.3842,-5.4496,-5.5703,-5.482,0.0,0.0,0.0,0.0,0.0,0.0,0.0,0.0,0.0,-6.7448,-6.9728,-7.1958,-7.4207,-7.8361,-8.0862,-8.1708,-8.3939,-8.4967,-8.4827,-8.4928,-8.4861,-8.4591,-8.3201,-8.0946,-7.7861,-7.2694,-6.8894,-6.5795,0.0,0.0,0.0,0.0,0.0,-5.4797,0.0,0.0,0.0,0.0,0.0,0.0,0.0,0.0,0.0,0.0,0.0,0.0,-3.8354,-4.3201,-4.7124,-4.9279,-5.1164,-5.0538,-4.6509,-4.6047,-4.347,-3.793,-3.8277,-3.8316,-3.7578,-4.2601,-4.9969,-5.9769,-6.7344,-7.1667,-7.291,-7.4654,-7.447,-7.2717,-7.2471,-6.6663,-5.6879,-5.3433,-4.9335,-4.4863,0.0,0.0,0.0,0.0,0.0,0.0,0.0,0.0,0.0,0.0,0.0,0.0,0.0,0.0,0.0,0.0,0.0,0.0,0.0,0.0,0.0,0.0,0.0,0.0,0.0,0.0,0.0,0.0,0.0,0.0,0.0,0.0,0.0,0.0,0.0,0.0,0.0,-5.321,-5.855,-5.8319,-6.095,-6.0899,0.0,0.0,0.0,0.0,0.0,0.0,-6.8936,-6.9434,-7.1318,-7.5014,-7.7331,-7.9561,-8.1708,-8.4286,-8.5824,-8.644,-8.6671,-8.6565,-8.6194,-8.6372,-8.6132,-8.5667,-8.5815,-8.5414,-8.4231,-7.8103,-7.4243,-7.1867,-6.8446,-6.5436,-6.2858,-6.1127,-6.1435,-6.282,0.0,0.0,0.0,0.0,0.0,0.0,0.0,0.0,0.0,0.0,0.0,-4.0246,-4.3547,-4.8471,-5.2856,-5.6214,-5.4434,-5.2664,-5.1577,-4.6355,-4.2393,-4.04,-3.8084,-3.7886,-4.0177,-5.1694,-6.0334,-6.5654,-7.2262,-7.5473,-7.5562,-7.7307,-7.7089,-7.516,-7.4303,-7.086,-6.5569,-6.2133,-5.7583,-5.2171,-4.6472,0.0,0.0,0.0,0.0,0.0,0.0,0.0,0.0,0.0,0.0,0.0,0.0,0.0,0.0,0.0,0.0,0.0,0.0,0.0,0.0,0.0,0.0,0.0,0.0,0.0,0.0,0.0,0.0,0.0,0.0,0.0,0.0,0.0,0.0,0.0,0.0,0.0,0.0,-6.5205,-7.1129,0.0,0.0,0.0,0.0,-6.7692,-6.7167,-7.0052,-7.7476,-7.7169,-7.9785,-8.6363,-8.594,-8.6055,-8.7017,-8.7171,-8.7286,-8.7325,-8.8171,-8.8132,-8.7308,-8.7325,-8.6846,-8.606,-8.6077,-8.6038,-8.5774,-8.2584,-8.0387,-7.8437,-7.2632,-6.9899,-6.8744,-6.4628,-6.5205,-6.8013,0.0,0.0,0.0,0.0,0.0,-2.8195,-2.8743,-2.953,-3.0425,-3.1559,-3.7567,-4.2816,-4.5663,-5.2933,-5.8781,-6.1627,-6.2551,-6.1473,-5.7857,-5.2587,-4.8355,-4.5509,-4.1899,-4.2889,-4.925,-5.849,-6.4984,-6.8548,-7.4357,-7.6897,-7.6331,-7.8046,-7.7888,-7.616,-7.5624,-7.4033,-7.1359,-6.6467,-6.1685,-5.7021,-5.2189,-4.687,0.0,0.0,0.0,0.0,0.0,0.0,0.0,0.0,0.0,0.0,0.0,0.0,0.0,0.0,0.0,0.0,0.0,0.0,0.0,0.0,0.0,0.0,0.0,0.0,0.0,0.0,0.0,0.0,0.0,0.0,0.0,0.0,0.0,0.0,0.0,0.0,0.0,-7.0398,-7.386,0.0,-7.2245,-7.2283,-7.2937,-7.4053,-7.6899,-8.0208,-8.4016,-8.4478,-8.5747,-8.8171,-8.794,-8.7902,-8.8209,-8.8248,-8.8248,-8.8248,-8.8556,-8.8248,-8.7401,-8.7401,-8.6901,-8.6094,-8.6094,-8.6026,-8.5828,-8.4764,-8.3476,-8.1804,-7.8615,-7.6878,-7.5938,-7.386,-7.3514,-7.413,0.0,0.0,0.0,0.0,-2.857,-2.8969,-2.926,-3.0225,-3.1697,-3.3954,-4.0416,-4.6394,-5.0702,-5.8204,-6.3935,-6.6513,-6.7744,-6.6244,-6.1127,-5.6049,-5.1433,-4.7432,-4.585,-4.9046,-5.7536,-6.4138,-6.8805,-7.1499,-7.6342,-7.7956,-7.6477,-7.825,-7.8117,-7.6355,-7.6195,-7.5501,-7.4228,-7.0491,-6.6669,-6.2618,-5.7803,-5.2482,-4.6915,0.0,0.0,0.0,0.0,0.0,0.0,0.0,0.0,0.0,0.0,0.0,0.0,0.0,0.0,0.0,0.0,0.0,0.0,0.0,0.0,0.0,0.0,0.0,0.0,0.0,0.0,0.0,0.0,0.0,0.0,0.0,0.0,0.0,0.0,0.0,-7.0821,-7.3976,-7.7361,-7.8823,-7.74,-7.8054,-7.9169,-8.0592,-8.3824,-8.6478,-8.8132,-8.8786,-8.9248,-8.9517,-8.9248,-8.9094,-8.9094,-8.9094,-8.9094,-8.9094,-8.9094,-8.8671,-8.7825,-8.7517,-8.6324,-8.4478,-8.5593,-8.5373,-8.4293,-8.5445,-8.5185,-8.3901,-8.2413,-8.1545,-8.09,-7.9477,-7.8592,-7.8054,0.0,0.0,0.0,-2.9274,-3.0017,-3.0327,-2.9476,-3.0698,-3.351,-3.8516,-4.4427,-5.1048,-5.855,-6.3974,-6.809,-7.0591,-6.9321,-6.6244,-6.1204,-5.6088,-5.101,-4.6047,-4.9831,-5.5937,-6.4226,-6.8712,-7.222,-7.4707,-7.8335,-7.8766,-7.6308,-7.7992,-7.7782,-7.5938,-7.5885,-7.528,-7.4257,-7.4424,-7.2571,-6.9006,-6.3297,-5.8954,-5.5164,0.0,0.0,0.0,0.0,0.0,0.0,0.0,0.0,0.0,0.0,0.0,0.0,0.0,0.0,0.0,0.0,0.0,0.0,0.0,0.0,0.0,0.0,0.0,0.0,0.0,0.0,0.0,0.0,0.0,0.0,0.0,0.0,0.0,-5.9731,-6.859,-7.5245,-7.6284,-8.2208,-8.5209,-8.2785,-8.4747,-8.6555,-8.7401,-8.7478,-8.8209,-8.9863,-8.9863,-9.0171,-9.1018,-9.021,-8.9787,-8.9787,-8.9902,-8.9923,-8.9923,-8.9902,-8.9479,-8.8671,-8.7786,-8.5132,-8.1439,-8.4709,-8.4247,-8.1516,-8.4747,-8.5632,-8.4808,-8.3738,-8.3406,-8.3247,-8.0746,-7.9823,-7.9515,0.0,0.0,-2.8987,-2.9879,-3.0341,-3.0516,-3.0221,-3.1576,-3.3581,-3.6222,-4.438,-5.1471,-5.5434,-6.2589,-6.7628,-6.8975,-6.809,-6.609,-6.282,-5.7319,-5.32,-5.1058,-5.6764,-6.2714,-6.8562,-7.2887,-7.5731,-7.7054,-7.8921,-7.9103,-7.7824,-7.8307,-7.7866,-7.6731,-7.5961,-7.5446,-7.5183,-7.4686,-7.3615,-7.1948,-6.8562,-6.4462,-5.9946,0.0,0.0,0.0,0.0,0.0,0.0,0.0,0.0,0.0,0.0,0.0,0.0,0.0,0.0,0.0,0.0,0.0,0.0,0.0,0.0,0.0,0.0,0.0,0.0,0.0,0.0,0.0,0.0,0.0,0.0,0.0,-6.1615,-6.8577,-7.0283,-7.5091,-8.0092,-8.467,-8.6863,-8.794,-8.7825,-8.7902,-8.8325,-8.9171,-8.921,-8.971,-9.0787,-8.8479,-8.7248,-8.7478,-8.7286,-8.7132,-8.7132,-8.9594,-9.0864,-9.0825,-9.021,-8.9479,-8.8671,-8.7786,-8.6401,-8.4786,-8.5709,-8.5593,-8.4786,-8.5709,-8.5632,-8.4808,-8.389,-8.3176,-8.2516,-8.1208,-7.9939,-7.8361,0.0,-2.8203,-2.9162,-3.0227,-3.0819,-3.098,-3.0612,-3.2232,-3.4512,-3.7269,-4.5274,-5.2212,-5.6165,-6.2858,-6.7436,-6.8321,-6.7936,-6.582,-6.1512,-5.7011,-5.5813,-5.8731,-6.3294,-6.805,-7.3008,-7.6168,-7.787,-7.8022,-7.9374,-7.9242,-7.7681,-7.8436,-7.7937,-7.6415,-7.6174,-7.5893,-7.5561,-7.5232,-7.439,-7.3168,-7.1832,-6.8436,-6.3871,-6.0973,-5.8011,-5.5088,-5.301,-5.151,-5.024,-4.874,0.0,0.0,0.0,0.0,0.0,0.0,0.0,0.0,0.0,0.0,0.0,0.0,0.0,0.0,0.0,0.0,0.0,0.0,0.0,0.0,0.0,0.0,0.0,0.0,-6.7667,-7.5014,-7.8477,-8.0977,-8.3862,-8.7709,-8.8786,-8.9248,-8.9363,-8.9286,-8.9402,-8.9863,-8.9902,-9.0287,-9.1171,-8.9325,-8.7594,-8.617,-8.7478,-8.7555,-8.6094,-8.9479,-9.121,-9.121,-8.9979,-8.9133,-8.8671,-8.7401,-8.5824,0.0,-8.5478,-8.5286,-8.4093,-8.5517,-8.5401,0.0,0.0,0.0,0.0,0.0,-7.9669,-7.8092,0.0,-2.8604,-2.9451,-3.0424,-3.1255,-3.156,-3.0825,-3.2668,-3.5753,-4.0174,-4.6476,-5.2779,-5.8588,-6.3782,-6.7128,-6.7898,-6.7628,-6.4859,0.0,-5.6242,-5.8669,-6.7047,-6.8958,-7.2141,-7.7071,-7.8668,-7.9072,-7.829,-7.9798,-7.934,-7.7144,-7.8596,-7.804,-7.5824,-7.6582,-7.6403,-7.5616,-7.5817,-7.4896,-7.3336,-7.3447,-7.1091,-6.7167,-6.414,-6.155,-5.9281,-5.678,-5.4934,-5.3538,-5.3192,0.0,0.0,0.0,0.0,0.0,0.0,0.0,0.0,0.0,0.0,0.0,0.0,0.0,0.0,0.0,0.0,0.0,0.0,0.0,0.0,0.0,0.0,0.0,0.0,-7.2976,-7.8784,-8.4247,-8.5747,-8.6517,-8.7325,-8.8902,-8.9633,-8.8902,-8.9556,-9.0056,-9.0056,-9.0056,-9.0402,-9.1171,0.0,0.0,0.0,0.0,-8.9171,-8.6132,-8.9479,-9.1171,-9.1018,-8.944,-8.8632,-8.8479,-8.6863,-8.4478,-8.1823,-8.4824,-8.4401,-8.19,-8.4863,-8.5093,-8.3555,-8.3401,-8.2862,-8.1939,-7.9939,-7.89,0.0,0.0,-2.9477,-3.0171,-3.054,-3.1255,-3.1748,-3.1579,-3.2513,-3.5251,-4.0838,-4.6305,-5.1664,-5.6907,-6.2012,-6.5166,-6.532,-6.282,-6.0666,0.0,-5.8204,-6.1322,-6.9697,-7.1605,-7.4478,-7.8832,-7.9869,-8.0236,-8.0009,-8.0389,-8.0312,-7.9742,-7.9436,-7.8672,-7.7487,-7.7079,-7.6437,-7.5676,-7.5848,-7.4965,-7.3447,-7.35,-7.2168,-7.0014,-6.8706,-6.7936,-6.7244,-6.532,-6.4436,-6.3743,-6.105,-5.8873,-5.7066,-5.5635,-5.1969,0.0,0.0,0.0,0.0,0.0,0.0,0.0,0.0,0.0,0.0,0.0,0.0,0.0,0.0,0.0,0.0,0.0,0.0,0.0,-7.2514,-7.8246,-8.3016,-8.5517,-8.6594,-8.7209,-8.7363,-8.8902,-8.9863,-8.9671,-9.0441,-9.0941,-9.0941,-9.0941,-9.1018,-9.121,-8.8594,0.0,-8.6132,-8.6748,-8.6786,-8.6094,-8.9479,-9.0864,-9.0133,0.0,0.0,-8.7632,-8.6555,-8.5747,-8.517,-8.5824,-8.5747,-8.517,-8.5824,-8.5093,-8.3478,-8.2093,-8.1477,-8.0862,-7.7092,-7.6861,-7.7977,-2.9738,-3.0171,-3.0595,-3.1125,-3.1908,-3.2444,-3.2434,-3.3484,-3.5373,-3.8309,-4.3118,-4.7855,-5.2087,-5.5588,-5.8165,-5.9435,-5.7588,0.0,0.0,-6.2474,-6.6115,-7.3726,-7.5595,-7.7588,-8.0033,-8.044,-8.056,-8.0506,-8.0523,-8.0332,-7.9895,-7.9895,-7.9014,-7.7444,-7.7569,-7.6925,-7.5794,-7.5925,-7.5009,-7.3514,-7.3514,-7.2476,-7.086,-7.0437,-6.9783,-6.8936,-6.8052,-6.7205,-6.6244,-6.4551,-6.3115,-6.1846,-6.0614,-5.7867,-5.4216,0.0,0.0,0.0,0.0,0.0,0.0,0.0,0.0,0.0,0.0,0.0,0.0,0.0,0.0,-6.0875,-6.345,0.0,-7.1822,-7.6476,-7.9746,-8.2747,-8.567,-8.6478,-8.6901,-8.7363,-8.8517,-8.9479,-8.9863,-9.0287,-9.0748,-9.1171,-9.121,-9.121,-9.121,-8.9594,-8.7863,-8.617,-8.7748,-8.7825,-8.6132,-8.9479,-9.0748,-8.9902,-8.9094,-8.8248,-8.7363,-8.6517,-8.6094,-8.6094,-8.6094,-8.6094,-8.6017,-8.5209,-8.4093,-8.2824,-8.1593,-8.1093,-8.0746,-7.7707,-7.74,-7.8092,-3.0449,-3.0737,-3.1067,-3.1676,-3.2648,-3.3344,-3.3339,-3.45,-3.5578,-3.626,-4.0123,-4.4008,-4.7048,-4.9202,-5.1048,0.0,0.0,0.0,0.0,-6.6128,-7.0591,-7.7246,-7.9092,-8.0186,-8.0792,-8.0838,-8.0731,-8.0506,-8.0677,-8.0333,-7.9569,-8.0219,-7.9394,-7.7416,-7.8037,-7.7505,-7.6125,-7.6062,-7.5014,-7.3514,-7.3514,-7.236,-7.0667,-7.0667,-6.9821,-6.8629,-6.8282,-6.7051,-6.5667,-6.582,-6.5205,-6.4282,-6.3935,-6.2591,-5.9864,-5.3025,-5.2197,0.0,0.0,0.0,0.0,0.0,0.0,0.0,0.0,-5.7925,-6.0009,-6.2849,-6.5205,-6.7576,-7.0305,-7.2217,-7.5014,-7.9977,-8.0939,-8.2208,-8.5632,-8.6094,-8.6363,-8.7055,-8.7902,-8.8709,-8.9363,-8.971,-9.021,-9.0902,-9.1095,-9.121,-9.121,-9.121,-8.994,-8.7171,-8.9748,-8.9902,-8.7132,-8.9825,-9.0671,-8.9671,-8.9017,-8.8132,-8.7132,-8.644,-8.6094,-8.6094,-8.6094,-8.6017,-8.5747,-8.4209,-8.3093,-8.2208,-8.14,-8.1016,-8.0669,-7.9092,-7.84,-7.8054,0.0,-3.1224,-3.1743,-3.1797,-3.3171,-3.4265,-3.4239,-3.4367,-3.5525,-3.8575,-4.07,-4.2662,-4.4509,-4.7625,-4.874,-4.6787,-5.1356,0.0,-5.9819,-6.5936,-7.2091,-7.8092,-7.9899,-8.0762,-8.0792,-8.1504,-8.1415,-8.0506,-8.1325,-8.1268,-8.0353,-8.0522,-8.0078,-7.91,-7.8601,-7.7876,-7.6932,-7.6293,-7.5014,-7.3514,-7.3514,-7.2052,-6.9821,-6.9821,-6.9706,-6.936,-6.7782,-6.6167,-6.4859,-6.5628,-6.482,-6.3705,-6.5166,-6.4397,-6.2219,-5.835,-5.6368,-5.4183,-4.8667,-4.5964,-4.5783,-5.0483,-5.3563,-5.7028,0.0,-6.8649,-7.2582,-7.3063,-7.6308,-7.9246,-7.9592,-8.1054,-8.2631,-8.4093,-8.4939,-8.5555,-8.6017,-8.6094,-8.6132,-8.6247,-8.7017,-8.7594,-8.7671,-8.9017,-8.9923,-9.0056,-9.0748,-9.121,-9.121,-9.121,-9.1018,-9.0633,-9.1018,-9.1018,-9.0633,-9.1018,-9.0402,-8.8825,-8.8748,-8.7825,-8.6247,-8.6132,-8.6094,-8.6094,-8.6094,-8.5709,-8.4978,-8.3978,-8.3093,-8.2208,-8.14,-8.0631,-7.9823,-7.8861,-7.8054,-7.7284,0.0,-3.2012,-3.2764,-3.3277,-3.3931,-3.4579,-3.509,-3.5527,-3.6149,-3.7083,-3.8166,-3.9508,-4.12,-4.3094,-4.3201,-4.0623,-4.6778,-5.3049,-5.8434,-6.5628,-7.2322,-7.8246,-8.0138,-8.0959,-8.0877,-8.1155,-8.1103,-8.067,-8.0997,-8.0958,-8.067,-8.0723,-8.0298,-7.9544,-7.9281,-7.8407,-7.7162,-7.6346,-7.5014,-7.3476,-7.2937,-7.1514,-6.9629,-6.9129,-6.8359,-6.7205,-6.4987,-6.3397,0.0,-6.2204,-6.2012,-6.2243,-6.4436,-6.3281,-6.0742,-5.8835,-5.672,-5.4737,-5.347,-5.4154,-5.5818,-5.851,-6.2938,-6.739,-7.0305,-7.3596,-7.6517,-7.8115,-8.0631,-8.2708,-8.3208,-8.267,-8.2901,-8.5209,-8.4247,-8.3862,-8.5824,-8.6094,-8.594,-8.5478,-8.4824,-8.4439,-8.4439,-8.6863,-8.8055,-8.7055,-8.9133,-9.0671,-9.1171,-9.121,-9.121,-9.121,-9.121,-9.121,-9.121,-9.071,-8.9863,-8.8671,-8.8171,-8.7286,-8.6094,-8.6094,-8.6094,-8.6055,-8.5593,-8.4939,-8.4093,-8.3208,-8.2362,-8.1516,-8.0669,-7.9823,-7.9015,-7.8631,-7.7977,-7.7092,0.0,-3.2576,-3.3407,-3.4322,-3.4661,-3.4986,-3.5609,-3.6207,-3.6256,-3.5353,-3.5913,-3.6951,-3.8438,-3.9084,-3.8892,-3.7546,-4.3778,-5.0548,-5.7165,-6.4743,-7.1514,-7.7207,-7.9554,-8.0699,-8.0581,-8.0975,-8.104,-8.0792,-8.0915,-8.0915,-8.0792,-8.0826,-8.0553,-8.0005,-7.9829,-7.8954,-7.7553,-7.6476,-7.5014,-7.3399,-7.2283,-7.0821,-6.9206,-6.8129,-6.6205,-6.3897,-6.205,-6.0512,-5.9204,-5.7857,-5.7973,-5.8973,-6.0589,-5.9742,-5.8011,-5.7434,-5.5769,-5.4594,-5.6725,-5.947,-6.2426,-6.5244,-7.0095,-7.4497,-7.5524,-7.7201,-7.9107,-8.1038,-8.2593,-8.3785,-8.4439,-8.3247,-8.2939,-8.5363,-8.3939,-8.3324,-8.5747,-8.5901,-8.5363,-8.4324,-8.2862,-8.14,-8.0015,-8.3785,-8.6132,-8.5632,-8.8286,-9.0171,-9.0825,-9.1056,-9.121,-9.121,-9.121,-9.121,-9.121,-9.0364,-8.9517,-8.8671,-8.7825,-8.694,-8.6094,-8.6094,-8.5978,-8.5747,-8.517,-8.4286,-8.317,-8.2554,-8.167,-8.0669,-8.0054,-7.9131,-7.8169,-7.8169,-7.763,-7.6746,0.0,0.0,-3.3451,-3.4348,-3.5202,-3.5727,-3.5713,-3.5728,-3.5398,-3.4477,-3.5077,-3.5933,-3.6706,-3.6808,-3.7469,-3.9092,-4.397,-4.9471,-5.5395,-6.2935,-6.9475,-7.4591,-7.8054,-7.9815,-7.9736,-8.1332,-8.1721,-8.0792,-8.158,-8.1542,-8.0792,-8.0877,-8.0888,-8.0811,-8.0123,-7.9285,-7.8361,-7.6707,-7.5014,-7.336,-7.1629,-6.9937,-6.8282,-6.659,-6.3358,-5.9665,-5.9627,-5.7973,-5.5472,-5.2962,-5.2692,-5.3318,-5.2538,-5.3356,-5.4664,-5.4626,-5.393,-5.3898,-5.7335,-5.8312,-6.016,-6.7692,-7.1538,-7.4385,-7.763,-8.0323,-8.217,-8.2247,-8.2978,-8.3593,-8.3632,-8.4286,-8.4824,-8.4939,-8.5517,-8.5978,-8.6094,-8.544,-8.4286,-8.2593,-8.1631,-7.9208,0.0,-7.9785,-8.4709,-8.7132,-8.894,-8.9902,-8.9923,-9.0748,-9.121,-9.121,-9.121,-9.121,-9.121,-9.0364,-8.9517,-8.8671,-8.7825,-8.694,-8.6094,-8.6094,-8.567,-8.4939,-8.4901,-8.3939,-8.2324,-8.2324,-8.1323,-7.9862,-7.9823,-7.8784,-7.7323,-7.7323,-7.6784,-7.5899,0.0,0.0,0.0,-3.5124,-3.5629,-3.577,-3.5699,-3.6203,-3.6231,-3.5366,-3.546,0.0,0.0,0.0,0.0,0.0,-4.1739,-4.6663,-5.202,-5.8473,-6.432,-6.9436,-7.4553,-7.7269,-7.7239,-7.883,-7.9544,-7.9284,-7.9489,-7.9489,-7.9284,-7.9876,-7.9854,-7.9292,-7.9038,-7.8169,-7.6669,-7.4437,-7.3129,-7.2437,-7.0167,-6.8898,-6.809,-6.5243,-6.1897,-5.8204,0.0,-5.1895,-5.0433,-4.9038,-4.9115,-5.0048,-5.1462,-5.1154,-5.0164,-4.9625,-5.2836,-5.6786,-5.7928,-6.2311,-6.7599,-7.1881,-7.5302,-7.8223,-8.05,-8.167,-8.2131,-8.1593,-8.04,-7.9246,-7.8669,-7.74,-7.74,-8.0208,-7.9477,-8.0323,-8.5401,-8.2016,-8.0246,-8.3632,-8.0785,0.0,0.0,0.0,0.0,-8.1554,-8.567,-8.8748,-8.9863,-8.9671,-8.9787,-9.0325,-8.9825,-8.9556,-8.9556,-8.8671,-8.8094,-8.7825,-8.694,-8.6363,-8.6094,-8.6094,-8.567,-8.4863,-8.4286,-8.3362,-8.2247,-8.1708,-8.0823,-7.9746,-7.9169,-7.8284,-7.7207,-7.663,-7.6245,-7.5861,0.0,0.0,0.0,0.0,0.0,0.0,0.0,0.0,0.0,0.0,0.0,0.0,0.0,0.0,0.0,0.0,0.0,-4.4893,-4.9086,-5.4318,-5.8973,-6.2858,-6.7859,-7.0706,-7.1014,-7.2611,-7.3957,-7.4899,-7.5456,-7.6071,-7.6746,-7.7284,-7.7246,-7.6707,-7.6707,-7.5938,-7.4514,-7.2552,-7.1552,-7.1014,-6.7859,-6.6397,-6.5743,-6.2012,-5.8127,0.0,-5.001,-4.7163,-4.5278,-4.447,-4.5316,-4.6855,-4.7586,-4.774,-4.8048,-4.9933,-5.401,-5.8692,-6.2617,-6.7639,-7.2674,-7.6417,-7.8992,-8.076,-8.1269,-8.14,-8.1016,-7.9554,-7.7977,-7.6207,-7.413,-7.2629,-7.3014,-7.6976,-7.6476,-7.8092,-8.5093,-8.2093,-8.0362,-8.3593,-8.0823,-7.9708,0.0,0.0,0.0,-7.9554,-8.3247,-8.6055,-8.7132,-8.6978,-8.7671,-8.944,-8.8979,-8.8709,-8.8709,-8.7825,-8.7248,-8.694,-8.6363,-8.6094,-8.6094,-8.5786,-8.4709,-8.3093,-8.3131,-8.2131,-8.0554,-8.0939,-8.04,-7.9285,-7.8707,-7.7823,-7.6784,-7.6207,-7.6015,-7.5822,0.0,0.0,0.0,0.0,0.0,0.0,0.0,0.0,0.0,0.0,0.0,0.0,0.0,0.0,0.0,0.0,0.0,0.0,-4.6538,0.0,0.0,-5.5357,-5.8704,-6.0973,-6.1908,-6.3512,-6.5551,-6.8013,-6.959,-7.1245,-7.286,-7.2899,-7.2937,-7.2937,-7.2937,-7.2437,-7.1552,-7.0629,-6.9783,-6.8706,-6.4512,-6.2397,-6.1254,-5.6973,-5.2318,-4.7932,-4.7048,-4.4047,-4.0477,-3.9746,-4.1777,-4.4239,-4.1978,-4.4085,-4.8702,-5.5175,-5.7357,-6.0,-7.0514,-7.3707,-7.5361,-8.0977,-8.2324,-8.1862,-8.0246,-7.9785,-7.89,-7.6245,-7.5476,-7.4014,-6.9744,-6.9629,-7.136,-7.5014,-7.6322,-7.9015,-8.5016,-8.5055,-8.3901,-8.2401,-8.1554,-8.0516,-7.9015,-8.1093,0.0,-8.117,0.0,-8.2516,-8.2554,-8.3285,-8.5247,-8.8517,-8.8594,-8.8556,-8.8556,-8.7748,-8.6901,-8.6094,-8.6094,-8.6094,-8.6055,-8.5286,-8.3131,-8.0092,-8.1631,-8.0477,-7.7669,-8.0092,-8.0054,-7.8477,-7.8477,-7.7476,-7.6015,-7.6015,-7.6015,-7.5745,0.0,0.0,0.0,0.0,0.0,0.0,0.0,0.0,0.0,0.0,0.0,0.0,0.0,0.0,0.0,0.0,0.0,0.0,-4.397,0.0,0.0,0.0,0.0,-5.7703,-5.9242,-6.0281,-6.1435,-6.2743,-6.3166,-6.3589,-6.4051,-6.4705,-6.5013,-6.5013,-6.5013,-6.4512,-6.3589,-6.2127,-6.1012,-6.0023,0.0,-5.6626,-5.6049,-5.2395,-4.9433,-4.6932,-4.4816,-4.297,-4.1546,-4.197,-4.5201,-4.9404,-5.1241,-5.301,-5.4895,-5.728,-6.2435,-6.7975,-7.0783,-7.6207,-8.14,-8.2901,-8.2785,-8.2016,-8.1016,-7.9285,-7.6669,-7.2206,-6.8282,-6.432,-6.005,-5.9973,-6.2704,-6.9283,-7.1052,-7.4168,-8.1362,-8.0015,-7.9054,-8.117,-8.1208,-8.19,-8.3978,-8.4747,-8.4016,0.0,-8.3593,-8.5401,-8.6055,-8.5709,-8.617,-8.7671,-8.7094,-8.6748,-8.6748,-8.6555,-8.6324,-8.6094,-8.6094,-8.6094,-8.6055,-8.5286,-8.4055,-8.2631,-8.2401,-8.1477,-8.0169,-8.0823,-8.0054,-7.8477,-7.8477,-7.7476,-7.6015,-7.6015,-7.6015,-7.5745,0.0,0.0,0.0,0.0,0.0,0.0,0.0,0.0,0.0,0.0,0.0,0.0,0.0,0.0,0.0,0.0,0.0,0.0,0.0,-4.4636,0.0,0.0,-4.9336,-5.1318,-5.2702,-5.3895,-5.5126,-5.6357,0.0,0.0,-5.855,-5.9061,-5.9088,-5.8742,-5.8742,-5.828,-5.7396,-5.6472,0.0,0.0,0.0,0.0,0.0,0.0,-4.6432,-4.4462,-4.3047,-4.2701,-4.347,-4.7317,-5.0279,-5.328,-5.8511,-6.0242,-6.1243,-6.582,-6.9744,-7.3206,-7.6245,-8.0516,-8.4093,-8.3708,-8.2939,-8.1285,-7.7476,-7.5245,-7.2091,-6.5513,-6.2166,-5.8896,-5.3857,-5.4549,-5.828,-6.5551,-6.8398,-7.2245,-7.9515,-7.9208,-7.8938,-8.0862,-8.1093,-8.2439,-8.5786,-8.6094,-8.5324,0.0,-8.367,-8.4132,-8.4593,-8.417,-8.4786,-8.6786,-8.6363,-8.6094,-8.6094,-8.6094,-8.6094,-8.6094,-8.6094,-8.594,-8.5555,-8.4709,-8.3247,-8.1362,0.0,-8.0862,-7.9477,-8.0246,-7.9746,-7.8453,-7.8092,-7.7169,-7.6015,-7.6015,-7.6015,-7.5822,0.0,0.0,0.0,0.0,0.0,0.0,0.0,0.0,0.0,0.0,-3.8782,0.0,0.0,0.0,0.0,0.0,0.0,0.0,0.0,0.0,0.0,-4.2463,-4.3519,-4.4556,-4.5402,-4.674,-4.8163,-4.9711,0.0,0.0,0.0,0.0,0.0,0.0,0.0,0.0,0.0,0.0,0.0,0.0,0.0,0.0,0.0,0.0,0.0,-4.1662,-4.1885,-4.2893,-4.5355,-5.3203,-5.5626,-5.6665,-6.432,-6.6359,-6.7552,-7.5745,-7.6938,-7.6861,-8.2785,-8.4709,-8.4824,-8.3824,-8.2785,-8.0092,-7.3014,-7.0167,-6.6705,-5.85,-5.6973,-5.5472,-5.0048,-5.1933,-5.6549,-6.332,-6.7398,-7.1797,-7.7784,-8.0054,-8.0954,-8.0477,-8.0939,-8.2516,-8.5786,-8.5786,-8.5747,-8.6055,-8.3401,-8.1747,-8.1747,-8.1747,-8.3093,-8.6017,-8.6094,-8.6094,-8.6094,-8.6094,-8.6094,-8.6094,-8.5978,-8.5593,-8.4863,-8.3862,-8.1785,-7.9092,0.0,0.0,-7.79,-7.9246,-7.9285,-7.84,-7.7592,-7.6784,-7.6015,-7.6015,-7.6015,-7.5861,0.0,0.0,0.0,0.0,0.0,0.0,0.0,0.0,0.0,0.0,-4.0095,-3.9104,0.0,0.0,0.0,0.0,0.0,0.0,0.0,0.0,0.0,0.0,-4.392,-4.3704,-4.4509,-4.4162,-4.4124,-4.4432,-4.4855,0.0,0.0,0.0,0.0,0.0,0.0,0.0,0.0,0.0,0.0,0.0,0.0,0.0,0.0,0.0,0.0,0.0,-4.2354,-4.3047,-4.4701,-5.3751,-5.8088,-6.105,-6.8706,-7.1937,-7.3399,-7.5745,-7.813,-8.0246,-8.1439,-8.3785,-8.5517,-8.3978,-8.19,-7.9169,-7.4976,-6.959,-6.3666,-5.7242,-5.328,-5.0202,-4.7778,-5.0664,-5.5626,-6.2435,-6.7051,-7.0426,-7.2168,-7.7482,-8.0115,-7.7207,-7.9977,-8.3131,-8.5824,-8.4209,0.0,0.0,0.0,-8.5247,-8.5247,-8.5247,-8.5517,-8.6094,-8.6094,-8.6094,-8.6094,-8.6094,-8.6094,-8.6094,-8.544,-8.5055,-8.4863,-8.3247,-8.2208,-8.1631,0.0,0.0,-8.04,-7.9977,-7.9285,-7.84,-7.7592,-7.6784,-7.6015,-7.6015,-7.6015,-7.5861,0.0,0.0,0.0,0.0,0.0,0.0,0.0,-4.0328,-4.1895,-4.4975,-4.3191,-4.1939,-4.2685,-4.1582,-4.0751,0.0,0.0,0.0,0.0,0.0,0.0,0.0,0.0,-4.4405,-4.4278,-4.4816,-4.4624,-4.3701,0.0,-4.4624,-4.3701,-4.3701,-4.347,-4.3008,-4.3008,-4.2739,0.0,0.0,0.0,0.0,0.0,0.0,0.0,0.0,0.0,0.0,0.0,-4.3355,-4.4662,-5.0933,-5.4741,-5.8627,-6.8936,-7.3976,-7.613,-7.6553,-7.9054,-8.1708,-8.1708,-8.3555,-8.517,-8.3901,-8.1016,-7.6784,-7.0283,-6.4551,-5.8473,-5.0741,-4.7855,-4.624,-4.4538,-4.7702,-5.2779,-5.9588,-6.3921,-6.7937,-7.2283,-7.6121,-7.8522,-7.8631,-8.0439,-8.2324,-8.3978,-8.3016,-8.2824,-8.4016,0.0,-8.4709,-8.6017,-8.6094,-8.6094,-8.6094,-8.6094,-8.6094,-8.6094,-8.6094,-8.5901,-8.5478,-8.5093,-8.4439,-8.3516,-8.267,-8.2054,-8.1631,-8.1285,0.0,-7.8477,-7.8938,-7.7861,-7.5938,-7.6438,-7.6361,-7.6015,-7.6015,-7.6015,-7.5938,0.0,0.0,0.0,0.0,0.0,0.0,0.0,-4.1704,-4.3078,-4.7223,-4.6448,-4.5505,-4.5441,-4.2994,-4.1278,0.0,0.0,0.0,0.0,0.0,0.0,0.0,0.0,-4.5277,-4.4333,0.0,0.0,-4.4316,-4.5509,0.0,0.0,0.0,0.0,0.0,-4.1585,-4.1123,-4.0516,-4.0516,0.0,0.0,0.0,0.0,0.0,0.0,0.0,0.0,0.0,-4.3547,-4.4355,-4.8355,-5.0894,-5.4318,-6.5436,-7.1552,-7.4822,-7.6092,-7.8746,-8.1477,-8.2554,-8.3862,-8.467,-8.3593,-8.0015,-7.4476,-6.582,-6.0012,-5.4098,-4.5663,-4.3816,-4.3547,-4.2777,-4.547,-5.0087,-5.6896,-6.01,-6.4409,-7.2245,-7.4413,-7.6606,-8.0362,-8.1131,-8.1823,-8.3016,-8.2631,0.0,-8.3054,0.0,0.0,-8.5978,-8.6094,-8.6094,-8.6094,-8.6094,-8.6094,-8.6094,-8.6094,-8.5709,-8.4901,-8.4709,-8.3824,-8.2285,-8.2131,-8.1708,-8.1093,-8.1093,0.0,0.0,-7.7823,-7.6515,-7.3668,-7.5361,-7.6015,-7.6015,-7.6015,-7.6015,-7.5976,0.0,0.0,0.0,0.0,0.0,0.0,0.0,-4.2833,-4.5519,-4.9091,-4.8735,-4.8141,-4.8153,-4.517,-4.2833,0.0,0.0,0.0,0.0,0.0,0.0,0.0,0.0,0.0,0.0,0.0,0.0,-4.4316,-4.3739,0.0,0.0,0.0,0.0,0.0,0.0,-4.0554,-4.0516,-4.0516,0.0,0.0,0.0,0.0,0.0,0.0,0.0,0.0,0.0,-4.3278,-4.2931,-4.8663,-5.0202,-5.0741,-5.6577,-6.1781,-6.6821,-7.2283,-7.5707,-7.8784,-8.3401,-8.4786,-8.4516,-8.2824,-7.8669,-7.3322,-6.709,-5.9973,-5.3164,-4.7702,-4.4154,-4.2701,-4.4863,-4.6201,-4.924,-5.6022,-5.6757,-5.9414,-6.7782,-7.1093,-7.4456,-7.9323,-8.1246,-8.3131,-8.5517,-8.367,-8.3247,-8.5593,0.0,0.0,-8.6094,-8.6094,-8.6094,-8.6094,-8.6094,-8.6094,-8.6094,-8.6094,-8.5709,-8.4901,-8.4093,-8.3208,-8.2285,-8.1554,-8.117,-8.1093,0.0,0.0,0.0,-7.7823,-7.6515,-7.3668,-7.5361,-7.6015,-7.6015,-7.6015,-7.6015,-7.5899,0.0,0.0,0.0,0.0,0.0,0.0,-4.1873,-4.3615,-4.6035,-5.0047,-4.9821,-4.9285,-4.9298,-4.7113,-4.5099,-4.3679,0.0,0.0,0.0,0.0,0.0,0.0,0.0,0.0,0.0,0.0,-4.5949,-4.5868,-4.6061,0.0,0.0,0.0,0.0,0.0,0.0,-4.1277,-4.1277,-4.1277,0.0,0.0,0.0,0.0,0.0,0.0,0.0,0.0,0.0,0.0,-4.4316,-4.5663,-4.6201,-4.6586,-4.8163,-5.1087,-5.5511,-6.3512,-6.9821,-7.4784,-7.7361,-8.0285,-8.2439,-8.1747,-7.7361,-7.1514,-6.5089,-5.8473,-5.201,-4.5855,-4.3124,-4.2277,-4.3816,-4.4393,-4.6509,-5.2289,-5.2492,-5.5465,-6.5474,-6.8232,-7.2003,-7.9669,-8.1593,-8.2708,0.0,0.0,-8.2708,0.0,0.0,0.0,-8.6017,-8.6094,-8.6094,-8.6094,-8.6094,-8.6094,-8.6094,-8.6094,-8.544,-8.4093,-8.3747,-8.2901,-8.1554,-8.1246,-8.1093,-8.1054,0.0,0.0,0.0,-7.6438,-7.4861,-7.0821,-7.4553,-7.6015,-7.6015,-7.6015,-7.6015,-7.5861,0.0,0.0,0.0,0.0,0.0,-3.9185,-4.2099,-4.3718,-4.5975,-4.9833,-5.0001,-4.9782,-4.977,-4.8471,-4.6997,-4.5511,-4.491,0.0,0.0,0.0,0.0,0.0,0.0,0.0,0.0,0.0,-4.7502,-4.7709,-4.8056,-4.773,0.0,0.0,-4.5244,-4.3841,0.0,0.0,0.0,0.0,0.0,0.0,0.0,0.0,0.0,0.0,0.0,0.0,0.0,0.0,0.0,0.0,0.0,-4.3893,-4.3547,-4.4509,-4.7471,-5.6049,-6.3974,-7.0398,-7.2552,-7.6669,-8.0208,-7.9708,-7.5091,-6.8975,-6.2435,-5.6165,-5.0048,-4.4278,-4.22,-4.17,-4.2547,-4.2931,-4.4586,-4.9202,-5.0048,-5.3472,-6.3051,-6.5513,-6.9475,-7.7861,0.0,-8.0939,0.0,-8.2978,0.0,0.0,0.0,0.0,0.0,-8.6094,-8.6094,-8.6094,-8.6094,-8.6094,-8.6094,-8.5863,-8.5016,-8.3593,-8.3324,-8.2093,-8.0015,-8.0746,-8.0554,-7.9592,0.0,0.0,0.0,-7.5745,-7.4245,-6.9975,-7.4284,-7.6015,-7.6015,-7.6015,-7.6015,-7.5822,0.0,0.0,0.0,0.0,0.0,0.0,-4.0548,-4.2957,-4.5543,-4.8171,-4.9224,-4.9695,-4.9695,-4.8952,-4.8139,-4.7248,-4.5588,0.0,0.0,0.0,0.0,0.0,0.0,0.0,0.0,0.0,-4.8717,-4.9567,-4.8717,-4.8717,-4.9528,-4.7788,-4.6513,-4.5585,0.0,0.0,0.0,0.0,0.0,0.0,0.0,0.0,0.0,0.0,0.0,0.0,0.0,0.0,0.0,0.0,0.0,0.0,0.0,-4.3778,-4.447,-5.1279,-5.8704,-6.5782,-7.0821,-7.5284,-7.813,-7.6476,-7.1552,-6.559,-5.9704,-5.3049,-4.7201,-4.3816,-4.17,-4.0785,-4.1662,-4.2508,-4.4201,-4.7586,-5.0231,-5.3962,-6.0012,-6.3012,-6.6859,0.0,0.0,-7.7707,-8.19,-8.4593,0.0,0.0,0.0,0.0,0.0,-8.6094,-8.6094,-8.6094,-8.6094,-8.6094,-8.6094,-8.5324,-8.4478,-8.3593,-8.2708,-8.0554,-7.74,-7.9939,-7.9246,0.0,0.0,0.0,0.0,-7.6245,-7.5245,-7.2399,-7.4976,-7.6015,-7.6015,-7.6015,-7.6015,-7.5745,0.0,0.0,0.0,0.0,0.0,0.0,0.0,-4.1557,-4.3763,-4.6396,-4.7442,-4.8463,-4.9653,-4.9005,-4.8378,-4.8096,-4.6996,0.0,0.0,0.0,0.0,0.0,0.0,0.0,0.0,-4.9258,-4.9962,-5.1393,-5.1083,-5.0781,-5.0413,-4.9864,-4.881,-4.7258,-4.5556,-4.4825,0.0,0.0,0.0,0.0,0.0,0.0,0.0,0.0,0.0,0.0,0.0,0.0,0.0,0.0,0.0,0.0,0.0,0.0,0.0,-4.4778,-5.1241,-5.8165,-6.0319,-6.4436,-6.7705,-6.6013,-6.332,-5.9973,-5.578,-5.1318,-4.7163,-4.3778,-4.22,-4.147,-4.1731,-4.2508,-4.4778,-4.9885,-5.1385,-5.4577,-6.232,-6.559,0.0,-7.5399,-8.0131,-8.3439,0.0,0.0,0.0,0.0,0.0,0.0,0.0,-8.5286,-8.5517,-8.6094,-8.5555,-8.5286,-8.5286,-8.4439,-8.3555,-8.2708,-8.2439,-8.0246,-7.6515,-7.9054,0.0,0.0,0.0,0.0,0.0,-7.563,-7.4745,-7.2437,-7.5014,-7.6015,-7.6015,-7.6015,-7.6015,-7.5745,0.0,0.0,0.0,0.0,0.0,0.0,0.0,-4.0462,-4.237,-4.4634,-4.595,-4.7481,-4.9529,-4.8991,-4.8488,-4.8496,-4.8241,0.0,0.0,0.0,0.0,0.0,0.0,0.0,-5.0132,-5.0171,-5.0844,-5.2237,-5.2237,-5.1943,-5.1409,-5.1393,-5.04,-4.8591,-4.6887,-4.6121,0.0,0.0,0.0,0.0,0.0,0.0,0.0,0.0,0.0,0.0,0.0,0.0,0.0,0.0,0.0,0.0,0.0,0.0,0.0,0.0,-4.5778,-5.0779,-5.3549,-5.778,-6.1166,-6.0127,-5.8088,-5.5588,-5.2472,-4.8894,-4.5547,-4.3124,-4.2431,-4.2085,-4.1431,-4.2816,-4.5047,-4.8086,-5.1241,-5.5088,-6.0089,0.0,0.0,-7.4207,0.0,0.0,0.0,0.0,0.0,0.0,0.0,0.0,0.0,0.0,-8.4632,-8.5132,-8.467,-8.4401,-8.4401,-8.3555,-8.2824,-8.2285,-8.167,-7.9492,-7.6097,-7.8299,0.0,0.0,0.0,0.0,0.0,-7.5553,-7.5053,-7.3783,-7.5361,-7.6015,-7.6015,-7.6015,-7.5784,-7.5322,0.0,0.0,0.0,0.0,0.0,0.0,0.0,-3.9649,-4.1319,-4.3053,-4.4717,-4.6672,-4.9224,-4.8839,-4.8382,-4.8412,0.0,0.0,0.0,0.0,0.0,0.0,0.0,0.0,-5.0782,-5.0867,-5.1409,-5.238,-5.2387,-5.2478,-5.2583,-5.251,-5.1509,-4.9682,-4.7943,-4.702,0.0,0.0,0.0,0.0,0.0,0.0,0.0,0.0,0.0,0.0,0.0,0.0,0.0,0.0,0.0,0.0,0.0,0.0,0.0,0.0,0.0,0.0,0.0,-5.4192,-5.728,-5.7165,-5.478,-5.1856,-4.9471,-4.5855,0.0,-4.2124,-4.2624,-4.2701,-4.117,-4.3594,-4.5441,-4.4124,-5.0587,-5.5626,-5.5203,-6.0319,0.0,0.0,-7.5861,0.0,0.0,0.0,0.0,0.0,0.0,0.0,0.0,0.0,-8.3478,-8.3401,-8.3401,-8.3439,-8.3516,-8.2631,-8.2093,-8.1839,-8.0439,-7.8329,-7.5719,-7.7574,0.0,0.0,0.0,0.0,0.0,-7.6015,-7.6015,-7.6015,-7.6015,-7.6015,-7.5976,-7.5938,-7.5399,-7.4591,0.0,0.0,0.0,0.0,0.0,0.0,0.0,0.0,0.0,0.0,-4.4214,-4.5606,-4.7516,-4.8128,-4.815,0.0,0.0,0.0,0.0,0.0,0.0,0.0,0.0,0.0,-4.9977,-5.0627,-5.1756,-5.3279,-5.3345,-5.3695,-5.4294,-5.4287,-5.3298,-5.1429,-4.9688,-4.7808,0.0,0.0,0.0,0.0,0.0,0.0,0.0,0.0,0.0,0.0,-4.1354,-4.1662,0.0,0.0,0.0,0.0,0.0,0.0,0.0,0.0,-4.0516,-4.0777,-4.347,0.0,-4.7278,-4.6009,-4.5586,-4.5316,0.0,-4.3316,-4.2431,-4.3508,-4.3893,-4.4085,-4.4363,-4.6672,-4.924,-5.1471,-5.4549,-5.7769,-6.0819,-6.7475,0.0,-7.4591,-8.0439,-8.3862,0.0,0.0,0.0,0.0,0.0,0.0,0.0,0.0,-8.2324,-8.1708,-8.167,-8.1977,-8.2593,-8.1785,-8.0069,-7.7588,-7.9129,-7.6861,-7.1505,-7.5811,0.0,0.0,0.0,0.0,-7.6015,-7.6015,-7.6015,-7.6015,-7.6015,-7.6015,-7.5938,-7.5245,-7.4899,-7.4476,0.0,0.0,0.0,0.0,0.0,0.0,0.0,0.0,0.0,0.0,0.0,-4.4846,-4.6897,-4.7927,0.0,0.0,0.0,0.0,0.0,0.0,0.0,0.0,0.0,-5.0241,-5.0241,-5.0751,-5.1647,-5.3007,-5.3081,-5.3521,-5.4336,-5.3948,-5.3194,-5.2105,-4.9881,-4.7683,0.0,0.0,0.0,0.0,0.0,0.0,0.0,0.0,0.0,0.0,-4.0131,-4.0469,0.0,-4.2662,-4.3085,-4.3008,0.0,0.0,0.0,0.0,-3.9631,-3.94,-3.9931,-4.1854,-4.4008,-4.5047,-4.4778,-4.4432,-4.524,-4.3547,-4.2162,-4.347,-4.3739,-4.4008,-4.4855,-4.6778,-4.9125,-5.1741,-5.4241,-5.8011,0.0,0.0,-7.3591,-7.5207,-7.8977,0.0,0.0,0.0,0.0,0.0,0.0,0.0,0.0,0.0,-8.1362,-8.0516,-8.0508,-8.0769,-8.1193,-8.0769,-7.8859,-7.5537,-7.7737,-7.6274,-7.1762,-7.5311,0.0,0.0,0.0,0.0,-7.5861,-7.4322,-7.4591,-7.6015,-7.6015,-7.5745,-7.5361,-7.4861,-7.4207,-7.3437,0.0,0.0,0.0,0.0,0.0,0.0,0.0,0.0,0.0,0.0,0.0,0.0,0.0,0.0,0.0,0.0,0.0,0.0,0.0,0.0,0.0,0.0,-5.0457,-5.0906,-5.0914,-5.099,-5.1492,-5.251,-5.2576,-5.3036,-5.3889,-5.3145,-5.2473,-5.1787,-4.9319,-4.7298,-4.5701,0.0,0.0,0.0,0.0,0.0,0.0,0.0,0.0,0.0,0.0,0.0,0.0,-4.1816,-4.2508,-4.2662,-4.2393,0.0,0.0,0.0,0.0,0.0,-3.8623,-4.07,-4.3778,-4.7355,-4.6701,-4.5594,-4.7009,-4.447,-4.2154,-4.3431,-4.3778,-4.4201,-4.5278,-4.7201,-4.9048,-5.0356,-5.3626,0.0,-6.6244,-6.9706,-7.2283,-7.4437,0.0,0.0,0.0,0.0,0.0,0.0,0.0,0.0,0.0,0.0,0.0,-7.9631,-7.9653,-7.962,-7.9519,-7.9635,-7.7992,-7.4653,-7.661,-7.6109,-7.3574,-7.5427,-7.6225,0.0,0.0,0.0,-7.5798,-7.286,-7.3399,-7.5976,-7.5861,-7.5361,-7.4668,-7.4399,-7.3437,-7.2168,0.0,0.0,0.0,0.0,0.0,0.0,0.0,0.0,0.0,0.0,0.0,0.0,0.0,0.0,0.0,0.0,0.0,0.0,0.0,0.0,0.0,-4.9681,-5.0457,-5.0921,-5.0998,-5.1005,-5.1816,-5.3475,-5.3482,-5.3968,-5.4815,-5.466,-5.2984,-5.0051,-4.8902,-4.738,-4.5701,-4.5693,0.0,0.0,0.0,0.0,0.0,0.0,0.0,0.0,0.0,0.0,0.0,-3.87,-3.9738,-4.0669,-3.9238,0.0,0.0,0.0,0.0,0.0,-4.0462,-4.1577,-4.2154,-4.2808,-4.3239,-4.3547,-4.3816,-4.2816,-4.2654,-4.5692,-4.6855,-4.8048,-5.0308,-5.3933,-5.6395,-5.5906,-5.9896,-6.4243,0.0,0.0,-7.4245,0.0,0.0,0.0,0.0,0.0,0.0,0.0,0.0,0.0,0.0,0.0,0.0,-7.8707,-7.8723,-7.8406,-7.7771,-7.8535,-7.7202,-7.3985,-7.643,-7.5888,-7.2855,-7.5291,-7.6338,0.0,0.0,-7.5644,-7.6038,-7.5466,-7.5515,-7.5938,-7.5207,-7.4822,-7.4553,-7.3091,-7.2399,-7.2091,0.0,0.0,0.0,0.0,0.0,0.0,0.0,0.0,0.0,0.0,0.0,0.0,0.0,0.0,0.0,0.0,0.0,0.0,0.0,0.0,-4.8766,-4.9716,-5.0129,-5.0502,-5.1005,-5.1453,-5.2348,-5.3715,-5.4162,-5.4841,-5.567,-5.4705,-5.2375,-4.9026,-4.8577,-4.7372,-4.5695,-4.5646,-4.5612,0.0,0.0,0.0,0.0,0.0,0.0,0.0,0.0,0.0,0.0,0.0,-3.9515,-4.0362,-3.9592,0.0,0.0,0.0,0.0,0.0,-3.8077,-3.9738,-4.1662,-4.397,-4.4855,-4.624,-5.0356,-4.7432,-4.5201,-5.001,-4.874,-4.7817,-5.1269,-5.3885,-5.6626,-5.9858,0.0,-6.9821,-7.1,-7.3206,-7.5053,0.0,0.0,0.0,0.0,0.0,0.0,0.0,0.0,0.0,0.0,0.0,0.0,0.0,-7.7906,-7.7511,-7.6707,-7.7123,-7.6108,-7.3716,-7.6842,-7.6469,-7.3227,-7.5812,-7.6688,-7.6069,0.0,-7.4139,-7.5225,-7.3374,-7.3399,-7.463,-7.4207,-7.3745,-7.3206,-7.1975,-7.1514,-7.1514,0.0,0.0,0.0,0.0,0.0,0.0,0.0,0.0,0.0,0.0,0.0,0.0,0.0,0.0,0.0,0.0,0.0,0.0,0.0,-4.8125,-4.8488,-4.9988,-5.0079,-5.0583,-5.1615,-5.2056,-5.2859,-5.4,-5.4666,-5.523,-5.567,-5.4057,-5.1579,-4.8503,-4.8377,-4.7372,-4.568,-4.5423,-4.5466,-4.5496,0.0,0.0,0.0,0.0,0.0,0.0,0.0,0.0,0.0,0.0,0.0,0.0,0.0,0.0,0.0,-3.843,-3.7392,-3.6692,-3.6692,-3.8392,-4.1285,-4.5778,-4.6462,-4.8125,-5.6165,-5.1548,-4.748,-5.4049,-5.1433,-4.9125,-5.2962,-5.4549,-5.7319,-6.3512,-6.9244,-7.3245,-7.4245,-7.4938,0.0,0.0,0.0,0.0,0.0,0.0,0.0,0.0,0.0,0.0,0.0,0.0,0.0,0.0,-7.7035,-7.6755,-7.6062,-7.6324,-7.5734,-7.4229,-7.6958,-7.6842,-7.4268,-7.6288,-7.6712,-7.5655,-7.3021,-7.2866,-7.4235,-7.1668,-7.1745,-7.3462,-7.3283,-7.2668,-7.1822,-7.1168,-7.0898,-7.1014,0.0,0.0,0.0,0.0,0.0,0.0,0.0,0.0,0.0,0.0,0.0,0.0,0.0,0.0,0.0,0.0,0.0,0.0,0.0,-4.9552,-4.99,-5.079,-5.0874,-5.1739,-5.3475,-5.2715,-5.3155,-5.4925,-5.4904,-5.4562,-5.3889,-5.2913,-5.1056,-4.8509,-4.8495,-4.7448,-4.565,-4.4909,-4.5001,-4.547,-4.3065,0.0,0.0,0.0,0.0,0.0,0.0,0.0,0.0,0.0,0.0,0.0,0.0,0.0,-3.9207,-3.8277,-3.7392,-3.7199,-3.9515,-3.9785,-4.0585,-4.5624,-4.5124,-4.5778,-5.5021,-5.1135,-4.798,-5.6319,-5.6395,-5.578,-5.8473,-6.0319,-6.2897,-6.7321,-6.9744,-7.2476,0.0,0.0,0.0,0.0,0.0,0.0,0.0,0.0,0.0,0.0,0.0,0.0,0.0,0.0,0.0,0.0,0.0,-7.6068,-7.6029,-7.6871,-7.6864,-7.6031,-7.6276,-7.6276,-7.6031,-7.6198,-7.5813,-7.4964,-7.4667,-7.4202,-7.365,-7.335,-7.3322,-7.3437,-7.2591,-7.1745,-7.0975,-7.0937,-7.0898,-7.0898,0.0,0.0,0.0,0.0,0.0,0.0,0.0,0.0,0.0,0.0,0.0,0.0,0.0,0.0,0.0,0.0,0.0,0.0,0.0,-4.6836,-4.7436,-4.9318,-4.9431,-5.0008,-5.1244,-5.2489,-5.3984,-5.5754,-5.5203,-5.4246,-5.2873,-5.1438,-4.9698,-4.7689,-4.7668,-4.6922,-4.5718,-4.4839,-4.4978,-4.555,-4.2999,-4.148,0.0,0.0,0.0,0.0,0.0,0.0,0.0,0.0,-3.6892,-3.7892,-3.7353,-3.7777,-3.8315,-3.7469,-3.6615,-3.6154,-3.7123,-3.8315,-4.0785,-4.6932,-4.5778,-4.5663,-5.5549,-5.4357,-5.3549,-6.2012,-5.9896,-5.6791,-5.778,-6.105,-6.4705,-6.7898,-7.1129,0.0,0.0,0.0,0.0,0.0,0.0,0.0,0.0,0.0,0.0,0.0,0.0,0.0,0.0,0.0,0.0,0.0,0.0,-7.4938,-7.4437,-7.4812,-7.4802,-7.456,-7.6181,-7.6644,-7.6062,-7.5523,-7.483,-7.4021,-7.3994,-7.3518,-7.2709,-7.2682,-7.236,-7.186,-7.1514,-7.1206,-7.0898,-7.0898,-7.0898,-7.0898,0.0,0.0,0.0,0.0,0.0,0.0,0.0,0.0,0.0,0.0,0.0,0.0,0.0,0.0,0.0,0.0,0.0,0.0,-4.5415,-4.523,-4.5963,-4.8005,-4.8335,-4.8909,-4.9737,-5.1481,-5.3247,-5.4982,-5.4162,-5.3016,-5.1591,-5.0079,-4.8618,-4.7236,-4.7178,-4.6647,-4.5743,-4.4626,-4.4619,-4.5206,-4.2647,-4.1123,0.0,0.0,0.0,0.0,0.0,0.0,0.0,0.0,-3.6654,-3.7546,-3.7199,-3.7507,-3.7892,-3.7276,-3.693,-3.6699,-3.6699,-3.8161,-4.1054,-4.6778,-4.5817,-4.6201,-5.6703,-5.6511,-5.6395,-6.4628,-6.3063,-6.0023,-5.9511,-6.2243,-6.5359,0.0,-7.0898,0.0,0.0,0.0,0.0,0.0,0.0,0.0,0.0,0.0,0.0,0.0,0.0,0.0,0.0,0.0,0.0,0.0,0.0,0.0,-7.3514,-7.3514,-7.3514,-7.3514,-7.5033,-7.5572,-7.5207,-7.4591,-7.386,-7.3091,-7.3091,-7.2591,-7.1783,-7.1783,-7.1437,-7.0898,-7.0898,-7.0898,-7.0898,-7.0898,-7.0744,-7.0514,0.0,0.0,0.0,0.0,0.0,0.0,0.0,0.0,0.0,0.0,0.0,0.0,0.0,0.0,0.0,0.0,0.0,0.0,-4.4763,-4.5456,-4.6245,-4.7139,-4.8012,-4.8836,-4.9642,-4.9723,-5.0596,-5.2264,-5.149,-5.0667,-4.9887,-4.8914,-4.8042,-4.7311,-4.7236,-4.67,-4.5783,-4.4073,-4.3802,-4.4383,-4.1823,-4.0338,-3.95,0.0,0.0,0.0,0.0,0.0,0.0,0.0,-3.6692,-3.6846,-3.77,-3.8007,-3.8007,-3.8007,-3.8623,-3.9284,-3.9323,-3.99,-4.1324,-4.4748,-4.4979,-4.7201,-5.8204,-5.6857,-5.5434,-6.3051,-6.5936,-6.6551,-6.4897,-6.4628,-6.5205,-6.6821,-6.859,0.0,0.0,0.0,0.0,0.0,0.0,0.0,0.0,0.0,0.0,0.0,0.0,0.0,0.0,0.0,0.0,0.0,0.0,0.0,-7.3462,-7.3462,-7.3462,-7.3476,-7.2591,-7.2629,-7.35,-7.3462,-7.3014,-7.2168,-7.2168,-7.1706,-7.0898,-7.0898,-7.0898,-7.0898,-7.0898,-7.0898,-7.0898,-7.0898,-7.036,-6.9706,0.0,0.0,0.0,0.0,0.0,0.0,0.0,0.0,0.0,0.0,0.0,0.0,0.0,0.0,0.0,0.0,0.0,0.0,-4.2083,-4.2882,-4.3734,-4.4579,-4.5969,-4.6857,-4.71,-4.7654,-4.8826,-5.0552,-4.9736,-4.9198,-4.8875,-4.7412,-4.6934,-4.7275,-4.7914,-4.7022,-4.507,-4.5153,-4.4643,-4.3596,-4.165,-4.0369,-3.95,0.0,0.0,0.0,0.0,0.0,0.0,0.0,0.0,0.0,-3.6538,-3.7853,-3.9669,-3.9092,-3.8661,-3.8623,-3.9823,-3.99,-4.0746,-4.5355,-4.7201,-4.9202,-5.4318,-5.6588,-5.9281,-6.5128,-6.6282,-6.5551,-6.3243,-6.5782,-6.7936,-6.7205,-6.9552,0.0,0.0,0.0,0.0,0.0,0.0,0.0,0.0,0.0,0.0,0.0,0.0,0.0,0.0,0.0,0.0,0.0,0.0,0.0,-7.1668,-7.1668,-7.1668,-7.1668,-7.1398,-7.1745,-7.2552,-7.1937,-7.1514,-7.1283,-7.1283,-7.1129,-7.0898,-7.0898,-7.0898,-7.0821,-7.0283,-7.0052,-6.9975,-6.936,-6.9013,-6.8783,0.0,0.0,0.0,0.0,0.0,0.0,0.0,0.0,0.0,0.0,-4.458,-4.4737,0.0,0.0,0.0,0.0,0.0,0.0,0.0,-4.1792,-4.2642,-4.3448,-4.4429,-4.5147,-4.5473,-4.5969,-4.6911,-4.8263,-4.8126,-4.7711,-4.7012,-4.6324,-4.6241,-4.6762,-4.7323,-4.6319,-4.4222,-4.4422,-4.3679,-4.2281,-4.0976,-3.9874,-3.9019,0.0,0.0,0.0,0.0,0.0,0.0,0.0,0.0,0.0,-3.5808,-3.7353,-3.94,-3.8931,-3.9354,-4.0469,-4.247,-4.3162,-4.4701,-5.0471,-5.1125,-5.1318,-5.4895,-5.7934,-6.1666,-6.7398,-6.7975,-6.7051,-6.582,-6.7821,0.0,-6.8744,0.0,0.0,0.0,0.0,0.0,0.0,0.0,0.0,0.0,0.0,0.0,0.0,0.0,0.0,0.0,0.0,0.0,0.0,0.0,0.0,-7.0898,-7.0898,-7.0744,-7.0437,-7.0437,-7.05,-7.0665,-7.0808,-7.0898,-7.0898,-7.0552,-7.0437,-7.0398,-7.0052,-6.9898,-6.986,-6.936,-6.9167,-6.9129,-6.859,-6.8167,-6.7898,0.0,0.0,0.0,0.0,0.0,0.0,0.0,0.0,0.0,0.0,-4.384,-4.427,0.0,0.0,0.0,0.0,0.0,0.0,0.0,-4.1756,-4.2569,-4.3348,-4.3559,-4.4015,-4.4793,-4.4882,-4.5154,-4.5685,-4.6454,-4.6213,-4.502,-4.562,-4.5975,-4.6113,-4.6113,-4.5103,-4.3316,-4.2617,-4.1684,-4.0592,-3.9854,-3.901,-3.8185,-3.8092,0.0,0.0,0.0,0.0,0.0,0.0,0.0,0.0,-3.5615,-3.6776,-3.8161,-3.8315,-4.0585,-4.3701,-4.6394,-4.8086,-5.0625,-5.7165,-5.5472,-5.3538,-5.8973,-6.0627,-6.2858,-6.936,-6.9975,-6.9667,-7.0591,-7.0244,-7.0052,0.0,0.0,0.0,0.0,0.0,0.0,0.0,0.0,0.0,0.0,0.0,0.0,0.0,0.0,0.0,0.0,0.0,0.0,0.0,0.0,0.0,-7.0667,-7.0667,-7.0321,0.0,-6.9577,-6.9127,-6.8342,-6.9934,-7.0654,-7.0615,-6.9898,-6.959,-6.9513,-6.8744,-6.8385,-6.8385,-6.8321,-6.8282,-6.8282,-6.8205,-6.7667,-6.6974,0.0,0.0,0.0,0.0,0.0,0.0,0.0,0.0,0.0,0.0,0.0,0.0,0.0,0.0,0.0,0.0,0.0,0.0,0.0,-4.0882,-4.1749,-4.2612,-4.4556,-4.5644,-4.5714,-4.5737,-4.5193,-4.4033,-4.4189,-4.5104,-4.666,-4.5581,-4.5747,-4.7012,-4.7035,-4.5336,-4.25,-4.3005,-4.1543,-3.883,-3.8718,-3.8122,-3.7259,-3.7207,-3.6516,0.0,0.0,0.0,0.0,0.0,0.0,0.0,-3.6423,-3.7623,-3.9277,-4.0585,-4.2008,-4.3932,-4.7817,-4.7663,-4.7548,-5.2356,-5.3741,-5.5972,-6.3705,-6.4051,-6.3935,-6.809,-6.7744,-6.7359,-6.9552,-7.0321,0.0,0.0,0.0,0.0,0.0,0.0,0.0,0.0,0.0,0.0,0.0,0.0,0.0,0.0,0.0,0.0,0.0,0.0,0.0,0.0,0.0,-6.8936,-6.8936,-6.8936,-6.8859,0.0,-6.8614,-6.851,-6.8304,-6.8702,-6.8855,-6.8869,-6.8717,-6.8667,-6.8667,-6.8475,-6.8385,-6.8321,-6.7667,-6.7359,-6.7282,-6.6667,-6.632,-6.6167,0.0,0.0,0.0,0.0,0.0,0.0,0.0,0.0,0.0,0.0,0.0,0.0,0.0,0.0,0.0,0.0,0.0,0.0,0.0,-4.0249,-4.0881,-4.175,-4.3766,-4.4653,-4.4184,-4.4155,-4.3923,-4.3463,-4.2664,-4.313,-4.4827,-4.562,-4.6014,-4.6091,-4.6108,-4.4404,-4.1529,-4.1218,-3.9753,-3.7691,-3.772,-3.7414,-3.687,-3.6422,-3.6,-3.5489,-3.5033,0.0,0.0,0.0,0.0,0.0,0.0,0.0,-3.8315,-3.9585,-4.0585,-4.22,-4.6432,-4.8394,-5.0433,-5.5511,-5.8396,-6.0781,-6.3974,-6.4628,-6.5051,-6.6859,-6.7167,-6.7513,-6.8821,0.0,0.0,0.0,0.0,0.0,0.0,0.0,0.0,0.0,0.0,0.0,0.0,0.0,0.0,0.0,0.0,0.0,0.0,0.0,0.0,0.0,-6.8385,-6.8385,-6.8385,-6.8385,-6.8179,-6.773,-6.7703,-6.7418,-6.7002,-6.7878,-6.8304,-6.8265,-6.7948,-6.7782,-6.7744,-6.7359,-6.7205,-6.7167,-6.6705,-6.6513,-6.6474,-6.6051,-6.5897,-6.5897,0.0,0.0,0.0,0.0,0.0,0.0,0.0,0.0,0.0,0.0,0.0,0.0,0.0,0.0,0.0,0.0,0.0,0.0,0.0,-3.9858,-4.0262,-4.0859,-4.252,-4.2988,-4.2015,-4.2068,-4.2388,-4.2964,-4.159,-4.1737,-4.336,-4.6047,-4.679,-4.588,-4.5414,-4.3627,-4.0791,-3.9125,-3.7773,-3.675,-3.6765,-3.6626,-3.6311,-3.5635,-3.5251,-3.4982,-3.4244,-3.4545,-3.5269,-3.5269,0.0,0.0,0.0,0.0,-3.6692,-3.77,-3.8623,-4.0208,-4.4286,-4.9317,-5.478,-6.0473,-6.3243,-6.4282,-6.3063,-6.4051,-6.5359,-6.582,-6.7128,-6.8167,0.0,0.0,0.0,0.0,0.0,0.0,0.0,0.0,0.0,0.0,0.0,0.0,0.0,0.0,0.0,0.0,0.0,0.0,0.0,0.0,-6.8129,-6.7975,-6.7975,-6.7975,-6.7975,-6.7962,-6.7576,-6.6792,-6.6765,-6.6298,-6.5518,-6.7079,-6.7801,-6.7777,-6.7166,-6.6898,-6.6821,-6.6167,-6.5897,-6.5897,-6.5897,-6.5897,-6.5897,-6.5897,-6.5897,-6.5897,0.0,0.0,0.0,0.0,0.0,0.0,0.0,0.0,0.0,0.0,-4.2045,-4.1927,-4.0171,-3.9976,0.0,0.0,0.0,0.0,-3.8767,0.0,0.0,-4.0,-4.2286,-4.2834,-4.1218,-4.182,-4.1883,-4.1247,-4.099,-4.3252,-4.7745,-4.7428,-4.84,-5.027,-4.7978,-4.4715,-4.0791,-3.9125,-3.7405,-3.5803,-3.5891,-3.5418,-3.4619,-3.4594,-3.4036,-3.3317,-3.3147,-3.3622,-3.4359,-3.4359,-3.4891,0.0,0.0,0.0,-3.5962,-3.7546,-3.8623,-4.0054,-4.3508,-4.9317,-5.5395,-5.9858,-6.0127,-6.0396,-6.4474,-6.3948,-6.3217,0.0,-6.6628,0.0,0.0,0.0,0.0,0.0,0.0,0.0,0.0,0.0,0.0,0.0,0.0,0.0,0.0,0.0,0.0,0.0,0.0,0.0,0.0,-6.7282,-6.6936,-6.6244,-6.6244,-6.6244,-6.6244,-6.6179,-6.6076,-6.5947,-6.5786,-6.5594,-6.5429,-6.5724,-6.5911,-6.5967,-6.5972,-6.6,-6.6051,-6.5936,-6.5897,-6.5897,-6.5897,-6.5897,-6.5897,-6.5897,-6.5897,-6.5897,0.0,0.0,0.0,0.0,0.0,0.0,0.0,0.0,0.0,0.0,0.0,-4.0639,-3.9897,-3.8961,0.0,0.0,0.0,0.0,-3.783,-3.9001,0.0,-3.8428,-3.9452,-3.9668,-3.8898,-3.9155,-3.9358,-3.9509,-3.9442,-4.3329,-5.0736,-5.0348,-5.0542,-5.1202,-5.0969,-4.7162,-4.0869,-4.0092,-3.819,-3.564,-3.5175,-3.5916,-3.688,-3.4035,-3.4185,-3.567,-3.3705,-3.3572,-3.4382,-3.4812,-3.5251,-3.5605,-3.5952,0.0,0.0,0.0,-3.6199,-3.7161,-4.3932,-4.7586,-5.1548,-6.0089,-5.9511,-5.8434,-6.4512,-6.3935,-6.2832,-6.5359,0.0,0.0,0.0,0.0,0.0,0.0,0.0,0.0,0.0,0.0,0.0,0.0,0.0,0.0,0.0,0.0,0.0,0.0,0.0,0.0,-6.6436,-6.6436,-6.6282,-6.5897,-6.5897,0.0,-6.5897,-6.5833,-6.5753,-6.5632,-6.5479,-6.5405,-6.5413,-6.542,-6.5494,-6.5608,-6.5715,-6.5833,-6.5897,-6.5897,-6.5897,-6.5897,-6.5897,-6.5897,-6.5897,-6.5897,-6.5897,-6.5897,0.0,0.0,0.0,0.0,0.0,0.0,0.0,0.0,0.0,0.0,0.0,-3.9429,-3.9195,0.0,0.0,0.0,0.0,0.0,-3.6931,0.0,0.0,0.0,-3.6991,-3.6989,-3.6554,-3.664,-3.7152,-3.807,-3.7791,-4.248,-5.1785,-5.2212,-5.2678,-5.3145,-5.3766,-4.9998,-4.3083,-4.1801,-3.983,-3.7574,-3.6493,-3.7161,-3.8468,-3.5072,-3.5609,-3.781,-3.4819,-3.4311,-3.5041,-3.524,-3.5289,-3.5326,-3.5525,-3.4679,0.0,0.0,0.0,-3.4103,-4.2393,-4.447,-4.6864,-5.7434,-5.7088,-5.5665,0.0,0.0,-6.1512,0.0,0.0,0.0,0.0,0.0,0.0,0.0,0.0,0.0,0.0,0.0,0.0,0.0,0.0,0.0,0.0,0.0,0.0,0.0,0.0,0.0,-6.5897,-6.5897,-6.5897,-6.5897,-6.5897,-6.5897,-6.5897,-6.5807,-6.566,-6.5465,-6.5405,-6.5413,-6.5413,-6.5413,-6.5465,-6.5608,-6.5701,-6.582,-6.5897,-6.5897,-6.5897,-6.5897,-6.5897,-6.5897,-6.5897,-6.6128,-6.6205,-6.6244,0.0,0.0,0.0,0.0,0.0,0.0,0.0,0.0,0.0,0.0,0.0,-3.8337,-3.7516,-3.736,-3.697,-3.607,-3.5992,0.0,0.0,0.0,0.0,0.0,0.0,0.0,-3.4844,-3.5509,-3.6279,-3.7169,-3.632,-4.0791,-5.0042,-5.1668,-5.4543,-5.8311,-5.5981,-5.2873,-4.911,-4.4215,-4.2475,-4.2859,-4.1238,-3.9141,-3.7191,-3.865,-3.88,-3.7981,-3.6195,-3.6074,-3.6527,-3.4974,-3.4461,-3.461,-3.535,-3.3909,-3.2081,0.0,0.0,0.0,-3.7021,-3.9585,-4.2478,-4.9596,-5.051,-5.0664,0.0,0.0,0.0,0.0,0.0,0.0,0.0,0.0,0.0,0.0,0.0,0.0,0.0,0.0,0.0,0.0,0.0,0.0,0.0,0.0,0.0,0.0,0.0,0.0,-6.5897,-6.5897,-6.5897,-6.5897,-6.5897,-6.5897,-6.5897,-6.5715,-6.5537,-6.5413,-6.5413,-6.5413,-6.5413,-6.5413,-6.5465,-6.5594,-6.5608,-6.5728,-6.5897,-6.5897,-6.5897,-6.5897,-6.5897,-6.5897,-6.5974,-6.6744,-6.7051,-6.7167,0.0,0.0,0.0,0.0,0.0,0.0,0.0,0.0,0.0,0.0,0.0,0.0,0.0,-3.6813,-3.6344,-3.6031,-3.5992,0.0,0.0,0.0,0.0,0.0,0.0,0.0,-3.3867,-3.4138,-3.4935,-3.6317,-3.6021,-3.9288,-4.5841,-4.7512,-4.9726,-5.2445,-5.7068,-5.5048,-4.8133,-4.6851,-4.3933,-4.0383,-4.2534,-4.248,-4.113,-4.1233,-4.2786,-4.4284,-3.9854,-3.95,-4.078,-3.8569,-3.7031,-3.611,-3.642,-3.4724,-3.2367,-3.1052,-3.1772,-3.3407,-3.5149,-3.7262,-4.046,-4.671,-4.6394,-4.6124,-5.2279,-5.4549,0.0,0.0,0.0,0.0,0.0,0.0,0.0,0.0,0.0,0.0,0.0,0.0,0.0,0.0,0.0,0.0,0.0,0.0,0.0,0.0,0.0,0.0,-6.582,-6.4371,-6.4205,-6.5859,-6.5897,-6.5859,-6.5715,-6.5622,-6.5523,-6.5413,-6.5413,-6.5413,-6.5413,-6.5413,-6.5465,-6.5594,-6.5594,-6.5728,-6.5897,-6.5897,-6.5897,-6.5897,-6.5897,-6.5897,-6.5936,-6.6205,-6.632,-6.6359,0.0,0.0,0.0,0.0,0.0,0.0,0.0,0.0,-3.7947,-3.8533,0.0,0.0,0.0,0.0,-3.6305,-3.6031,-3.5719,-3.568,-3.5992,-3.5719,0.0,0.0,0.0,0.0,-3.2961,-3.324,-3.4061,-3.5472,-3.5769,-3.7909,-4.1842,-4.3825,-4.5833,-4.7978,-5.3689,-5.3727,-4.9493,-5.0386,-4.7939,-4.3709,-4.5726,-4.6188,-4.5618,-4.5351,-4.6804,-4.8605,-4.5558,-4.4599,-4.4554,-4.3177,-4.0775,-3.8258,-3.7987,-3.5325,-3.1723,-2.8879,-3.0268,-3.2658,-3.2282,-3.3815,-3.6787,-4.1855,-4.1393,-4.1378,-4.793,0.0,0.0,0.0,0.0,0.0,0.0,0.0,0.0,0.0,0.0,0.0,0.0,0.0,0.0,0.0,0.0,0.0,0.0,0.0,0.0,0.0,0.0,0.0,-6.582,-6.4294,-6.4128,-6.5859,-6.5872,-6.5768,-6.5594,-6.558,-6.5509,-6.5413,-6.5413,-6.5413,-6.5413,-6.5413,-6.535,-6.5186,-6.5186,-6.546,-6.5897,-6.5897,-6.5897,-6.5897,-6.5897,-6.5897,-6.5936,-6.6205,-6.6282,-6.632,0.0,0.0,0.0,0.0,0.0,0.0,-3.9976,-3.9118,-3.8573,-3.8612,0.0,0.0,0.0,0.0,0.0,-3.6187,-3.533,-3.5174,-3.5992,-3.5213,-3.4351,-3.3448,-3.3399,-3.3003,-3.2104,-3.2879,-3.3709,-3.4609,-3.546,-3.6715,-3.8377,-4.0942,-4.3436,-4.5735,-4.589,-4.8721,-5.3423,-5.4349,-5.4194,-5.3157,-5.0927,-4.994,-4.9959,-5.1076,-5.0842,-5.0287,-5.3004,-5.121,-4.77,-4.8553,-4.5375,-4.0912,-3.9897,-3.5546,-3.0143,-2.6653,-2.7538,-2.9354,0.0,0.0,0.0,-3.4765,0.0,0.0,-4.0851,0.0,0.0,0.0,0.0,0.0,0.0,0.0,0.0,0.0,0.0,0.0,0.0,0.0,0.0,0.0,0.0,0.0,0.0,0.0,0.0,0.0,0.0,-6.582,-6.5897,-6.5897,-6.5897,-6.5897,-6.5795,-6.5715,-6.5556,-6.5461,-6.5374,-6.5337,-6.5337,-6.5337,-6.5337,-6.5337,-6.4967,-6.4342,-6.4342,-6.4922,-6.582,-6.582,-6.582,-6.582,-6.582,-6.582,-6.5897,-6.6705,-6.6974,-6.709,0.0,0.0,0.0,0.0,0.0,-4.1006,-4.0771,-3.8975,-3.7882,0.0,0.0,0.0,-3.8539,-3.8885,-3.9,-3.8765,-3.7985,-3.7361,-3.697,-3.6109,-3.4977,-3.3453,-3.3402,-3.3007,-3.2115,-3.2314,-3.315,-3.4609,-3.4882,-3.5577,-3.6639,-3.7964,-3.897,-3.9811,-4.3498,-4.5265,-4.5572,-4.7616,-4.7284,-4.5813,-5.0724,-5.0863,-4.8651,-5.3913,-5.4616,-5.3026,-5.5067,-5.4945,-5.3738,-5.2738,-4.9379,-4.4575,-3.8727,-3.5313,-3.2905,-3.0101,-3.1534,-3.3425,-3.0629,0.0,0.0,0.0,0.0,0.0,0.0,0.0,0.0,0.0,0.0,0.0,0.0,0.0,0.0,0.0,0.0,0.0,0.0,0.0,0.0,0.0,0.0,0.0,0.0,0.0,0.0,0.0,-6.4166,-6.3948,-6.5782,-6.5897,-6.5897,-6.5897,-6.5218,-6.4807,-6.4726,-6.4043,-6.3652,-6.3579,-6.3579,-6.3579,-6.3579,-6.3579,-6.3523,-6.3392,-6.3433,-6.3667,-6.395,-6.3988,-6.4012,-6.4012,-6.4012,-6.4012,-6.4051,-6.4282,-6.4359,-6.4397,0.0,0.0,-4.3157,-4.3158,-4.2611,-4.2181,-4.2182,-4.0619,-3.9604,0.0,0.0,0.0,-3.9128,-4.0179,-4.0292,-3.8882,-3.7985,-3.7282,-3.6774,-3.5955,-3.4821,-3.3452,-3.3406,-3.2971,-3.2111,-3.2111,-3.2748,-3.4094,-3.4487,-3.4765,-3.4875,-3.5734,-3.6159,-3.6265,-3.9238,-4.0198,-3.9769,-4.1955,-4.3833,-4.5923,-5.1558,-5.3185,-5.2776,-5.7555,-5.8213,-5.6932,-5.9828,-5.9573,-5.7977,-5.8094,-5.3613,-4.6891,-4.0942,-3.7442,-3.5207,-3.3382,-3.4769,-3.6125,-3.2687,-3.4072,-3.6275,-3.5238,0.0,0.0,0.0,-4.1035,0.0,0.0,0.0,0.0,0.0,0.0,0.0,0.0,0.0,0.0,0.0,0.0,0.0,0.0,0.0,0.0,0.0,0.0,0.0,0.0,-6.432,-6.4166,-6.5282,-6.5359,-6.5205,-6.482,-6.4232,-6.3884,-6.3844,-6.3236,-6.2935,-6.2892,-6.2892,-6.2892,-6.2892,-6.2892,-6.2744,-6.247,-6.2552,-6.2426,-6.2157,-6.2219,-6.2666,-6.3308,-6.3308,-6.3308,-6.3308,-6.3308,-6.3308,-6.3308,0.0,0.0,-4.2377,-4.2651,-4.3159,-4.3627,-4.3824,-4.3003,-4.2418,0.0,-4.1948,-4.1321,-4.081,-4.1902,-4.1509,-3.8573,-3.7087,-3.6344,-3.6422,-3.533,-3.4314,-3.3448,-3.3487,-3.3053,-3.1989,-3.2035,-3.2471,-3.3251,-3.4117,-3.4208,-3.3554,-3.4452,-3.4804,-3.4756,-3.4635,-3.5102,-3.5996,-3.7669,-4.2566,-4.9481,-5.2445,-5.5658,-5.8944,-6.1133,-6.1246,-6.0771,-6.5273,-6.4122,-6.077,-6.3139,-5.764,-4.9176,-4.5255,-4.1379,-3.796,-3.6518,-3.7311,-3.7972,-3.4734,-3.4964,-3.6086,-3.6086,-3.5396,0.0,-3.755,-4.0842,0.0,0.0,0.0,0.0,0.0,0.0,0.0,0.0,0.0,0.0,0.0,0.0,0.0,0.0,0.0,0.0,0.0,0.0,-6.4589,-6.4589,-6.532,-6.5436,-6.4628,-6.4512,-6.4089,-6.332,-6.3066,-6.2962,-6.2962,-6.2734,-6.2624,-6.2624,-6.2624,-6.2624,-6.2624,-6.2624,-6.2233,-6.1576,-6.1619,-6.1275,-6.0685,-6.0757,-6.1666,-6.3012,-6.3012,-6.3012,-6.3012,-6.3012,-6.3012,-6.3012,-4.1132,-4.1328,-4.207,-4.414,-4.3476,-4.3125,-4.4531,-4.3398,-4.2656,-4.3359,-4.3905,-4.4723,-4.5969,-4.5145,-4.4517,-4.4554,-4.0605,-3.8375,-3.9039,-3.6306,-3.4315,-3.3453,-3.4074,-3.3367,-3.1102,-3.1728,-3.2196,-3.2352,-3.3218,-3.3927,-3.4478,-3.5336,-3.5729,-3.5694,-3.5,-3.5116,-3.5975,-3.7015,-4.0334,-4.5305,-4.9988,-5.3932,-5.7489,-6.207,-6.1953,-6.0077,-6.5117,-6.4961,-6.2419,-6.2223,-5.9864,-5.5803,-4.8903,-4.6173,-4.4452,-3.9366,-3.9111,-4.0036,-3.798,-3.7648,-3.7882,-3.7882,-3.7213,0.0,-3.719,-3.7405,0.0,0.0,0.0,0.0,0.0,0.0,0.0,0.0,0.0,0.0,0.0,0.0,0.0,0.0,0.0,0.0,0.0,0.0,-6.4589,-6.4589,-6.4743,-6.4782,-6.4628,-6.3935,-6.3462,-6.3308,-6.2542,-6.2118,-6.2118,-6.1294,-6.0867,-6.0867,-6.0867,-6.0867,-6.0867,-6.0867,-6.0804,-6.0665,-6.0801,-6.0738,-6.061,-6.0734,-6.0973,-6.1281,-6.1281,-6.1281,-6.1281,-6.1281,-6.1281,-6.1281,-4.0547,-4.0898,-4.1875,-4.3984,-4.3633,-4.3633,-4.5391,-4.4531,-4.418,-4.5469,-4.6797,-4.7265,-4.6403,-4.6284,-4.5618,-4.3857,-4.0962,-3.8889,-3.7951,-3.5879,-3.412,-3.2792,-3.318,-3.2982,-3.2124,-3.1655,-3.1889,-3.2748,-3.318,-3.3611,-3.4081,-3.5407,-3.6226,-3.6579,-3.5264,-3.5424,-3.6558,-3.6133,-3.8437,-4.3007,-4.9919,-5.4762,-5.8398,-6.3633,-6.4531,-6.3398,-6.5976,-6.6054,-6.4414,-6.0892,-5.9405,-5.8078,-5.245,-4.9835,-4.7918,-4.3529,-4.2585,-4.2471,-4.0252,-3.9657,-3.9578,-3.9146,-3.8731,0.0,0.0,-3.8026,-3.8898,0.0,0.0,0.0,0.0,0.0,0.0,0.0,0.0,0.0,0.0,0.0,0.0,0.0,0.0,0.0,0.0,0.0,-6.3572,-6.3935,-6.3935,-6.3782,-6.3358,-6.2935,-6.2512,-6.2089,-6.1543,-6.1237,-6.1237,-6.0709,-6.0464,-6.0464,-6.0466,-6.048,-6.048,-6.048,-6.048,-6.0531,-6.0597,-6.0635,-6.0648,-6.0746,-6.0781,-6.0781,-6.0781,-6.0781,-6.0781,-6.0781,-6.0781,-6.0781,-3.9883,-4.0469,-4.1367,-4.2734,-4.3516,-4.4375,-4.5625,-4.5508,-4.5898,-4.7617,-4.9062,-4.9336,-4.7655,-4.7538,-4.6638,-4.4292,-4.2101,-3.9911,-3.7645,-3.6508,-3.502,-3.2949,-3.2675,-3.2831,-3.3377,-3.1854,-3.1659,-3.2908,-3.3221,-3.3416,-3.3416,-3.5016,-3.6226,-3.697,-3.5408,-3.6034,-3.8184,-3.6582,-3.8895,-4.4216,-5.1562,-5.5586,-5.7851,-6.3867,-6.5859,-6.5547,-6.6523,-6.6914,-6.6054,-6.0381,-5.8983,-5.8941,-5.5117,-5.2265,-4.9844,-4.7151,-4.5668,-4.4387,-4.2061,-4.1443,-4.1291,-4.0415,-4.0198,-3.9867,0.0,0.0,0.0,-4.0997,0.0,0.0,0.0,0.0,0.0,0.0,0.0,0.0,0.0,0.0,0.0,0.0,0.0,0.0,0.0,0.0,-6.1169,-6.2764,-6.2571,-6.2213,-6.1893,-6.1855,-6.1535,-6.0808,-6.066,-6.0597,-6.0585,-6.0571,-6.0506,-6.0506,-6.0559,-6.0585,-6.0585,-6.0585,-6.0585,-6.0585,-6.066,-6.0697,-6.0697,-6.0757,-6.0781,-6.0781,-6.0781,-6.0781,-6.0781,-6.0781,-6.0781,-6.0781,-3.9766,-3.9961,-4.0117,-4.0312,-4.2851,-4.4648,-4.4062,-4.5234,-4.6797,-4.8516,-4.8906,-5.0937,-5.5898,-5.1132,-4.9568,-5.4412,-4.8434,-4.3978,-4.2918,-4.1278,-3.8932,-3.568,-3.4822,-3.4081,-3.3416,-3.2441,-3.166,-3.1113,-3.2635,-3.3416,-3.3416,-3.4393,-3.5291,-3.6109,-3.5135,-3.7367,-4.1747,-4.0769,-4.5072,-5.2772,-5.5272,-5.3789,-5.1055,-6.0039,-6.2031,-6.0664,-6.5273,-6.6914,-6.6328,-6.2539,-6.1327,-6.0544,-5.5577,-5.2723,-5.0734,-4.8125,-4.6172,-4.4647,-4.3572,-4.3295,-4.3103,-4.2233,-4.1999,-4.1378,-3.9031,0.0,-3.9494,-3.8053,0.0,0.0,0.0,0.0,0.0,0.0,0.0,0.0,0.0,0.0,0.0,0.0,0.0,0.0,0.0,0.0,0.0,-6.1012,-5.994,-5.963,-6.0976,-6.1053,-6.0938,-6.071,-6.0685,-6.0648,-6.0585,-6.0572,-6.061,-6.061,-6.061,-6.0585,-6.0585,-6.0585,-6.0585,-6.0585,-6.066,-6.0697,-6.0697,-6.0757,-6.0781,-6.0781,-6.0781,-6.0781,-6.0781,-6.0781,-6.0781,-6.0781,-3.8984,-3.9141,-3.9453,-4.0469,-4.1406,-4.2422,-4.3516,-4.6875,-4.9336,-4.9609,-5.0937,-5.3594,-5.8164,-5.5156,-5.4453,-5.8437,-5.4452,-5.0701,-4.8317,-4.4682,-4.175,-3.9791,-3.6509,-3.4787,-3.4899,-3.3066,-3.1934,-3.1543,-3.2791,-3.3416,-3.3416,-3.4276,-3.5447,-3.6735,-3.5843,-3.858,-4.3818,-4.2453,-4.5113,-5.0389,-5.1639,-5.0546,-4.9414,-6.0898,-6.4609,-6.375,-6.4414,-6.5625,-6.5976,0.0,-6.0311,0.0,-5.6553,-5.4241,-5.3457,-5.2301,-4.9019,-4.562,-4.5226,-4.5506,-4.5468,-4.3542,-4.3819,-4.4019,-4.1937,-4.0605,-3.9705,0.0,0.0,0.0,0.0,0.0,0.0,0.0,0.0,0.0,0.0,0.0,0.0,0.0,0.0,0.0,0.0,0.0,0.0,0.0,0.0,-5.5843,-5.6502,-5.8443,-5.9464,-5.9292,-5.9292,-5.9261,-5.9166,-5.9203,-5.9216,-5.9216,-5.9252,-5.9506,-5.9967,-5.9967,-6.0236,-6.071,-6.0734,-6.0746,-6.0746,-6.0769,-6.0781,-6.0781,-6.0781,-6.0781,-6.0781,-6.0781,-6.0781,-6.0781,-3.8437,-3.8398,-3.8476,-3.9297,-3.9883,-4.1016,-4.3359,-4.8086,-5.1367,-5.125,-5.2851,-5.5781,-6.0469,-5.7695,-5.7344,-6.1797,-5.9609,-5.6718,-5.3749,-4.9373,-4.6363,-4.5266,-3.9365,-3.6744,-3.8067,-3.463,-3.2598,-3.2091,-3.2714,-3.3182,-3.3416,-3.3807,-3.4902,-3.6582,-3.6432,-3.9561,-4.4993,-4.4917,-4.742,-5.1523,-5.2421,-5.2812,-5.375,-6.1758,-6.5664,-6.664,-6.4765,-6.5273,-6.5898,-5.9297,-5.9959,0.0,-5.8156,0.0,-5.5723,-5.6166,-5.2725,-4.8659,-4.8124,0.0,0.0,0.0,0.0,0.0,0.0,0.0,0.0,0.0,0.0,0.0,0.0,0.0,-3.7492,-3.6442,0.0,0.0,0.0,0.0,0.0,0.0,0.0,0.0,0.0,0.0,0.0,0.0,0.0,0.0,-5.3399,-5.6466,-5.8255,-5.8333,-5.8374,-5.8312,-5.8185,-5.8286,-5.8297,-5.8235,-5.828,-5.8588,-5.9142,-5.9142,-5.95,-6.0127,-6.0127,-6.0127,-6.0127,-6.0358,-6.0435,-6.0473,-6.0704,-6.0781,-6.0781,-6.0781,-6.0781,-6.0781,-3.8437,-3.793,-3.6836,-3.5195,-3.8359,-4.1719,-4.3437,-4.8086,-5.1992,-5.3672,-5.3945,-5.6914,-6.457,-5.7851,-5.6562,-6.5898,-6.3515,-6.0781,-5.9062,-5.6444,-5.4178,-5.2456,-4.4249,-4.0887,-4.3389,-3.764,-3.3807,-3.2091,-3.213,-3.2558,-3.3377,-3.2558,-3.3108,-3.4871,-3.6512,-4.015,-4.5272,-4.9373,-5.5038,-6.1328,-6.2187,-6.4062,-6.5781,0.0,-6.2539,-6.6875,-6.6797,0.0,0.0,-6.2734,-6.1639,0.0,0.0,0.0,0.0,0.0,0.0,0.0,0.0,0.0,0.0,-4.7281,0.0,0.0,0.0,0.0,-4.1852,0.0,0.0,0.0,-3.8887,-3.7221,-3.6326,-3.7132,-3.6523,0.0,0.0,0.0,0.0,0.0,0.0,0.0,0.0,0.0,0.0,0.0,0.0,0.0,-5.3413,-5.6038,-5.7729,-5.8365,-5.8532,-5.854,-5.8394,-5.8535,-5.8493,-5.8319,-5.8319,-5.8264,-5.8227,-5.8227,-5.83,-5.8396,-5.8396,-5.8396,-5.8434,-5.9204,-5.955,-5.9627,-6.0473,-6.0781,-6.0781,-6.0781,-6.0781,-6.0781,-3.7266,-3.7109,-3.7305,-3.7266,-3.8008,-3.957,-4.2422,-4.7266,-5.2031,-5.6055,-5.707,-6.125,-7.1328,-6.8789,-6.7617,-7.0859,-7.1094,-6.914,-6.4609,-6.1836,-6.0117,-5.9529,-5.2341,-4.7691,-4.6322,-4.2571,-3.8703,-3.468,-3.4679,-3.4522,-3.4249,-3.3975,-3.4132,-3.4798,-3.7144,-4.1013,-4.6132,-5.0429,-5.5273,-6.0078,0.0,-6.2031,-6.4336,0.0,0.0,-6.6914,-6.6914,-6.6914,0.0,-6.3554,-6.371,-6.4803,-6.277,-6.1127,-6.0423,-6.2726,-5.9954,0.0,0.0,0.0,-5.6786,-5.2483,0.0,0.0,0.0,0.0,0.0,0.0,0.0,0.0,-3.8923,-3.764,-3.7135,-3.8026,-3.6944,-3.5465,0.0,0.0,0.0,0.0,0.0,0.0,0.0,0.0,0.0,0.0,0.0,0.0,0.0,-5.0747,-5.3419,-5.3572,-5.5847,-5.7004,-5.6806,-5.6925,-5.6964,-5.6845,-5.6893,-5.7164,-5.7601,-5.7601,-5.7844,-5.8242,-5.8242,-5.8219,-5.8262,-5.8531,-5.8977,-5.9511,-5.9819,-6.0281,-6.0781,-6.0781,-6.0781,-6.0781,-3.8086,-3.7578,-3.7851,-3.8086,-3.8672,-4.0391,-4.4141,-4.8594,-5.3867,-6.0273,-6.1055,-6.4687,-7.4375,-7.332,-7.2422,-7.3633,-7.3672,-7.2226,-6.8945,-6.4297,-6.2734,-6.5195,-5.7499,-5.3006,-5.2614,-4.7652,-4.3472,-4.0114,-3.7652,-3.648,-3.6518,-3.4956,-3.4254,-3.4332,-3.6951,-4.0507,-4.4882,-5.1015,-5.5781,-5.9297,0.0,-6.2109,0.0,0.0,-6.6094,-6.6914,0.0,-6.6914,-6.664,-6.4961,-6.5508,-6.6679,-6.5272,-6.4256,-6.3864,-6.5582,-6.3083,-5.9919,-6.0347,-6.0894,0.0,-5.6005,-5.4519,0.0,-4.8963,0.0,0.0,0.0,0.0,0.0,0.0,-3.9435,-3.8533,-3.8185,-3.7207,-3.5641,0.0,-3.1777,0.0,0.0,0.0,0.0,0.0,0.0,-3.8003,-3.8698,0.0,0.0,0.0,0.0,-5.0948,-5.1156,-5.427,-5.5992,-5.6141,-5.6242,-5.6237,-5.6161,-5.6181,-5.6425,-5.6859,-5.6859,-5.7055,-5.7409,-5.7409,-5.7397,-5.7379,-5.7692,-5.8127,-5.8721,-5.9292,-5.9858,-6.0358,-6.0704,-6.0781,-6.0781,-4.0586,-3.9375,-3.8672,-3.7891,-4.0508,-4.4141,-4.832,-5.1992,-5.7305,-6.5664,-6.5586,-6.7305,-7.3984,-7.1914,-7.1211,-7.414,-7.1562,-7.0351,-7.1719,-6.4219,-6.2695,-6.9453,-6.0156,-5.703,-6.1718,-5.2888,-4.8121,-4.7848,-4.0974,-3.8434,-3.9879,-3.5543,-3.3474,-3.3475,-3.6132,-3.871,-4.168,-5.1172,-5.6797,-5.9609,-6.1875,-6.4375,-6.6445,-6.3945,0.0,-6.6914,-6.6914,-6.6914,-6.6914,-6.6914,-6.6914,-6.7109,-6.793,-6.7656,-6.7031,-6.6992,-6.6367,-6.5351,-6.3631,-6.3162,-6.2146,-5.7963,0.0,0.0,0.0,0.0,-4.9752,0.0,0.0,0.0,0.0,-4.2331,-4.0331,-3.7956,-3.7365,-3.6033,-3.2636,-3.2792,0.0,0.0,0.0,0.0,0.0,-3.7374,-3.7332,-3.4922,-3.7723,-3.9992,0.0,0.0,0.0,-5.1213,-5.3587,-5.5345,-5.641,-5.6335,-5.6277,-5.6207,-5.6212,-5.6184,-5.6125,-5.6125,-5.6065,-5.5993,-5.5986,-5.5954,-5.598,-5.6714,-5.7089,-5.7284,-5.8825,-5.9473,-5.9665,-6.0473,-6.0781,-6.0781,-4.0703,-4.1758,-4.3476,-4.3906,-4.5781,-4.7812,-4.9609,-5.4922,-6.0234,-6.4414,-6.8476,-7.2383,-7.6133,-7.8008,-7.7031,-7.2148,-7.2695,-7.2109,-6.9375,-6.7656,-6.8711,-7.3086,-6.8867,-6.5547,-6.3672,-5.9336,-5.5234,-5.1406,-4.5117,-4.164,-4.0781,-3.707,-3.4336,-3.2656,-3.5859,-3.8047,-3.9883,-4.9375,-5.6719,-6.1914,-6.0664,-6.1719,0.0,0.0,-6.4609,-6.6914,-6.6914,-6.6914,-6.6914,-6.6914,-6.7344,-6.789,-6.8125,-6.8476,-6.8633,-6.8047,-6.7695,-6.7305,-6.6211,-6.5429,-6.4375,-6.1951,-5.945,-5.6871,0.0,0.0,0.0,0.0,0.0,0.0,0.0,0.0,-4.1119,-4.1073,-3.8415,-3.5563,-3.3377,-3.2128,0.0,-3.3846,0.0,0.0,0.0,-3.4826,-3.4981,-3.5612,-3.588,0.0,0.0,0.0,0.0,-5.0309,-4.988,-5.1788,-5.6415,-5.4602,-5.46,-5.6402,-5.6465,-5.6458,-5.641,-5.641,-5.6277,-5.6063,-5.6037,-5.6002,-5.5962,-5.6077,-5.6551,-5.735,-5.8325,-5.9397,-6.0473,-6.0704,-6.0781,-6.0781,-4.2344,-4.4336,-4.6758,-4.6836,-5.0781,-5.4101,-5.457,-5.7617,-6.1875,-6.75,-7.0859,-7.4023,-7.7383,-8.0469,-8.039,-7.5625,-7.3437,-7.2109,-7.1601,-6.8086,-6.8594,-7.4336,-7.1719,-6.8828,-6.6055,-6.3437,-5.9765,-5.4961,-4.8164,-4.4141,-4.2734,-3.7383,-3.4101,-3.2812,-3.5117,-3.7266,-3.9844,-5.0078,-5.75,-6.2344,-6.1289,0.0,0.0,-6.3437,-6.4609,-6.6914,-6.6914,-6.6914,-6.6914,-6.6914,-6.7226,-6.7695,-6.8086,-6.8515,-6.8789,-6.832,-6.8203,-6.8008,-6.7148,-6.625,-6.5273,-6.3906,-6.1835,-5.9569,-5.7496,-5.6246,-5.527,0.0,0.0,0.0,0.0,0.0,0.0,-4.0563,-3.7827,-3.5407,-3.365,-3.3886,-3.4198,0.0,-3.4353,0.0,0.0,0.0,0.0,0.0,0.0,0.0,0.0,0.0,0.0,0.0,-4.7851,-5.0155,-5.3158,-5.1757,-5.2304,-5.4837,-5.4882,-5.5467,-5.6551,-5.6551,-5.6448,-5.6285,-5.6232,-5.6186,-5.6179,-5.6017,-5.6327,-5.6947,-5.8035,-5.9485,-6.0927,-6.0883,-6.0827,-6.0781,-4.5039,-4.6992,-4.9101,-4.8672,-5.4883,-6.0234,-6.1289,-6.1406,-6.4219,-7.2109,-7.3242,-7.4609,-7.7969,-8.0703,-8.1758,-8.0469,-7.4062,-7.164,-7.5312,-6.7695,-6.6601,-7.4609,-7.1914,-6.9805,-6.8906,-6.6328,-6.293,-5.875,-5.0742,-4.6172,-4.4844,-3.7266,-3.3555,-3.3281,-3.4375,-3.7266,0.0,-5.1523,-5.7969,-6.1797,-6.2656,-6.4375,-6.6172,-6.4258,-6.4922,-6.6914,-6.6914,-6.6914,-6.6914,-6.6914,-6.6914,-6.7031,-6.793,-6.8203,-6.8203,-6.8359,-6.8281,-6.8008,-6.7148,-6.6172,-6.5234,-6.4336,-6.3476,-6.2265,-6.0038,-5.953,-5.953,-5.953,-5.8161,0.0,0.0,0.0,0.0,-3.8732,-3.6894,-3.5722,-3.4005,-3.6622,-3.752,-3.4121,0.0,0.0,0.0,0.0,0.0,0.0,0.0,0.0,0.0,0.0,0.0,0.0,-4.6562,0.0,-4.9219,0.0,-5.0351,-5.3203,-5.2851,-5.4062,-5.6601,-5.6601,-5.6559,-5.6497,-5.6491,-5.647,-5.639,-5.6275,-5.6335,-5.6679,-5.8086,-5.9618,-6.1109,-6.0972,-6.0877,-6.0827,-4.8516,-4.9609,-5.1601,-5.3594,-5.5781,-5.9414,-6.5859,-7.0312,-7.2773,-7.2305,-7.7031,-7.9726,-7.7656,-8.0351,-8.082,-7.7109,-7.4883,-7.3711,-7.375,-7.1523,-7.2148,-7.6562,-7.5469,-7.4023,-7.2422,-6.9883,-6.6797,-6.3164,-5.3984,-4.7969,-4.4844,-3.8516,-3.4414,-3.25,-3.4766,0.0,-4.8476,-4.9726,0.0,-6.1797,-6.2656,-6.3281,-6.3867,-6.5586,-6.6484,-6.6914,-6.6914,-6.6914,-6.6914,-6.6914,-6.6914,-6.7031,-6.793,-6.8203,-6.8359,-6.9062,-6.875,-6.8008,-6.7148,-6.5742,-6.4336,-6.3437,-6.2578,-6.1797,-6.1367,-6.125,-6.125,-6.125,-5.9922,-5.8476,-5.7616,0.0,0.0,0.0,0.0,-3.7531,-3.5774,-3.7923,-3.8664,-3.5886,-3.7722,0.0,0.0,0.0,0.0,0.0,0.0,0.0,0.0,0.0,0.0,0.0,0.0,0.0,0.0,0.0,0.0,-5.5898,-5.3711,-5.4062,-5.6601,-5.6601,-5.6601,-5.6561,-5.6502,-5.6491,-5.6491,-5.6404,-5.7147,-5.8375,-5.8583,-5.9672,-6.1118,-6.106,-6.108,-6.1041,-5.3633,-5.3125,-5.3281,-5.5,-5.8984,-6.3359,0.0,-7.4101,-7.7461,-7.4414,-7.7695,-7.9687,-7.8047,-8.0117,-8.0781,-7.8711,-7.5703,-7.4531,-7.5898,-7.3476,-7.3555,-7.7031,-7.6797,-7.5117,-7.2031,-7.1172,-6.8008,-6.2265,-5.418,-4.8164,-4.418,-3.7266,-3.3594,-3.3047,-3.7851,-4.2773,0.0,0.0,0.0,-6.1914,-6.4609,-6.5703,-6.582,-6.7109,-6.7305,-6.6914,-6.6914,-6.6914,-6.6914,-6.6914,-6.6914,-6.6953,-6.7383,-6.7851,-6.8281,-6.8711,-6.8515,-6.8125,-6.7695,-6.5976,-6.4219,-6.3789,-6.2695,-6.1719,-6.1719,-6.1719,-6.1719,-6.1719,-6.0703,-5.8867,-5.578,-5.1795,0.0,0.0,0.0,0.0,0.0,-3.9643,-3.9447,-3.8157,-3.9914,-3.9327,0.0,0.0,0.0,0.0,0.0,0.0,0.0,0.0,0.0,0.0,0.0,0.0,0.0,0.0,0.0,-5.457,-5.3281,-5.4062,-5.6601,-5.6601,-5.6601,-5.6601,-5.6558,-5.6556,-5.6557,-5.6462,-5.7434,-5.8888,-5.8832,-5.9821,-6.1296,-6.1203,-6.1152,-6.1125,-5.8711,-5.7461,-5.6562,-5.7812,-6.2812,-6.7344,-6.9492,-7.543,-7.8984,-7.7226,-7.8359,-7.9258,-7.9062,-8.0195,-8.0547,-7.9453,-7.6328,-7.4883,-7.5976,-7.4219,-7.3984,-7.6015,-7.6797,-7.5508,-7.1875,-7.2109,-6.8906,-6.207,-5.5195,-4.9336,-4.4375,-3.7383,-3.4531,0.0,0.0,0.0,0.0,0.0,-6.0742,-6.3125,-6.6953,-6.8476,-6.8476,-6.8476,-6.793,-6.7187,-6.7187,-6.707,-6.6914,-6.6914,-6.6914,-6.6914,-6.6914,-6.7383,-6.7969,-6.8164,-6.8203,-6.8164,-6.7969,-6.6289,-6.4492,-6.4101,-6.2851,-6.1719,-6.1719,-6.1719,-6.1719,-6.1719,-6.0859,-5.8711,-5.4101,-5.1874,0.0,0.0,0.0,0.0,0.0,0.0,-3.9918,-3.9918,-4.0738,-3.9995,0.0,0.0,0.0,0.0,0.0,0.0,-3.0663,-3.3358,0.0,0.0,0.0,0.0,-4.7031,0.0,-5.0469,0.0,-5.2969,-5.4062,-5.6601,-5.6601,-5.6601,-5.6601,-5.6601,-5.6601,-5.6601,-5.6518,-5.7519,-5.9017,-5.8964,-5.998,-6.1476,-6.133,-6.1237,-6.1228,-6.25,-6.2969,-6.4101,0.0,0.0,0.0,-7.4219,-7.5195,-7.6484,-8.0078,-8.1367,-8.164,-8.0859,-8.0898,-7.9101,-7.4414,-7.6484,-7.5156,-6.8437,-7.3476,-7.5469,-7.2617,-7.5508,-7.664,-7.543,-7.3945,-7.1289,0.0,0.0,-5.3789,-4.7148,-4.2539,-4.0781,0.0,0.0,0.0,0.0,-5.8945,-6.2656,-6.6601,-6.8594,-6.9375,-6.9375,-6.9375,-6.8828,-6.8086,-6.8086,-6.7578,-6.6914,-6.6914,-6.6914,-6.6914,-6.6914,-6.6953,-6.7187,-6.7969,-6.8203,-6.8047,-6.7226,-6.6289,-6.5117,-6.3515,-6.2422,-6.1719,-6.1719,-6.1719,-6.1719,-6.1719,-6.043,-5.8437,-5.5586,-5.3633,-5.0859,0.0,0.0,0.0,0.0,0.0,-3.9883,-3.9882,-3.8631,-3.7615,0.0,0.0,0.0,0.0,0.0,0.0,-3.4061,-3.2421,0.0,-3.7305,0.0,-4.2734,-4.5234,-4.7695,0.0,-5.6211,-5.3828,-5.4062,-5.6601,-5.6601,-5.6601,-5.6601,-5.6601,-5.6601,-5.66,-5.6516,-5.7527,-5.9095,-5.9019,-6.002,-6.149,-6.1476,-6.1439,-6.1352,0.0,0.0,0.0,0.0,0.0,0.0,0.0,-7.6562,-7.8281,-8.0,-8.0976,-8.1172,-8.0312,-7.9805,-7.8672,-7.6601,-7.7226,-7.6406,-7.3281,-7.5664,-7.6562,-7.5195,-7.6445,-7.7031,-7.668,-7.4961,-7.2422,0.0,0.0,-5.4375,-4.9062,-4.4726,0.0,0.0,0.0,-5.5742,-5.8437,-6.2539,-6.5898,-6.8515,-6.9726,-7.0234,-7.0234,-7.0234,-6.9687,-6.8867,-6.8359,-6.7969,-6.7617,-6.707,-6.6914,-6.6914,-6.6914,-6.6914,-6.707,-6.793,-6.7812,-6.7461,-6.7617,-6.664,-6.5312,-6.4101,-6.3125,-6.2344,-6.1836,-6.1719,-6.1719,-6.1719,-6.0351,-5.8555,-5.6484,-5.5078,-5.3242,0.0,0.0,0.0,0.0,0.0,0.0,-4.4414,-4.2539,-4.1132,0.0,0.0,0.0,0.0,0.0,0.0,0.0,0.0,0.0,-3.793,0.0,-4.4922,-4.957,-5.0664,-5.3008,-5.6601,-5.5547,-5.5586,-5.6601,-5.6601,-5.6601,-5.6601,-5.6601,-5.6601,-5.6601,-5.6562,-5.7578,-5.9101,-5.9055,-6.0098,-6.1575,-6.1504,-6.1478,-6.1456,-7.2187,0.0,-6.9101,0.0,-7.2344,-7.3672,-7.414,-7.7148,-7.8984,-7.7969,-7.9258,-8.0039,-7.9414,-7.8828,-7.7969,-7.6719,-7.6953,-7.6328,-7.4297,-7.6055,-7.6758,-7.5703,-7.664,0.0,-7.7187,-7.5742,-7.3672,-7.1015,-6.3633,-5.793,-5.3867,0.0,0.0,0.0,-5.8086,-6.1015,-6.2109,-6.625,-6.8711,-6.9844,-7.0469,-7.0859,-7.1055,-7.0781,-7.0312,-6.9726,-6.914,-6.8789,-6.8437,-6.7578,-6.7265,-6.7226,-6.6992,-6.6914,-6.7031,-6.7656,-6.7578,-6.7344,-6.7734,-6.6914,-6.5703,-6.457,-6.3633,-6.2773,-6.1914,-6.1719,-6.1562,-6.1055,-6.0039,-5.8672,-5.6914,-5.6094,-5.4922,-5.2695,0.0,0.0,0.0,-4.5703,0.0,-4.6641,-4.3867,-4.2226,-4.3203,0.0,0.0,0.0,0.0,0.0,0.0,0.0,0.0,0.0,0.0,0.0,0.0,0.0,-5.3281,-5.6601,-5.6601,-5.6601,-5.6601,-5.6601,-5.6601,-5.6601,-5.6601,-5.6601,-5.6601,-5.6601,-5.7575,-5.9092,-5.9101,-6.0117,-6.1601,-6.1552,-6.1515,-6.1491,-7.5664,-7.5781,-7.6055,-7.6953,-7.7109,-7.6289,-7.3711,-7.6289,-7.7265,-7.3828,-7.6406,-7.8515,-7.8515,-7.8515,-7.6758,-7.2461,-7.5234,-7.4297,-6.7461,-7.3398,-7.5664,0.0,0.0,-7.7187,-7.7187,-7.6328,-7.543,-7.4531,0.0,0.0,-6.2773,0.0,-5.9453,-6.0469,-6.4844,-6.7265,-6.8203,-6.9922,-7.0664,-7.0703,-7.0703,-7.1211,-7.1875,-7.1015,-7.0703,-7.0664,-7.0664,-7.0117,-6.9258,-6.8476,-6.8164,-6.8047,-6.7187,-6.6914,-6.6914,-6.6914,-6.7539,-6.8008,-6.7148,-6.6914,-6.6484,-6.4726,-6.3633,-6.2773,-6.1914,-6.1719,-6.1211,-5.957,-5.9219,-5.8672,-5.6914,-5.6601,-5.5469,-5.1992,0.0,0.0,0.0,0.0,0.0,-4.4922,-4.0508,-3.8711,-4.2109,0.0,0.0,0.0,0.0,0.0,0.0,0.0,0.0,-3.7226,-3.8203,0.0,-4.5039,-4.7656,-5.1523,-5.6601,-5.6601,-5.6601,-5.6601,-5.6601,-5.6601,-5.6601,-5.6601,-5.6601,-5.6601,-5.6601,-5.7576,-5.9091,-5.9091,-6.0113,-6.1601,-6.1601,-6.1555,-6.1517,-7.1836,-7.4375,-7.6328,-7.4805,-7.6015,-7.6914,-7.6094,-7.6914,-7.7226,-7.6094,-7.6914,-7.7617,-7.7617,-7.7617,-7.707,0.0,-7.4375,-7.3711,0.0,-7.375,-7.4219,-7.5508,-7.4336,-7.3633,-7.3633,-7.3398,-7.2539,-7.1133,0.0,0.0,0.0,-6.2461,-6.3203,-6.5781,-6.7773,-6.914,-6.9922,-7.0469,-7.1055,-7.1601,-7.1601,-7.1758,-7.1953,-7.168,-7.1601,-7.1523,-7.0898,-7.0508,-7.0156,-6.9375,-6.8672,-6.8164,-6.7851,-6.7383,-6.6914,-6.6914,-6.7109,-6.7265,-6.6992,-6.6914,-6.6484,-6.4726,-6.4101,-6.3515,-6.2031,-6.1719,-6.1367,-6.0234,-5.957,-5.8867,-5.7695,-5.6992,-5.5664,-5.2773,-5.2578,0.0,0.0,0.0,-4.6914,-4.5976,-4.3906,-4.2734,0.0,-4.1016,0.0,0.0,0.0,0.0,0.0,0.0,0.0,0.0,-4.4258,0.0,-5.1094,-5.1367,-5.3203,-5.6601,-5.6601,-5.6601,-5.6601,-5.6601,-5.6601,-5.6601,-5.6601,-5.6601,-5.6601,-5.6601,-5.7617,-5.9175,-5.9175,-6.0189,-6.167,-6.167,-6.164,-6.1558,-7.2695,-7.5,-7.668,-7.5039,-7.6133,-7.6758,-7.5469,-7.6367,-7.6719,-7.543,-7.6406,-7.7187,-7.7187,-7.7187,0.0,-7.7187,-7.5195,-7.4883,-7.707,-7.5156,-7.4922,-7.7109,-7.5117,-7.3945,-7.3945,0.0,0.0,-7.2383,-7.207,-7.0273,-6.7187,-6.6953,-6.7851,-6.9648,-7.0195,-7.0703,-7.1172,-7.1172,-7.1484,-7.1953,-7.164,-7.1719,-7.1953,-7.164,-7.1719,-7.1914,-7.1367,-7.1172,-7.1055,-7.0234,-6.9609,-6.9062,-6.875,-6.8086,-6.7305,-6.6992,-6.6914,-6.6914,-6.6914,-6.6914,-6.6562,-6.5156,-6.4531,-6.3828,-6.2109,-6.1719,-6.1445,-6.0586,-5.9765,-5.8945,-5.8047,-5.7187,-5.6055,-5.4414,0.0,-5.3437,-5.1836,0.0,0.0,0.0,0.0,0.0,0.0,-4.418,0.0,0.0,0.0,0.0,0.0,0.0,0.0,-4.4101,-4.6953,0.0,-5.3008,-5.2812,-5.4023,-5.6601,-5.6601,-5.6601,-5.6601,-5.6601,-5.6601,-5.6601,-5.6601,-5.6601,-5.6601,-5.6601,-5.7617,-5.9216,-5.9216,-6.0228,-6.1702,-6.1699,-6.1669,-6.1638,-7.6678,-7.6953,0.0,0.0,-7.707,0.0,-7.2851,-7.5117,-7.6055,-7.2773,-7.5195,-7.7187,-7.7187,-7.7187,-7.7187,-7.7187,0.0,0.0,0.0,-7.6953,-7.6953,-7.7187,-7.6953,0.0,-7.6836,-7.6836,-7.6953,-7.7187,-7.6289,-7.457,-7.2187,-7.289,-7.2773,-7.1992,-7.1992,-7.1992,-7.1992,-7.1992,-7.1992,-7.1914,-7.1133,-7.1289,-7.1914,-7.1094,-7.1289,-7.1992,-7.1992,-7.1992,-7.1875,-7.1055,-7.0742,-7.0547,-6.9765,-6.8945,-6.8125,-6.7265,-6.6953,-6.6914,-6.6914,-6.6914,-6.668,-6.582,-6.4883,-6.3789,-6.2148,-6.1758,-6.1484,-6.0664,-5.9805,-5.8945,-5.8125,-5.7226,-5.6562,-5.6523,-5.5117,-5.3945,-5.375,0.0,0.0,0.0,0.0,0.0,0.0,-4.6562,-4.6992,0.0,0.0,0.0,0.0,0.0,-4.2148,-4.543,-4.7226,-4.9297,-5.1758,-5.2578,-5.418,-5.6601,-5.6601,-5.6601,-5.6601,-5.6601,-5.6601,-5.6601,-5.6601,-5.6601,-5.6601,-5.6601,-5.7617,-5.9217,-5.9217,-6.023,-6.1709,-6.1702,-6.1699,-6.1701,0.0,0.0,-7.6468,-7.4531,-7.5859,-7.6914,-7.6094,-7.668,-7.6914,-7.6094,-7.668,-7.7187,-7.7187,-7.7187,-7.7187,-7.7187,-7.4765,-7.4375,-7.7031,-7.4726,-7.4414,-7.707,-7.4648,-7.3242,-7.3242,-7.3242,-7.4531,-7.7187,-7.5664,-7.4609,-7.3945,-7.2812,-7.2187,-7.1992,-7.1992,-7.1992,-7.1992,-7.1992,-7.1992,-7.1992,-7.1797,-7.1836,-7.1992,-7.1758,-7.1836,-7.1992,-7.1992,-7.1992,-7.1953,-7.1758,-7.125,-7.0664,-7.0469,-6.9844,-6.9023,-6.8164,-6.7422,-6.6914,-6.6914,-6.6914,-6.668,-6.582,-6.4453,-6.3203,-6.2773,-6.2187,-6.164,-6.1445,-6.0234,-5.914,-5.8945,-5.7656,-5.6367,-5.5703,-5.4687,-5.332,-5.1367,-4.9844,0.0,0.0,-4.7187,-4.8281,-4.6484,-4.9258,-5.0195,0.0,0.0,0.0,0.0,0.0,-4.8711,-5.082,-5.2578,-5.4101,-5.5351,-5.5586,-5.5976,-5.6601,-5.6601,-5.6601,-5.6601,-5.6601,-5.6601,-5.6601,-5.6601,-5.6601,-5.6601,-5.6601,-5.7617,-5.9218,-5.9218,-6.0233,-6.1715,-6.1714,-6.1708,-6.1699,-7.3055,-7.5068,-7.6573,-7.5312,-7.625,-7.7187,-7.7187,-7.7187,-7.7187,-7.7187,-7.7187,-7.7187,-7.7187,-7.7187,-7.7187,-7.7187,-7.5469,-7.5195,-7.707,-7.543,-7.5234,-7.7109,-7.539,-7.4375,-7.4375,-7.4375,-7.5312,-7.7187,-7.625,-7.5586,-7.5156,-7.3828,-7.2969,-7.2578,-7.2187,-7.1992,-7.1992,-7.1992,-7.1992,-7.1992,-7.1992,-7.1992,-7.1992,-7.1992,-7.1992,-7.1992,-7.1992,-7.1992,-7.1992,-7.1992,-7.168,-7.1289,-7.1289,-7.0703,-6.9961,-6.9492,-6.8476,-6.7422,-6.6992,-6.6914,-6.668,-6.582,-6.4883,-6.3984,-6.3164,-6.2617,-6.2187,-6.1797,-6.0664,-5.9648,-5.9258,-5.8086,-5.6797,-5.5508,-5.3906,-5.2187,-5.0469,-4.875,0.0,-4.6758,-4.875,-5.0117,-4.9844,-5.1914,-5.2539,-5.0664,0.0,0.0,-5.0508,-5.0664,-5.1523,-5.3242,-5.4609,-5.5703,-5.6601,-5.6601,-5.6601,-5.6601,-5.6601,-5.6601,-5.6601,-5.6601,-5.6601,-5.6601,-5.6601,-5.6601,-5.6601,-5.6601,-5.7617,-5.9219,-5.9219,-6.0234,-6.1718,-6.1717,-6.1714,-6.1708,-7.6878,-7.695,-7.6978,-7.7145,-7.7186,-7.7187,-7.7187,-7.7187,-7.7187,-7.7187,-7.7187,-7.7187,-7.7187,-7.7187,-7.7187,-7.7187,-7.7187,-7.7187,-7.7187,-7.7187,-7.7187,-7.7187,-7.7187,-7.7187,-7.7187,-7.7187,-7.7187,-7.7187,-7.7187,-7.6758,-7.5898,-7.5156,-7.4336,-7.3476,-7.2734,-7.2383,-7.2383,-7.2265,-7.2187,-7.2187,-7.2031,-7.1992,-7.1992,-7.1992,-7.1992,-7.1992,-7.1992,-7.1992,-7.1992,-7.1992,-7.1992,-7.1992,-7.1992,-7.1484,-7.0859,-7.0742,-6.9687,-6.8359,-6.7383,-6.6992,-6.6719,-6.5976,-6.5703,-6.5195,-6.3711,-6.3203,-6.2773,-6.2031,-6.1094,-6.0156,-5.9336,-5.8476,-5.7187,-5.5078,-5.2734,-5.0859,-4.9766,0.0,-4.7578,-4.9922,-5.0664,-5.1758,-5.3789,-5.3984,-5.4062,-5.418,-5.207,0.0,0.0,-5.2851,-5.2734,-5.3945,-5.4961,-5.5859,-5.6601,-5.6601,-5.6601,-5.6601,-5.6601,-5.6601,-5.6601,-5.6601,-5.6601,-5.6601,-5.6601,-5.6601,-5.6601,-5.6758,-5.7734,-5.9219,-5.9336,-6.0312,-6.1719,-6.1718,-6.1717,-6.1716,-7.6652,-7.6646,-7.6741,-7.6978,-7.7037,-7.7089,-7.7187,-7.7187,-7.7187,-7.7187,-7.7187,-7.7187,-7.7187,-7.7187,-7.7187,-7.7187,-7.7187,-7.7187,-7.7187,-7.7187,-7.7187,-7.7187,-7.7187,-7.7187,-7.7187,-7.7187,-7.7187,-7.7187,-7.7187,-7.6758,-7.5898,-7.5742,-7.5234,-7.4375,-7.4258,-7.4219,-7.414,-7.3398,-7.3086,-7.3047,-7.2305,-7.1992,-7.1992,-7.1992,-7.1992,-7.1992,-7.1992,-7.1992,-7.1992,-7.1992,-7.1992,-7.1992,-7.1992,-7.1914,-7.164,-7.0937,-7.0508,-6.9961,-6.8437,-6.7461,-6.6875,-6.6719,-6.6133,-6.5547,-6.5273,-6.4062,-6.2969,-6.2812,-6.1523,-6.0156,-5.9336,-5.8476,-5.6601,-5.2656,-5.1094,-4.957,0.0,0.0,-4.8906,-5.0078,-5.2734,-5.4375,-5.4023,-5.3984,-5.4297,-5.5039,-5.4062,-5.3594,-5.3984,-5.5156,-5.5234,-5.4023,-5.5547,-5.6445,-5.6601,-5.6601,-5.6601,-5.6601,-5.6601,-5.6601,-5.6601,-5.6601,-5.6601,-5.6601,-5.6601,-5.6601,-5.664,-5.7383,-5.8281,-5.9258,-5.9961,-6.082,-6.1719,-6.1719,-6.1718,-6.1716,-7.6564,-7.6635,-7.6684,-7.6858,-7.6907,-7.6981,-7.7093,-7.7096,-7.7101,-7.7187,-7.7187,-7.7187,-7.7187,-7.7187,-7.7187,-7.7187,-7.7187,-7.7187,-7.7187,-7.7187,-7.7187,-7.7187,-7.7187,-7.7187,-7.7187,-7.7187,-7.7187,-7.7187,-7.7187,-7.6992,-7.6601,-7.6133,-7.5703,-7.5273,-7.4805,-7.4609,-7.457,-7.418,-7.3984,-7.3906,-7.3047,-7.2695,-7.2656,-7.2187,-7.1992,-7.1992,-7.1992,-7.1992,-7.1992,-7.1992,-7.1992,-7.1992,-7.1992,-7.1992,-7.1914,-7.1523,-7.043,-6.918,-6.8398,-6.7578,-6.6914,-6.6914,-6.6601,-6.6172,-6.5703,-6.4961,-6.414,-6.3203,-6.2344,-6.1406,-6.0078,-5.914,-5.7773,-5.5312,-5.2617,0.0,0.0,-4.9648,-5.0078,-5.1406,-5.3789,-5.5312,-5.539,-5.539,-5.5586,-5.5976,-5.5625,-5.539,-5.539,-5.6172,-5.6211,-5.543,-5.6172,-5.6601,-5.6601,-5.6601,-5.6601,-5.6601,-5.6601,-5.6601,-5.6601,-5.6601,-5.6601,-5.6601,-5.6601,-5.6875,-5.7344,-5.7734,-5.8672,-5.9883,-6.0273,-6.0937,-6.1719,-6.1719,-6.1719,-6.1718,-7.6546,-7.6582,-7.6652,-7.6734,-7.681,-7.6868,-7.6954,-7.6958,-7.6984,-7.7144,-7.7146,-7.7186,-7.7187,-7.7187,-7.7187,-7.7187,-7.7187,-7.7187,-7.7187,-7.7187,-7.7187,-7.7187,-7.7187,-7.7187,-7.7187,-7.7187,-7.7187,-7.7187,-7.7187,-7.7187,-7.7187,-7.6523,-7.6211,-7.6172,-7.5508,-7.5195,-7.5195,-7.5,-7.4883,-7.4844,-7.3945,-7.3594,-7.3515,-7.2851,-7.2617,-7.2617,-7.2617,-7.2461,-7.2305,-7.2305,-7.2187,-7.1992,-7.1992,-7.1992,-7.1992,-7.1992,-7.0469,-6.8789,-6.8789,-6.8008,-6.7187,-6.7187,-6.7031,-6.6719,-6.6055,-6.5742,-6.5234,-6.3867,-6.3281,-6.2539,-6.0976,-6.0039,-5.8945,-5.7265,0.0,0.0,0.0,-5.1289,-5.1172,-5.3086,-5.4648,-5.5781,-5.625,-5.6289,-5.6289,-5.6289,-5.6289,-5.6289,-5.6289,-5.6484,-5.6601,-5.6601,-5.6601,-5.6601,-5.6601,-5.6601,-5.6601,-5.6601,-5.6601,-5.6601,-5.6601,-5.6601,-5.6601,-5.6601,-5.6797,-5.7265,-5.793,-5.832,-5.9258,-6.043,-6.0625,-6.1094,-6.1719,-6.1719,-6.1719,-6.1719,-7.6421,-7.6432,-7.6471,-7.6591,-7.6635,-7.6653,-7.6799,-7.6816,-7.6858,-7.6981,-7.699,-7.7048,-7.7187,-7.7187,-7.7187,-7.7187,-7.7187,-7.7187,-7.7187,-7.7187,-7.7187,-7.7187,-7.7187,-7.7187,-7.7187,-7.7187,-7.7187,-7.7187,-7.7187,-7.7187,-7.7187,-7.7148,-7.7109,-7.7109,-7.7031,-7.6992,-7.6953,-7.6133,-7.5781,-7.5742,-7.4844,-7.4492,-7.4492,-7.4414,-7.4414,-7.4414,-7.4414,-7.3906,-7.3203,-7.3203,-7.2656,-7.1992,-7.1992,-7.1992,-7.1992,-7.1992,-7.1289,-7.0508,-7.0508,-6.9336,-6.8086,-6.8086,-6.75,-6.6875,-6.6836,-6.6172,-6.5547,-6.543,-6.4101,-6.2695,-6.1797,-6.0898,-5.8984,-5.4922,0.0,0.0,-5.1601,-5.1406,-5.2266,-5.4805,-5.5937,-5.6211,-5.5469,-5.539,-5.539,-5.539,-5.539,-5.539,-5.539,-5.6172,-5.6601,-5.6601,-5.6601,-5.6601,-5.6601,-5.6601,-5.6601,-5.6601,-5.6601,-5.6601,-5.6601,-5.6601,-5.6601,-5.664,-5.7461,-5.7851,-5.8008,-5.957,-6.0273,-6.0469,-6.1289,-6.164,-6.1719,-6.1719,-6.1719,-6.1719,-7.6397,-7.6397,-7.6432,-7.6482,-7.6493,-7.6526,-7.6638,-7.6669,-7.6721,-7.6853,-7.6868,-7.6942,-7.7048,-7.7091,-7.7099,-7.7187,-7.7187,-7.7187,-7.7187,-7.7187,-7.7187,-7.7187,-7.7187,-7.7187,-7.7187,-7.7187,-7.7187,-7.7187,-7.7187,-7.7187,-7.7187,-7.7187,-7.7187,-7.7187,-7.7187,-7.7187,-7.7187,-7.6836,-7.6719,-7.664,-7.5742,-7.539,-7.5351,-7.4805,-7.4609,-7.4609,-7.4609,-7.4375,-7.4101,-7.4101,-7.3906,-7.3594,-7.3594,-7.3242,-7.2695,-7.2148,-7.1758,-7.1523,-7.1523,-7.0273,-6.8867,-6.8359,-6.7969,-6.7578,-6.7031,-6.664,-6.625,-6.5703,-6.5078,-6.418,-6.2773,-6.1797,-6.0664,-5.9023,0.0,-5.6015,-5.6211,-5.5312,-5.5,-5.5976,-5.6406,-5.6484,-5.6133,-5.6094,-5.6094,-5.6094,-5.6094,-5.6094,-5.6094,-5.6406,-5.6601,-5.6601,-5.6601,-5.6601,-5.6601,-5.6601,-5.6601,-5.6601,-5.6601,-5.6601,-5.6601,-5.7148,-5.7422,-5.7461,-5.832,-5.8984,-5.9492,-6.0156,-6.0703,-6.125,-6.1562,-6.1719,-6.1719,-6.1719,-6.1719,-6.1719,-7.6397,-7.6397,-7.6397,-7.6397,-7.6397,-7.6416,-7.6536,-7.6555,-7.6582,-7.6721,-7.6741,-7.6793,-7.6899,-7.695,-7.6978,-7.7142,-7.7144,-7.7146,-7.7187,-7.7187,-7.7187,-7.7187,-7.7187,-7.7187,-7.7187,-7.7187,-7.7187,-7.7187,-7.7187,-7.7187,-7.7187,-7.7187,-7.7187,-7.7187,-7.7187,-7.7187,-7.7187,-7.7187,-7.7187,-7.7148,-7.6562,-7.6328,-7.625,-7.5625,-7.543,-7.543,-7.543,-7.5234,-7.5,-7.5,-7.4844,-7.4609,-7.4609,-7.3984,-7.3164,-7.2578,-7.2226,-7.1992,-7.1992,-7.0976,-6.9726,-6.914,-6.8594,-6.8047,-6.7422,-6.7109,-6.6719,-6.6133,-6.5781,-6.5234,-6.4023,-6.289,-6.2031,-6.1758,-6.0,-5.8828,-5.914,-5.8164,-5.7422,-5.7422,-5.7187,-5.6992,-5.6992,-5.6758,-5.6601,-5.6601,-5.6601,-5.6601,-5.6601,-5.6601,-5.6601,-5.6601,-5.6601,-5.6601,-5.6601,-5.6601,-5.6601,-5.6601,-5.6601,-5.6758,-5.7031,-5.7617,-5.8047,-5.8359,-5.9219,-5.9883,-6.043,-6.0703,-6.1172,-6.1719,-6.1719,-6.1719,-6.1719,-6.1719,-6.1719,-6.1719,-7.6397,-7.6397,-7.6397,-7.6397,-7.6397,-7.6397,-7.6397,-7.6397,-7.645,-7.6573,-7.66,-7.6629,-7.6786,-7.6799,-7.6848,-7.6978,-7.6984,-7.7046,-7.7187,-7.7187,-7.7187,-7.7187,-7.7187,-7.7187,-7.7187,-7.7187,-7.7187,-7.7187,-7.7187,-7.7187,-7.7187,-7.7187,-7.7187,-7.7187,-7.7187,-7.7187,-7.7187,-7.7187,-7.7187,-7.7187,-7.7187,-7.7187,-7.7187,-7.7187,-7.7187,-7.7187,-7.7187,-7.664,-7.5898,-7.5898,-7.5351,-7.4609,-7.4609,-7.4023,-7.332,-7.332,-7.2695,-7.1992,-7.1992,-7.1367,-7.0703,-7.0703,-6.9453,-6.8203,-6.8203,-6.7539,-6.6914,-6.6914,-6.6211,-6.5625,-6.5586,-6.418,-6.2734,-6.1836,-6.0976,-6.0117,-5.9336,-5.9219,-5.9219,-5.9219,-5.8437,-5.789,-5.789,-5.7148,-5.6601,-5.6601,-5.6601,-5.6601,-5.6601,-5.6601,-5.6601,-5.6601,-5.6601,-5.6601,-5.6601,-5.6601,-5.6601,-5.6601,-5.6601,-5.707,-5.789,-5.793,-5.8398,-5.9258,-6.0078,-6.039,-6.0469,-6.1328,-6.1719,-6.1719,-6.1719,-6.1719,-6.1719,-6.1719,-6.1719,-6.1719,-7.6397,-7.6397,-7.6397,-7.6397,-7.6397,-7.6397,-7.6397,-7.6397,-7.6432,-7.646,-7.6471,-7.6516,-7.6668,-7.6646,-7.6713,-7.6843,-7.6954,-7.7046,-7.7187,-7.7187,-7.7187,-7.7187,-7.7187,-7.7187,-7.7187,-7.7187,-7.7187,-7.7187,-7.7187,-7.7187,-7.7187,-7.7187,-7.7187,-7.7187,-7.7187,-7.7187,-7.7187,-7.7187,-7.7187,-7.7187,-7.7187,-7.7187,-7.7187,-7.7187,-7.7187,-7.7187,-7.7187,-7.7031,-7.6797,-7.6797,-7.664,-7.6328,-7.5703,-7.5312,-7.5,-7.4375,-7.3594,-7.289,-7.289,-7.2265,-7.1484,-7.0859,-6.9883,-6.8945,-6.8359,-6.8008,-6.7656,-6.7031,-6.668,-6.6328,-6.5703,-6.4687,-6.3633,-6.2734,-6.1875,-6.1015,-6.0156,-6.0039,-5.9844,-5.9258,-5.8984,-5.8828,-5.8828,-5.8594,-5.8437,-5.8437,-5.7851,-5.75,-5.75,-5.75,-5.7773,-5.8398,-5.8437,-5.8437,-5.8437,-5.7226,-5.6914,-5.75,-5.75,-5.7969,-5.8828,-5.9414,-5.9805,-6.0078,-6.0937,-6.1328,-6.1328,-6.1601,-6.1719,-6.1719,-6.1719,-6.1719,-6.1719,-6.1719,-6.1719,-6.1719,-7.6409,-7.6397,-7.6397,-7.6397,-7.6397,-7.6397,-7.6397,-7.6397,-7.6397,-7.6397,-7.6397,-7.6416,-7.6516,-7.6526,-7.6573,-7.6706,-7.6843,-7.6961,-7.7039,-7.7041,-7.7087,-7.7101,-7.7101,-7.7145,-7.7187,-7.7187,-7.7187,-7.7187,-7.7187,-7.7187,-7.7187,-7.7187,-7.7187,-7.7187,-7.7187,-7.7187,-7.7187,-7.7187,-7.7187,-7.7187,-7.7187,-7.7187,-7.7187,-7.7187,-7.7187,-7.7187,-7.7187,-7.7187,-7.7187,-7.7187,-7.7187,-7.7109,-7.6562,-7.6172,-7.5781,-7.5273,-7.4492,-7.375,-7.3398,-7.2656,-7.1875,-7.1367,-7.0351,-6.9375,-6.8828,-6.8164,-6.7617,-6.7461,-6.7148,-6.6758,-6.6211,-6.539,-6.4531,-6.3672,-6.2773,-6.1914,-6.1055,-6.0898,-6.0742,-6.0234,-5.9883,-5.9687,-5.9687,-5.9375,-5.9219,-5.9219,-5.8711,-5.8398,-5.8398,-5.8398,-5.8672,-5.918,-5.9219,-5.9219,-5.9219,-5.8164,-5.789,-5.8398,-5.8398,-5.8867,-5.9687,-6.0195,-6.0586,-6.0937,-6.1484,-6.1719,-6.1719,-6.1719,-6.1719,-6.1719,-6.1719,-6.1719,-6.1719,-6.1719,-6.1719,-6.1719,-7.6409,-7.6397,-7.6397,-7.6397,-7.6397,-7.6397,-7.6397,-7.6397,-7.6397,-7.6397,-7.6397,-7.6397,-7.6397,-7.6397,-7.645,-7.6564,-7.6699,-7.6793,-7.6804,-7.6804,-7.6848,-7.6972,-7.6975,-7.7039,-7.7147,-7.7187,-7.7187,-7.7187,-7.7187,-7.7187,-7.7187,-7.7187,-7.7187,-7.7187,-7.7187,-7.7187,-7.7187,-7.7187,-7.7187,-7.7187,-7.7187,-7.7187,-7.7187,-7.7187,-7.7187,-7.7187,-7.7187,-7.7187,-7.7187,-7.7187,-7.7187,-7.7187,-7.7187,-7.664,-7.6015,-7.6015,-7.539,-7.4531,-7.3633,-7.2773,-7.207,-7.1914,-7.0742,-6.9609,-6.9492,-6.8281,-6.7305,-6.7969,-6.75,-6.6992,-6.6914,-6.6172,-6.5351,-6.4531,-6.3672,-6.2812,-6.1953,-6.1836,-6.1797,-6.1719,-6.1015,-6.0508,-6.0508,-5.9844,-5.9375,-5.9297,-5.9297,-5.9297,-5.9297,-5.9297,-5.9336,-5.9414,-5.9414,-5.9414,-5.9414,-5.9414,-5.9375,-5.9297,-5.9297,-5.9726,-6.0508,-6.0508,-6.0937,-6.1719,-6.1719,-6.1719,-6.1719,-6.1719,-6.1719,-6.1719,-6.1719,-6.1719,-6.1719,-6.1719,-6.1719,-6.1719,-7.6326,-7.6362,-7.6397,-7.6397,-7.6397,-7.6397,-7.6397,-7.6397,-7.6397,-7.6397,-7.6397,-7.6397,-7.6397,-7.6397,-7.6421,-7.6438,-7.6555,-7.6684,-7.6799,-7.6804,-7.6816,-7.6838,-7.6843,-7.6853,-7.6878,-7.7096,-7.7187,-7.7187,-7.7187,-7.7187,-7.7187,-7.7187,-7.7187,-7.7187,-7.7187,-7.7187,-7.7187,-7.7187,-7.7187,-7.7187,-7.7187,-7.7187,-7.7187,-7.7187,-7.7187,-7.7187,-7.7187,-7.7187,-7.7187,-7.7187,-7.7187,-7.7187,-7.7187,-7.707,-7.6914,-7.6914,-7.6289,-7.543,-7.4531,-7.3672,-7.2695,-7.1328,-7.0703,-7.0273,-6.957,-6.918,-6.8594,-6.7422,-6.7578,-6.7695,-6.7031,-6.6172,-6.5547,-6.5351,-6.4609,-6.3711,-6.2851,-6.2734,-6.2461,-6.1797,-6.1523,-6.1406,-6.1406,-6.125,-6.0859,-6.0195,-6.0156,-6.0156,-6.0156,-6.0156,-6.0469,-6.1133,-6.1172,-6.1172,-6.1172,-6.1172,-6.082,-6.0156,-6.0156,-6.0586,-6.1406,-6.1406,-6.1523,-6.1719,-6.1719,-6.1719,-6.1719,-6.1719,-6.1719,-6.1719,-6.1719,-6.1719,-6.1719,-6.1719,-6.1719,-6.1719,-7.6301,-7.6326,-7.6362,-7.6397,-7.6397,-7.6397,-7.6397,-7.6397,-7.6397,-7.6397,-7.6397,-7.6397,-7.6397,-7.6397,-7.6397,-7.6397,-7.6471,-7.6507,-7.6618,-7.6618,-7.6621,-7.6699,-7.6699,-7.6734,-7.6799,-7.695,-7.7039,-7.7099,-7.7099,-7.7144,-7.7187,-7.7187,-7.7187,-7.7187,-7.7187,-7.7187,-7.7187,-7.7187,-7.7187,-7.7187,-7.7187,-7.7187,-7.7187,-7.7187,-7.7187,-7.7187,-7.7187,-7.7187,-7.7187,-7.7187,-7.7187,-7.7187,-7.7187,-7.7187,-7.7187,-7.7187,-7.6875,-7.6328,-7.5469,-7.457,-7.3594,-7.2265,-7.1328,-7.0469,-6.9609,-6.914,-6.8633,-6.7695,-6.7539,-6.7422,-6.6992,-6.6523,-6.6094,-6.5664,-6.5234,-6.4609,-6.375,-6.3633,-6.3281,-6.2422,-6.2305,-6.2148,-6.1758,-6.1719,-6.1523,-6.1055,-6.1015,-6.1015,-6.1015,-6.1015,-6.1211,-6.168,-6.1719,-6.1719,-6.1719,-6.1719,-6.1484,-6.1015,-6.1015,-6.125,-6.1719,-6.1719,-6.1719,-6.1719,-6.1719,-6.1719,-6.1719,-6.1719,-6.1719,-6.1719,-6.1719,-6.1719,-6.1719,-6.1719,-6.1719,-6.1719,-7.6263,-7.6263,-7.6288,-7.635,-7.6338,-7.6338,-7.6362,-7.6374,-7.6374,-7.6397,-7.6397,-7.6397,-7.6397,-7.6397,-7.6397,-7.6397,-7.6397,-7.6397,-7.6397,-7.6397,-7.6438,-7.6526,-7.6545,-7.6626,-7.6713,-7.6728,-7.681,-7.6965,-7.6965,-7.7037,-7.7186,-7.7186,-7.7187,-7.7187,-7.7187,-7.7187,-7.7187,-7.7187,-7.7187,-7.7187,-7.7187,-7.7187,-7.7187,-7.7187,-7.7187,-7.7187,-7.7187,-7.7187,-7.7187,-7.7187,-7.7187,-7.7187,-7.7187,-7.7187,-7.7187,-7.7187,-7.7187,-7.6992,-7.6133,-7.5351,-7.457,-7.3555,-7.2226,-7.0898,-6.9844,-6.8984,-6.8359,-6.8242,-6.7617,-6.707,-6.6914,-6.6914,-6.664,-6.5937,-6.582,-6.5508,-6.4648,-6.4531,-6.4219,-6.332,-6.3086,-6.2734,-6.1992,-6.1797,-6.1719,-6.1719,-6.1719,-6.1719,-6.1719,-6.1719,-6.1719,-6.1719,-6.1719,-6.1719,-6.1719,-6.1719,-6.1719,-6.1719,-6.1719,-6.1719,-6.1719,-6.1719,-6.1719,-6.1719,-6.1719,-6.1719,-6.1719,-6.1719,-6.1719,-6.1719,-6.1719,-6.1719,-6.1719,-6.1719,-6.1719,-6.1719,-7.6131,-7.6131,-7.6131,-7.6145,-7.6038,-7.6038,-7.6198,-7.6225,-7.6263,-7.6386,-7.6397,-7.6397,-7.6397,-7.6397,-7.6397,-7.6397,-7.6397,-7.6397,-7.6397,-7.6397,-7.6362,-7.6237,-7.6347,-7.637,-7.6299,-7.6405,-7.6573,-7.6827,-7.6827,-7.6882,-7.7034,-7.7034,-7.7094,-7.7187,-7.7187,-7.7187,-7.7187,-7.7187,-7.7187,-7.7187,-7.7187,-7.7187,-7.7187,-7.7187,-7.7187,-7.7187,-7.7187,-7.7187,-7.7187,-7.7187,-7.7187,-7.7187,-7.7187,-7.7187,-7.7187,-7.7187,-7.7187,-7.6992,-7.6133,-7.582,-7.5312,-7.3711,-7.3125,-7.2539,-7.0898,-6.9844,-6.9023,-6.8359,-6.8125,-6.7773,-6.7031,-6.6914,-6.6875,-6.6758,-6.6719,-6.6406,-6.5547,-6.543,-6.5117,-6.4219,-6.3476,-6.2969,-6.2851,-6.2148,-6.1719,-6.1719,-6.1719,-6.1719,-6.1719,-6.1719,-6.1719,-6.1719,-6.1719,-6.1719,-6.1719,-6.1719,-6.1719,-6.1719,-6.1719,-6.1719,-6.1719,-6.1719,-6.1719,-6.1719,-6.1719,-6.1719,-6.1719,-6.1719,-6.1719,-6.1719,-6.1719,-6.1719,-6.1719,-6.1719,-6.1719,-6.1719,-7.609,-7.609,-7.609,-7.609,-7.6062,-7.601,-7.6038,-7.6145,-7.6212,-7.6276,-7.6288,-7.6313,-7.6397,-7.6397,-7.6397,-7.6397,-7.6397,-7.6397,-7.6397,-7.6338,-7.6263,-7.6198,-7.6147,-7.6106,-7.6038,-7.6106,-7.6172,-7.6316,-7.6549,-7.6761,-7.6878,-7.6878,-7.6961,-7.7094,-7.7094,-7.7143,-7.7187,-7.7187,-7.7187,-7.7187,-7.7187,-7.7187,-7.7187,-7.7187,-7.7187,-7.7187,-7.7187,-7.7187,-7.7187,-7.7187,-7.7187,-7.7187,-7.7187,-7.7187,-7.7187,-7.7187,-7.7187,-7.7109,-7.6719,-7.6289,-7.5703,-7.4922,-7.4023,-7.3086,-7.2344,-7.1094,-6.9765,-6.8476,-6.8203,-6.793,-6.707,-6.6914,-6.6914,-6.6914,-6.6914,-6.6758,-6.6367,-6.6328,-6.6015,-6.5117,-6.4258,-6.3515,-6.3047,-6.2656,-6.2226,-6.1758,-6.1719,-6.1719,-6.1719,-6.1719,-6.1719,-6.1719,-6.1719,-6.1719,-6.1719,-6.1719,-6.1719,-6.1719,-6.1719,-6.1719,-6.1719,-6.1719,-6.1719,-6.1719,-6.1719,-6.1719,-6.1719,-6.1719,-6.1719,-6.1719,-6.1719,-6.1719,-6.1719,-6.1719,-6.1719,-6.1719]},{"header":{"parameterUnit":"m.s-1","parameterCategory":1,"la1":30.6,"la2":28.766,"lo1":-90.7593,"lo2":-88.6598,"dy":0.0162,"dx":0.0183,"nx":116,"ny":114,"refTime":"2024-05-21T12:00:00:Z","depth":0,"parameterNumber":3,"parameterNumberName":"V-component_of_WINDS"},"data":[0.0,0.0,0.0,0.0,0.0,0.0,0.0,0.0,0.0,0.0,0.0,0.0,0.0,0.0,0.0,0.0,0.0,0.0,0.0,0.0,0.0,0.0,0.0,0.0,0.0,0.0,0.0,0.0,0.0,0.0,0.0,0.0,0.0,0.0,0.0,0.0,0.0,0.0,0.0,0.0,0.0,0.0,0.0,0.0,0.0,0.0,0.0,0.0,0.0,0.0,0.0,0.0,0.0,0.0,0.0,0.0,0.0,0.0,0.0,0.0,0.0,0.0,0.0,0.0,0.0,0.0,0.0,0.0,0.0,0.0,0.0,0.0,0.0,0.0,0.0,0.0,0.0,0.0,0.0,0.0,0.0,0.0,0.0,0.0,0.0,0.0,0.0,0.0,0.0,0.0,0.0,0.0,0.0,0.0,0.0,0.0,0.0,0.0,0.0,0.0,0.0,0.0,0.0,0.0,0.0,0.0,0.0,0.0,0.0,0.0,0.0,0.0,0.0,0.0,0.0,0.0,0.0,0.0,0.0,0.0,0.0,0.0,0.0,0.0,0.0,0.0,0.0,0.0,0.0,0.0,0.0,0.0,0.0,0.0,0.0,0.0,0.0,0.0,0.0,0.0,0.0,0.0,0.0,0.0,0.0,0.0,0.0,0.0,0.0,0.0,0.0,0.0,0.0,0.0,0.0,0.0,0.0,0.0,0.0,0.0,0.0,0.0,0.0,0.0,0.0,0.0,0.0,0.0,0.0,0.0,0.0,0.0,0.0,0.0,0.0,0.0,0.0,0.0,0.0,0.0,0.0,0.0,0.0,0.0,0.0,0.0,0.0,0.0,0.0,0.0,0.0,0.0,0.0,0.0,0.0,0.0,0.0,0.0,0.0,0.0,0.0,0.0,0.0,0.0,0.0,0.0,0.0,0.0,0.0,0.0,0.0,0.0,0.0,0.0,0.0,0.0,0.0,0.0,0.0,0.0,0.0,0.0,0.0,0.0,0.0,0.0,0.0,0.0,0.0,0.0,0.0,0.0,0.0,0.0,0.0,0.0,0.0,0.0,0.0,0.0,0.0,0.0,0.0,0.0,0.0,0.0,0.0,0.0,0.0,0.0,0.0,0.0,0.0,0.0,0.0,0.0,0.0,0.0,0.0,0.0,0.0,0.0,0.0,0.0,0.0,0.0,0.0,0.0,0.0,0.0,0.0,0.0,0.0,0.0,0.0,0.0,0.0,0.0,0.0,0.0,0.0,0.0,0.0,0.0,0.0,0.0,0.0,0.0,0.0,0.0,0.0,0.0,0.0,0.0,0.0,0.0,0.0,0.0,0.0,0.0,0.0,0.0,0.0,0.0,0.0,0.0,0.0,0.0,0.0,0.0,0.0,0.0,0.0,0.0,0.0,0.0,0.0,0.0,0.0,0.0,0.0,0.0,0.0,0.0,0.0,0.0,0.0,0.0,0.0,0.0,0.0,0.0,0.0,0.0,0.0,0.0,0.0,0.0,0.0,0.0,0.0,0.0,0.0,0.0,0.0,0.0,0.0,0.0,0.0,0.0,0.0,0.0,0.0,0.0,0.0,0.0,0.0,0.0,0.0,0.0,0.0,0.0,0.0,0.0,0.0,0.0,0.0,0.0,0.0,0.0,0.0,0.0,0.0,0.0,0.0,0.0,0.0,0.0,0.0,0.0,0.0,0.0,0.0,0.0,0.0,0.0,0.0,0.0,0.0,0.0,0.0,0.0,0.0,0.0,0.0,0.0,0.0,0.0,0.0,0.0,0.0,0.0,0.0,0.0,0.0,0.0,0.0,0.0,0.0,0.0,0.0,0.0,0.0,0.0,0.0,0.0,0.0,0.0,0.0,0.0,0.0,0.0,0.0,0.0,0.0,0.0,0.0,0.0,0.0,0.0,0.0,0.0,0.0,0.0,0.0,0.0,0.0,0.0,0.0,0.0,0.0,0.0,0.0,0.0,0.0,0.0,0.0,0.0,0.0,0.0,0.0,0.0,0.0,0.0,0.0,0.0,0.0,0.0,0.0,0.0,0.0,0.0,0.0,0.0,0.0,0.0,0.0,0.0,0.0,0.0,0.0,0.0,0.0,0.0,0.0,0.0,0.0,0.0,0.0,0.0,0.0,0.0,0.0,0.0,0.0,0.0,0.0,0.0,0.0,0.0,0.0,0.0,0.0,0.0,0.0,0.0,0.0,0.0,0.0,0.0,0.0,0.0,0.0,0.0,0.0,0.0,0.0,0.0,0.0,0.0,0.0,0.0,0.0,0.0,0.0,0.0,0.0,0.0,0.0,0.0,0.0,0.0,0.0,0.0,0.0,0.0,0.0,0.0,0.0,0.0,0.0,0.0,0.0,0.0,0.0,0.0,0.0,0.0,0.0,0.0,0.0,0.0,0.0,0.0,0.0,0.0,0.0,0.0,0.0,0.0,0.0,0.0,0.0,0.0,0.0,0.0,0.0,0.0,0.0,0.0,0.0,0.0,0.0,0.0,0.0,0.0,0.0,0.0,0.0,0.0,0.0,0.0,0.0,0.0,0.0,0.0,0.0,0.0,0.0,0.0,0.0,0.0,0.0,0.0,0.0,0.0,0.0,0.0,0.0,0.0,0.0,0.0,0.0,0.0,0.0,0.0,0.0,0.0,0.0,0.0,0.0,0.0,0.0,0.0,0.0,0.0,0.0,0.0,0.0,0.0,0.0,0.0,0.0,0.0,0.0,0.0,0.0,0.0,0.0,0.0,0.0,0.0,0.0,0.0,0.0,0.0,0.0,0.0,0.0,0.0,0.0,0.0,0.0,0.0,0.0,0.0,0.0,0.0,0.0,0.0,0.0,0.0,0.0,0.0,0.0,0.0,0.0,0.0,0.0,0.0,0.0,0.0,0.0,0.0,0.0,0.0,0.0,0.0,0.0,0.0,0.0,0.0,0.0,0.0,0.0,0.0,0.0,0.0,0.0,0.0,0.0,0.0,0.0,0.0,0.0,0.0,0.0,0.0,0.0,0.0,0.0,0.0,0.0,0.0,0.0,0.0,0.0,0.0,0.0,0.0,0.0,0.0,0.0,0.0,0.0,0.0,0.0,0.0,0.0,0.0,0.0,0.0,0.0,0.0,0.0,0.0,0.0,0.0,0.0,0.0,0.0,0.0,0.0,0.0,0.0,0.0,0.0,0.0,0.0,0.0,0.0,0.0,0.0,0.0,0.0,0.0,0.0,0.0,0.0,0.0,0.0,0.0,0.0,0.0,0.0,0.0,0.0,0.0,0.0,0.0,0.0,0.0,0.0,0.0,0.0,0.0,0.0,0.0,0.0,0.0,0.0,0.0,0.0,0.0,0.0,0.0,0.0,0.0,0.0,0.0,0.0,0.0,0.0,0.0,0.0,0.0,0.0,0.0,0.0,0.0,0.0,0.0,0.0,0.0,0.0,0.0,0.0,0.0,0.0,0.0,0.0,0.0,0.0,0.0,0.0,0.0,0.0,0.0,0.0,0.0,0.0,0.0,0.0,0.0,0.0,0.0,0.0,0.0,0.0,0.0,0.0,0.0,0.0,0.0,0.0,0.0,0.0,0.0,0.0,0.0,0.0,0.0,0.0,0.0,0.0,0.0,0.0,0.0,0.0,0.0,0.0,0.0,0.0,0.0,0.0,0.0,0.0,0.0,0.0,0.0,0.0,0.0,0.0,0.0,0.0,0.0,0.0,0.0,0.0,0.0,0.0,0.0,0.0,0.0,0.0,0.0,0.0,0.0,0.0,0.0,0.0,0.0,0.0,0.0,0.0,0.0,0.0,0.0,0.0,0.0,0.0,0.0,0.0,0.0,0.0,0.0,0.0,0.0,0.0,0.0,0.0,0.0,0.0,0.0,0.0,0.0,0.0,0.0,0.0,0.0,0.0,0.0,0.0,0.0,0.0,0.0,0.0,0.0,0.0,0.0,0.0,0.0,0.0,0.0,0.0,0.0,0.0,0.0,0.0,0.0,0.0,0.0,0.0,0.0,0.0,0.0,0.0,0.0,0.0,0.0,0.0,0.0,0.0,0.0,0.0,0.0,0.0,0.0,0.0,0.0,0.0,0.0,0.0,0.0,0.0,0.0,0.0,0.0,0.0,0.0,0.0,0.0,0.0,0.0,0.0,0.0,0.0,0.0,0.0,0.0,0.0,0.0,0.0,0.0,0.0,0.0,0.0,0.0,0.0,0.0,0.0,0.0,0.0,0.0,0.0,0.0,0.0,0.0,0.0,0.0,0.0,0.0,0.0,0.0,0.0,0.0,0.0,0.0,0.0,0.0,0.0,0.0,0.0,0.0,0.0,0.0,0.0,0.0,0.0,0.0,0.0,0.0,0.0,0.0,0.0,0.0,0.0,0.0,0.0,0.0,0.0,0.0,0.0,0.0,0.0,0.0,0.0,0.0,0.0,0.0,0.0,0.0,0.0,0.0,0.0,0.0,0.0,0.0,0.0,0.0,0.0,0.0,0.0,0.0,0.0,0.0,0.0,0.0,0.0,0.0,0.0,0.0,0.0,0.0,0.0,0.0,0.0,0.0,0.0,0.0,0.0,0.0,0.0,0.0,0.0,0.0,0.0,0.0,0.0,0.0,0.0,0.0,0.0,0.0,0.0,0.0,0.0,0.0,0.0,0.0,0.0,0.0,0.0,0.0,0.0,0.0,0.0,0.0,0.0,0.0,0.0,0.0,0.0,0.0,0.0,0.0,0.0,0.0,0.0,0.0,0.0,0.0,0.0,0.0,0.0,0.0,0.0,0.0,0.0,0.0,0.0,0.0,0.0,0.0,0.0,0.0,0.0,0.0,0.0,0.0,0.0,0.0,0.0,0.0,0.0,0.0,0.0,0.0,0.0,0.0,0.0,0.0,0.0,0.0,0.0,0.0,0.0,0.0,0.0,0.0,0.0,0.0,0.0,0.0,0.0,0.0,0.0,0.0,0.0,0.0,0.0,0.0,0.0,0.0,0.0,0.0,0.0,0.0,0.0,0.0,0.0,0.0,0.0,0.0,0.0,0.0,0.0,0.0,0.0,0.0,0.0,0.0,0.0,0.0,0.0,0.0,0.0,0.0,0.0,0.0,0.0,0.0,0.0,0.0,0.0,0.0,0.0,0.0,0.0,0.0,0.0,0.0,0.0,0.0,0.0,0.0,0.0,0.0,0.0,0.0,0.0,0.0,0.0,0.0,0.0,0.0,0.0,0.0,0.0,0.0,0.0,0.0,0.0,0.0,0.0,0.0,0.0,0.0,0.0,0.0,0.0,0.0,0.0,0.0,0.0,0.0,0.0,0.0,0.0,0.0,0.0,0.0,0.0,0.0,0.0,0.0,0.0,0.0,0.0,0.0,0.0,0.0,0.0,0.0,0.0,0.0,0.0,0.0,0.0,0.0,0.0,0.0,0.0,0.0,0.0,0.0,0.0,0.0,0.0,0.0,0.0,0.0,0.0,0.0,0.0,0.0,0.0,0.0,0.0,0.0,0.0,0.0,0.0,0.0,0.0,0.0,0.0,0.0,0.0,0.0,0.0,0.0,0.0,0.0,0.0,0.0,0.0,0.0,0.0,0.0,0.0,0.0,0.0,0.0,0.0,0.0,0.0,0.0,0.0,0.0,0.0,0.0,0.0,0.0,0.0,0.0,0.0,0.0,0.0,0.0,0.0,0.0,0.0,0.0,0.0,0.0,0.0,0.0,0.0,0.0,0.0,0.0,0.0,0.0,0.0,0.0,0.0,0.0,0.0,0.0,0.0,0.0,0.0,0.0,0.0,0.0,0.0,0.0,0.0,0.0,0.0,0.0,0.0,0.0,0.0,0.0,0.0,0.0,0.0,0.0,0.0,0.0,0.0,0.0,0.0,0.0,0.0,0.0,0.0,0.0,0.0,0.0,0.0,0.0,0.0,0.0,0.0,0.0,0.0,0.0,0.0,0.0,0.0,0.0,0.0,0.0,0.0,0.0,0.0,0.0,0.0,0.0,0.0,0.0,0.0,0.0,0.0,0.0,0.0,0.0,0.0,0.0,0.0,0.0,0.0,0.0,0.0,0.0,0.0,0.0,0.0,0.0,0.0,0.0,0.0,0.0,0.0,0.0,0.0,0.0,-0.9469,0.0,0.0,0.0,0.0,0.0,0.0,0.0,0.0,0.0,0.0,0.0,0.0,0.0,0.0,0.0,0.0,0.0,0.0,0.0,0.0,0.0,0.0,0.0,0.0,-0.5847,-0.5895,-0.6118,-0.6139,-0.6146,-0.6146,0.0,0.0,0.0,0.0,0.0,-0.506,-0.462,-0.3891,-0.2876,-0.2843,-0.2727,-0.2516,-0.2609,-0.2459,-0.2112,0.0,0.0,0.0,0.0,0.0,0.0,0.0,0.0,0.0,0.0,0.0,0.0,0.0,0.0,0.0,0.0,0.0,0.0,0.0,0.0,0.0,0.0,0.0,0.0,0.0,0.0,0.0,0.0,0.0,0.0,0.0,0.0,0.0,0.0,0.0,0.0,0.0,0.0,0.0,0.0,0.0,0.0,0.0,0.0,0.0,0.0,0.0,0.0,0.0,0.0,0.0,0.0,0.0,0.0,0.0,0.0,0.0,0.0,0.0,0.0,0.0,0.0,0.0,0.0,0.0,0.0,0.0,0.0,0.0,0.0,0.0,-1.0025,0.0,0.0,0.0,0.0,0.0,0.0,0.0,0.0,0.0,0.0,0.0,0.0,0.0,0.0,0.0,0.0,0.0,0.0,0.0,0.0,0.0,-0.544,-0.6184,-0.6132,-0.6152,-0.6395,-0.6368,-0.6268,-0.6155,-0.6342,0.0,0.0,0.0,-0.6091,-0.5639,-0.5327,-0.4694,-0.3695,-0.3668,-0.356,-0.3439,-0.3204,-0.2819,-0.2339,-0.2423,0.0,0.0,0.0,0.0,0.0,0.0,0.0,0.0,0.0,0.0,0.0,0.0,0.0,0.0,0.0,0.0,0.0,0.0,0.0,0.0,0.0,0.0,0.0,0.0,0.0,0.0,0.0,0.0,0.0,0.0,0.0,0.0,0.0,0.0,0.0,0.0,0.0,0.0,0.0,0.0,0.0,0.0,0.0,0.0,0.0,0.0,0.0,0.0,0.0,0.0,0.0,0.0,0.0,0.0,0.0,0.0,0.0,0.0,0.0,0.0,0.0,0.0,0.0,-1.2088,-1.2606,-1.3349,-1.2531,-1.313,-1.4681,-1.2774,-1.206,-1.2084,0.0,0.0,0.0,0.0,0.0,0.0,0.0,0.0,0.0,0.0,0.0,0.0,0.0,0.0,0.0,0.0,0.0,0.0,0.0,0.0,-0.5515,-0.601,-0.6159,-0.6396,-0.6803,-0.66,-0.6552,-0.6755,-0.6485,0.0,0.0,-0.6368,-0.6464,-0.6846,-0.631,-0.5755,-0.5199,-0.3512,-0.2685,-0.2736,-0.2969,-0.3053,-0.2928,-0.3276,-0.3215,-0.2874,0.0,0.0,0.0,0.0,0.0,0.0,0.0,0.0,0.0,0.0,0.0,0.0,0.0,0.0,0.0,0.0,0.0,0.0,0.0,0.0,0.0,0.0,0.0,0.0,0.0,0.0,0.0,0.0,0.0,0.0,0.0,0.0,0.0,0.0,0.0,0.0,0.0,0.0,0.0,0.0,0.0,-0.8997,-0.9433,0.0,0.0,0.0,0.0,0.0,0.0,0.0,0.0,0.0,0.0,0.0,0.0,0.0,-1.1601,-1.1619,-1.2501,-1.3017,-1.3173,-1.3953,-1.4326,-1.4503,-1.4326,-1.4428,-1.468,-1.3869,0.0,-1.3664,-1.313,0.0,0.0,0.0,0.0,0.0,0.0,0.0,0.0,0.0,0.0,0.0,0.0,0.0,0.0,0.0,0.0,0.0,0.0,0.0,0.0,0.0,-0.679,-0.7278,-0.7651,-0.7862,-0.7821,-0.7448,-0.74,-0.716,-0.6538,-0.658,-0.679,-0.7078,-0.6483,-0.5778,-0.4994,-0.3442,-0.3007,-0.359,-0.3592,-0.3732,-0.4154,-0.4313,-0.401,-0.3411,-0.2969,0.0,0.0,0.0,0.0,0.0,0.0,0.0,0.0,0.0,0.0,0.0,0.0,0.0,0.0,0.0,0.0,0.0,0.0,0.0,0.0,0.0,0.0,0.0,0.0,0.0,0.0,0.0,0.0,0.0,0.0,0.0,0.0,0.0,0.0,0.0,0.0,0.0,0.0,0.0,-0.8689,-0.9797,-0.9916,-1.0261,-1.0098,0.0,0.0,0.0,0.0,0.0,0.0,0.0,0.0,0.0,-1.2045,-1.2609,-1.3012,-1.3085,-1.3817,-1.4258,-1.4407,-1.4801,-1.5269,-1.5817,-1.5262,-1.5632,-1.6634,-1.5796,-1.5734,-1.6018,-1.3966,-1.2613,-1.1749,0.0,0.0,0.0,0.0,0.0,-0.9786,0.0,0.0,0.0,0.0,0.0,0.0,0.0,0.0,0.0,0.0,0.0,0.0,-0.6763,-0.7617,-0.8309,-0.8689,-0.9022,-0.8968,-0.8201,-0.8119,-0.7665,-0.6688,-0.6749,-0.6972,-0.7304,-0.67,-0.6191,-0.5689,-0.3971,-0.3599,-0.4459,-0.4076,-0.4555,-0.5563,-0.5704,-0.532,-0.4664,-0.4147,-0.3937,-0.3974,0.0,0.0,0.0,0.0,0.0,0.0,0.0,0.0,0.0,0.0,0.0,0.0,0.0,0.0,0.0,0.0,0.0,0.0,0.0,0.0,0.0,0.0,0.0,0.0,0.0,0.0,0.0,0.0,0.0,0.0,0.0,0.0,0.0,0.0,0.0,0.0,0.0,-0.9562,-1.0324,-1.0283,-1.0884,-1.0944,0.0,0.0,0.0,0.0,0.0,0.0,-1.2155,-1.2478,-1.2816,-1.3227,-1.381,-1.4208,-1.4407,-1.4862,-1.5133,-1.5242,-1.5282,-1.5653,-1.6365,-1.5619,-1.6061,-1.7429,-1.6681,-1.6699,-1.7041,-1.5005,-1.376,-1.3077,-1.2454,-1.1759,-1.1084,-1.0778,-1.0833,-1.1077,0.0,0.0,0.0,0.0,0.0,0.0,0.0,0.0,0.0,0.0,0.0,-0.7051,-0.7678,-0.8547,-0.932,-0.9849,-0.9598,-0.9286,-0.9152,-0.8174,-0.7475,-0.7078,-0.6715,-0.6936,-0.7855,-0.7438,-0.7675,-0.8571,-0.537,-0.4121,-0.4622,-0.4221,-0.5222,-0.7237,-0.7564,-0.7448,-0.6964,-0.6393,-0.7007,-0.8205,-0.6428,0.0,0.0,0.0,0.0,0.0,0.0,0.0,0.0,0.0,0.0,0.0,0.0,0.0,0.0,0.0,0.0,0.0,0.0,0.0,0.0,0.0,0.0,0.0,0.0,0.0,0.0,0.0,0.0,0.0,0.0,0.0,0.0,0.0,0.0,0.0,0.0,0.0,0.0,-1.1497,-1.2542,0.0,0.0,0.0,0.0,-1.2012,-1.1843,-1.2352,-1.3661,-1.3607,-1.4068,-1.5228,-1.5153,-1.5174,-1.5343,-1.5371,-1.5391,-1.5398,-1.5547,-1.554,-1.5493,-1.5398,-1.5411,-1.5368,-1.5275,-1.5268,-1.5414,-1.6708,-1.6538,-1.5335,-1.4283,-1.3192,-1.2121,-1.1396,-1.1497,-1.1993,0.0,0.0,0.0,0.0,0.0,-0.3994,-0.4296,-0.4578,-0.4921,-0.5246,-0.6497,-0.755,-0.8052,-0.9334,-1.0365,-1.0867,-1.1029,-1.0839,-1.0202,-0.9273,-0.8526,-0.8024,-0.7576,-0.7804,-0.885,-0.9264,-0.9422,-0.9329,-0.6587,-0.5714,-0.6426,-0.6057,-0.6558,-0.7837,-0.9118,-1.0158,-1.0904,-0.8972,-0.8189,-0.8268,-0.7567,-0.6952,0.0,0.0,0.0,0.0,0.0,0.0,0.0,0.0,0.0,0.0,0.0,0.0,0.0,0.0,0.0,0.0,0.0,0.0,0.0,0.0,0.0,0.0,0.0,0.0,0.0,0.0,0.0,0.0,0.0,0.0,0.0,0.0,0.0,0.0,0.0,0.0,0.0,-1.2413,-1.3024,0.0,-1.2739,-1.2745,-1.2861,-1.3057,-1.3559,-1.4143,-1.4814,-1.4896,-1.512,-1.5547,-1.5506,-1.5499,-1.5554,-1.556,-1.556,-1.556,-1.5615,-1.556,-1.5411,-1.5411,-1.5323,-1.5181,-1.5181,-1.5556,-1.6198,-1.6765,-1.6226,-1.4977,-1.4393,-1.3902,-1.339,-1.3024,-1.2963,-1.3071,0.0,0.0,0.0,0.0,-0.4397,-0.4103,-0.4275,-0.4686,-0.5127,-0.5606,-0.699,-0.818,-0.894,-1.0263,-1.1274,-1.1728,-1.1945,-1.1681,-1.0778,-0.9883,-0.9069,-0.8364,-0.855,-0.9312,-1.0664,-1.1021,-1.1052,-1.0765,-0.8698,-0.7936,-0.8544,-0.8138,-0.8641,-0.9883,-1.1048,-1.2465,-1.3841,-1.1875,-1.0559,-0.9918,-0.9349,-0.8488,-0.7431,0.0,0.0,0.0,0.0,0.0,0.0,0.0,0.0,0.0,0.0,0.0,0.0,0.0,0.0,0.0,0.0,0.0,0.0,0.0,0.0,0.0,0.0,0.0,0.0,0.0,0.0,0.0,0.0,0.0,0.0,0.0,0.0,0.0,0.0,0.0,-1.2488,-1.3044,-1.3641,-1.3899,-1.3648,-1.3763,-1.396,-1.4211,-1.478,-1.5248,-1.554,-1.5655,-1.5737,-1.5784,-1.5737,-1.571,-1.571,-1.571,-1.571,-1.571,-1.571,-1.5635,-1.5486,-1.5432,-1.5221,-1.4896,-1.5092,-1.5438,-1.5908,-1.6126,-1.5596,-1.4794,-1.4903,-1.4654,-1.4265,-1.4014,-1.3858,-1.3763,0.0,0.0,0.0,-0.444,-0.4219,-0.4262,-0.4143,-0.4691,-0.542,-0.6273,-0.7634,-0.9001,-1.0324,-1.128,-1.2006,-1.2447,-1.2223,-1.1681,-1.0792,-0.989,-0.8994,-0.8119,-0.9573,-1.1317,-1.3286,-1.2735,-1.2653,-1.3173,-1.1533,-1.072,-1.0809,-1.0614,-1.1538,-1.339,-1.3466,-1.4377,-1.5699,-1.4888,-1.4189,-1.3492,-1.1946,-1.0727,-0.9727,0.0,0.0,0.0,0.0,0.0,0.0,0.0,0.0,0.0,0.0,0.0,0.0,0.0,0.0,0.0,0.0,0.0,0.0,0.0,0.0,0.0,0.0,0.0,0.0,0.0,0.0,0.0,0.0,0.0,0.0,0.0,0.0,0.0,-1.0599,-1.2094,-1.3268,-1.3451,-1.4496,-1.5025,-1.4597,-1.4943,-1.5262,-1.5411,-1.5425,-1.5554,-1.5845,-1.5845,-1.59,-1.6049,-1.5906,-1.5832,-1.5832,-1.5852,-1.5957,-1.5957,-1.5852,-1.5778,-1.5635,-1.5479,-1.5011,-1.436,-1.4936,-1.4855,-1.4373,-1.4943,-1.5099,-1.5049,-1.5898,-1.5553,-1.4679,-1.4238,-1.4075,-1.4021,0.0,0.0,-0.6227,-0.5336,-0.4704,-0.4323,-0.4449,-0.4895,-0.5469,-0.6021,-0.7676,-0.9076,-0.9774,-1.1036,-1.1925,-1.2162,-1.2006,-1.1653,-1.1077,-1.0107,-0.962,-0.9809,-1.1162,-1.2688,-1.4495,-1.4995,-1.5322,-1.5677,-1.3561,-1.2706,-1.3023,-1.249,-1.2769,-1.3616,-1.4765,-1.535,-1.5467,-1.4771,-1.4143,-1.3497,-1.2475,-1.1439,-1.0503,0.0,0.0,0.0,0.0,0.0,0.0,0.0,0.0,0.0,0.0,0.0,0.0,0.0,0.0,0.0,0.0,0.0,0.0,0.0,0.0,0.0,0.0,0.0,0.0,0.0,0.0,0.0,0.0,0.0,0.0,0.0,-1.0934,-1.2169,-1.2393,-1.3241,-1.4122,-1.493,-1.5316,-1.5506,-1.5486,-1.5499,-1.5574,-1.5723,-1.573,-1.5818,-1.6008,-1.5601,-1.5384,-1.5425,-1.5391,-1.5364,-1.5364,-1.5798,-1.6022,-1.6015,-1.5906,-1.5778,-1.5635,-1.5479,-1.5235,-1.495,-1.5113,-1.5092,-1.495,-1.5113,-1.5099,-1.5049,-1.5075,-1.4853,-1.455,-1.4319,-1.4095,-1.3817,0.0,-0.6156,-0.5768,-0.516,-0.4675,-0.4388,-0.4473,-0.4997,-0.5582,-0.6153,-0.7779,-0.9148,-0.9903,-1.1084,-1.1891,-1.2047,-1.1979,-1.1606,-1.0846,-1.0053,-1.0093,-1.1283,-1.2375,-1.369,-1.5186,-1.6103,-1.6552,-1.6584,-1.5429,-1.4866,-1.4924,-1.4714,-1.4621,-1.4681,-1.5498,-1.5699,-1.5373,-1.4624,-1.4039,-1.3561,-1.2828,-1.2067,-1.119,-1.0751,-1.0229,-0.9713,-0.9347,-0.9083,-0.8859,-0.8594,0.0,0.0,0.0,0.0,0.0,0.0,0.0,0.0,0.0,0.0,0.0,0.0,0.0,0.0,0.0,0.0,0.0,0.0,0.0,0.0,0.0,0.0,0.0,0.0,-1.1932,-1.3227,-1.3838,-1.4278,-1.4787,-1.5466,-1.5655,-1.5737,-1.5757,-1.5744,-1.5764,-1.5845,-1.5852,-1.592,-1.6076,-1.575,-1.5445,-1.5194,-1.5425,-1.5438,-1.5181,-1.5778,-1.6083,-1.6083,-1.5866,-1.5716,-1.5635,-1.5411,-1.5133,0.0,-1.5072,-1.5038,-1.4828,-1.5079,-1.5059,0.0,0.0,0.0,0.0,0.0,-1.4048,-1.377,0.0,-0.514,-0.5061,-0.4411,-0.4393,-0.4471,-0.4366,-0.4992,-0.5743,-0.6543,-0.7934,-0.9306,-1.0331,-1.1246,-1.1837,-1.1972,-1.1925,-1.1436,0.0,-0.9917,-1.0543,-1.2502,-1.3326,-1.435,-1.5593,-1.6363,-1.6717,-1.6641,-1.6871,-1.6774,-1.6397,-1.6706,-1.6499,-1.603,-1.5842,-1.5544,-1.5298,-1.448,-1.3881,-1.3509,-1.3116,-1.2535,-1.1843,-1.1237,-1.0853,-1.0453,-1.0012,-0.9686,-0.9501,-0.9439,0.0,0.0,0.0,0.0,0.0,0.0,0.0,0.0,0.0,0.0,0.0,0.0,0.0,0.0,0.0,0.0,0.0,0.0,0.0,0.0,0.0,0.0,0.0,0.0,-1.2868,-1.3892,-1.4855,-1.512,-1.5255,-1.5398,-1.5676,-1.5805,-1.5676,-1.5791,-1.5879,-1.5879,-1.5879,-1.594,-1.6076,0.0,0.0,0.0,0.0,-1.5723,-1.5187,-1.5778,-1.6076,-1.6049,-1.5771,-1.5628,-1.5601,-1.5316,-1.4896,-1.4428,-1.4957,-1.4882,-1.4441,-1.4964,-1.5004,-1.4733,-1.4706,-1.4611,-1.4448,-1.4095,-1.3912,0.0,0.0,-0.5364,-0.5252,-0.4428,-0.4393,-0.4533,-0.4614,-0.4968,-0.5662,-0.6834,-0.8009,-0.911,-0.997,-1.0934,-1.1491,-1.1518,-1.1077,-1.0697,0.0,-1.0263,-1.102,-1.2996,-1.3838,-1.4815,-1.5949,-1.634,-1.6689,-1.7006,-1.6721,-1.6705,-1.695,-1.6885,-1.6722,-1.647,-1.5945,-1.5378,-1.4796,-1.4315,-1.3725,-1.3116,-1.3043,-1.2725,-1.2345,-1.2115,-1.1979,-1.1857,-1.1518,-1.1362,-1.124,-1.0765,-1.0513,-1.0191,-0.8812,-0.8231,0.0,0.0,0.0,0.0,0.0,0.0,0.0,0.0,0.0,0.0,0.0,0.0,0.0,0.0,0.0,0.0,0.0,0.0,0.0,-1.2786,-1.3797,-1.4638,-1.5079,-1.5269,-1.5377,-1.5404,-1.5676,-1.5845,-1.5811,-1.5947,-1.6035,-1.6035,-1.6035,-1.6049,-1.6083,-1.5622,0.0,-1.5187,-1.5296,-1.5303,-1.5181,-1.5778,-1.6022,-1.5893,0.0,0.0,-1.5452,-1.5262,-1.512,-1.5018,-1.5133,-1.512,-1.5018,-1.5133,-1.5004,-1.4719,-1.4475,-1.4367,-1.4258,-1.3593,-1.3553,-1.3749,-0.4511,-0.4779,-0.4846,-0.4478,-0.452,-0.4632,-0.4703,-0.5079,-0.5642,-0.6325,-0.7409,-0.8438,-0.9184,-0.9802,-1.0256,-1.048,-1.0154,0.0,0.0,-1.1016,-1.1732,-1.3332,-1.4181,-1.4994,-1.592,-1.6274,-1.6665,-1.7112,-1.6841,-1.6801,-1.6982,-1.6982,-1.6615,-1.6108,-1.5693,-1.5127,-1.439,-1.3901,-1.3479,-1.2963,-1.2963,-1.2779,-1.2494,-1.242,-1.2305,-1.2155,-1.1999,-1.185,-1.1681,-1.1382,-1.12,-1.0975,-1.0075,-0.9684,-0.9255,0.0,0.0,0.0,0.0,0.0,0.0,0.0,0.0,0.0,0.0,0.0,0.0,0.0,0.0,-1.1077,-1.1545,0.0,-1.2664,-1.3485,-1.4061,-1.459,-1.5106,-1.5248,-1.5323,-1.5404,-1.5608,-1.5778,-1.5845,-1.592,-1.6001,-1.6076,-1.6083,-1.6083,-1.6083,-1.5798,-1.5493,-1.5194,-1.5472,-1.5486,-1.5187,-1.5778,-1.6001,-1.5852,-1.571,-1.556,-1.5404,-1.5255,-1.5181,-1.5181,-1.5181,-1.5181,-1.5167,-1.5025,-1.4828,-1.4604,-1.4387,-1.4299,-1.4238,-1.3702,-1.3648,-1.377,-0.3941,-0.4149,-0.4332,-0.4487,-0.4588,-0.4686,-0.4723,-0.5156,-0.5595,-0.5784,-0.6849,-0.776,-0.8296,-0.8676,-0.9001,0.0,0.0,0.0,0.0,-1.166,-1.2447,-1.362,-1.4391,-1.5133,-1.5704,-1.608,-1.6608,-1.7112,-1.7057,-1.6984,-1.6822,-1.696,-1.6514,-1.5662,-1.5346,-1.4802,-1.4109,-1.3583,-1.3227,-1.2963,-1.2963,-1.2759,-1.2461,-1.2461,-1.2311,-1.2101,-1.204,-1.1823,-1.1579,-1.1606,-1.1497,-1.1335,-1.1274,-1.1248,-1.096,-0.9708,-0.9674,0.0,0.0,0.0,0.0,0.0,0.0,0.0,0.0,-1.1128,-1.1665,-1.179,-1.1938,-1.222,-1.2713,-1.2896,-1.3227,-1.4102,-1.4272,-1.4496,-1.5099,-1.5181,-1.5228,-1.535,-1.5499,-1.5642,-1.5757,-1.5818,-1.5906,-1.6029,-1.6062,-1.6083,-1.6083,-1.6083,-1.5859,-1.5371,-1.5825,-1.5852,-1.5364,-1.5839,-1.5988,-1.5811,-1.5696,-1.554,-1.5364,-1.5242,-1.5181,-1.5181,-1.5181,-1.5167,-1.512,-1.4848,-1.4652,-1.4496,-1.4353,-1.4285,-1.4224,-1.3946,-1.3824,-1.3763,0.0,-0.4041,-0.4285,-0.4469,-0.4514,-0.4587,-0.4774,-0.4983,-0.5428,-0.6153,-0.6948,-0.7522,-0.7848,-0.8397,-0.8594,-0.8197,-0.9055,0.0,-1.0548,-1.1626,-1.2712,-1.377,-1.4538,-1.5242,-1.5704,-1.5935,-1.6379,-1.7112,-1.6823,-1.6904,-1.708,-1.6657,-1.6292,-1.6003,-1.5101,-1.4521,-1.4258,-1.3624,-1.3227,-1.2963,-1.2963,-1.2705,-1.2311,-1.2311,-1.2291,-1.223,-1.1952,-1.1667,-1.1436,-1.1572,-1.143,-1.1233,-1.1491,-1.1355,-1.1111,-1.0551,-1.032,-1.0103,-0.9625,-0.9195,-0.9107,-0.9699,-1.023,-1.0827,0.0,-1.2646,-1.3289,-1.3047,-1.3541,-1.3973,-1.4034,-1.4292,-1.457,-1.4828,-1.4977,-1.5086,-1.5167,-1.5181,-1.5187,-1.5208,-1.5343,-1.5445,-1.5459,-1.5696,-1.5957,-1.5879,-1.6001,-1.6083,-1.6083,-1.6083,-1.6049,-1.5981,-1.6049,-1.6049,-1.5981,-1.6049,-1.594,-1.5662,-1.5649,-1.5486,-1.5208,-1.5187,-1.5181,-1.5181,-1.5181,-1.5113,-1.4984,-1.4808,-1.4652,-1.4496,-1.4353,-1.4217,-1.4075,-1.3905,-1.3763,-1.3627,0.0,-0.4037,-0.4313,-0.4307,-0.4429,-0.4591,-0.4893,-0.5151,-0.5483,-0.5832,-0.6472,-0.6966,-0.7265,-0.755,-0.7617,-0.7163,-0.8248,-0.9354,-1.0304,-1.1572,-1.2752,-1.3797,-1.4311,-1.4822,-1.5264,-1.5683,-1.5948,-1.6321,-1.6479,-1.6471,-1.6321,-1.6057,-1.579,-1.5372,-1.4873,-1.4443,-1.3866,-1.3548,-1.3227,-1.2956,-1.2861,-1.261,-1.2277,-1.2189,-1.2054,-1.185,-1.1386,-1.1179,0.0,-1.0968,-1.0934,-1.0975,-1.1362,-1.1158,-1.0711,-1.0507,-1.0129,-0.9898,-1.0091,-1.0465,-1.0913,-1.0976,-1.1949,-1.2794,-1.2713,-1.3391,-1.3923,-1.3862,-1.4217,-1.4584,-1.4672,-1.4577,-1.4618,-1.5025,-1.4855,-1.4787,-1.5133,-1.5181,-1.5153,-1.5072,-1.4957,-1.4889,-1.4889,-1.5316,-1.5527,-1.535,-1.5716,-1.5988,-1.6076,-1.6083,-1.6083,-1.6083,-1.6083,-1.6083,-1.6083,-1.5995,-1.5845,-1.5635,-1.5547,-1.5391,-1.5181,-1.5181,-1.5181,-1.5174,-1.5092,-1.4977,-1.4828,-1.4672,-1.4523,-1.4373,-1.4224,-1.4075,-1.3933,-1.3865,-1.3749,-1.3593,0.0,-0.3928,-0.4213,-0.4138,-0.4256,-0.449,-0.4846,-0.5089,-0.5297,-0.552,-0.597,-0.6391,-0.6734,-0.6892,-0.6858,-0.662,-0.7719,-0.8913,-1.008,-1.1416,-1.261,-1.3614,-1.4027,-1.4502,-1.4935,-1.5374,-1.5661,-1.5704,-1.6095,-1.6095,-1.5704,-1.5528,-1.5293,-1.4828,-1.4705,-1.4277,-1.3675,-1.3485,-1.3227,-1.2942,-1.2745,-1.2488,-1.2203,-1.2013,-1.1674,-1.1267,-1.0941,-1.067,-1.0439,-1.0202,-1.0222,-1.0399,-1.0683,-1.0534,-1.0229,-1.0127,-0.9896,-0.9811,-1.0321,-1.1156,-1.1923,-1.1945,-1.2991,-1.3891,-1.3487,-1.3873,-1.4305,-1.438,-1.4563,-1.4774,-1.4889,-1.4679,-1.4624,-1.5052,-1.4801,-1.4692,-1.512,-1.5147,-1.5052,-1.4869,-1.4611,-1.4353,-1.4109,-1.4774,-1.5187,-1.5099,-1.5567,-1.59,-1.6015,-1.6056,-1.6083,-1.6083,-1.6083,-1.6083,-1.6083,-1.5934,-1.5784,-1.5635,-1.5486,-1.533,-1.5181,-1.5181,-1.516,-1.512,-1.5018,-1.4862,-1.4665,-1.4557,-1.4401,-1.4224,-1.4116,-1.3953,-1.3783,-1.3783,-1.3688,-1.3532,0.0,0.0,-0.3848,-0.3913,-0.4011,-0.4229,-0.4662,-0.4545,-0.466,-0.5306,-0.5516,-0.5852,-0.6431,-0.6532,-0.6607,-0.6849,-0.7753,-0.8723,-0.9768,-1.1097,-1.225,-1.3152,-1.3763,-1.4343,-1.4778,-1.5166,-1.5423,-1.5704,-1.595,-1.5942,-1.5704,-1.5264,-1.4992,-1.4977,-1.4398,-1.398,-1.3817,-1.3526,-1.3227,-1.2935,-1.263,-1.2332,-1.204,-1.1742,-1.1172,-1.0521,-1.0514,-1.0222,-0.9781,-0.9398,-0.935,-0.9401,-0.9323,-0.9408,-0.9639,-0.9632,-0.9752,-0.9929,-1.0239,-1.0545,-1.1082,-1.2012,-1.2695,-1.32,-1.3688,-1.4163,-1.4489,-1.4502,-1.4631,-1.474,-1.4746,-1.4862,-1.4957,-1.4977,-1.5079,-1.516,-1.5181,-1.5065,-1.4862,-1.4563,-1.4394,-1.3966,0.0,-1.4068,-1.4936,-1.5364,-1.5683,-1.5852,-1.5957,-1.6001,-1.6083,-1.6083,-1.6083,-1.6083,-1.6083,-1.5934,-1.5784,-1.5635,-1.5486,-1.533,-1.5181,-1.5181,-1.5106,-1.4977,-1.497,-1.4801,-1.4516,-1.4516,-1.434,-1.4082,-1.4075,-1.3892,-1.3634,-1.3634,-1.3539,-1.3383,0.0,0.0,0.0,-0.4002,-0.4059,-0.4194,-0.4462,-0.4525,-0.4609,-0.4892,-0.5339,0.0,0.0,0.0,0.0,0.0,-0.736,-0.8228,-0.9114,-1.031,-1.1341,-1.2244,-1.3146,-1.3712,-1.388,-1.4521,-1.4743,-1.4426,-1.4822,-1.4822,-1.4426,-1.4444,-1.435,-1.416,-1.4026,-1.3783,-1.3519,-1.3125,-1.2895,-1.2773,-1.2372,-1.2149,-1.2006,-1.1504,-1.0914,-1.0263,0.0,-0.915,-0.8893,-0.8702,-0.8716,-0.8825,-0.9132,-0.9077,-0.8845,-0.875,-0.9435,-1.0205,-1.0475,-1.1478,-1.2529,-1.2998,-1.3617,-1.4145,-1.4285,-1.4401,-1.4482,-1.4387,-1.4177,-1.3973,-1.3871,-1.3648,-1.3648,-1.4143,-1.4014,-1.4163,-1.5059,-1.4462,-1.415,-1.4746,-1.4245,0.0,0.0,0.0,0.0,-1.438,-1.5106,-1.5649,-1.5845,-1.5811,-1.5832,-1.5927,-1.5839,-1.5791,-1.5791,-1.5635,-1.5533,-1.5486,-1.533,-1.5228,-1.5181,-1.5181,-1.5106,-1.4964,-1.4862,-1.4699,-1.4502,-1.4407,-1.4251,-1.4061,-1.396,-1.3804,-1.3614,-1.3512,-1.3444,-1.3376,0.0,0.0,0.0,0.0,0.0,0.0,0.0,0.0,0.0,0.0,0.0,0.0,0.0,0.0,0.0,0.0,0.0,-0.7916,-0.8655,-0.9578,-1.0399,-1.1084,-1.1965,-1.2467,-1.2522,-1.313,-1.3374,-1.3207,-1.3645,-1.3756,-1.3532,-1.3627,-1.362,-1.3526,-1.3526,-1.339,-1.3139,-1.2793,-1.2617,-1.2522,-1.1965,-1.1708,-1.1592,-1.0934,-1.0249,0.0,-0.8818,-0.8316,-0.7984,-0.7841,-0.7991,-0.8262,-0.8391,-0.8418,-0.8472,-0.8804,-0.9523,-1.0415,-1.1323,-1.2307,-1.3223,-1.3818,-1.4284,-1.4604,-1.4421,-1.4353,-1.4285,-1.4027,-1.3749,-1.3437,-1.3071,-1.2807,-1.2874,-1.3573,-1.3485,-1.377,-1.5004,-1.4475,-1.417,-1.474,-1.4251,-1.4055,0.0,0.0,0.0,-1.4027,-1.4679,-1.5174,-1.5364,-1.5337,-1.5459,-1.5771,-1.5689,-1.5642,-1.5642,-1.5486,-1.5384,-1.533,-1.5228,-1.5181,-1.5181,-1.5126,-1.4936,-1.4652,-1.4658,-1.4482,-1.4204,-1.4272,-1.4177,-1.398,-1.3878,-1.3722,-1.3539,-1.3437,-1.3403,-1.337,0.0,0.0,0.0,0.0,0.0,0.0,0.0,0.0,0.0,0.0,0.0,0.0,0.0,0.0,0.0,0.0,0.0,0.0,-0.8258,0.0,0.0,-0.9761,-1.0351,-1.0751,-1.0847,-1.1199,-1.1558,-1.1993,-1.2271,-1.2562,-1.2847,-1.2854,-1.2861,-1.2861,-1.2861,-1.2773,-1.2617,-1.2454,-1.2305,-1.2115,-1.1375,-1.1002,-1.0732,-1.0046,-0.9225,-0.8452,-0.8296,-0.7767,-0.7092,-0.6964,-0.7366,-0.7801,-0.7355,-0.7773,-0.8587,-0.9667,-1.0114,-1.0647,-1.2433,-1.2996,-1.3288,-1.4278,-1.4516,-1.4434,-1.415,-1.4068,-1.3912,-1.3444,-1.3308,-1.3051,-1.2298,-1.2277,-1.2583,-1.3227,-1.3458,-1.3933,-1.4991,-1.4997,-1.4794,-1.4529,-1.438,-1.4197,-1.3933,-1.4299,0.0,-1.4312,0.0,-1.455,-1.4557,-1.4685,-1.5031,-1.5608,-1.5622,-1.5615,-1.5615,-1.5472,-1.5323,-1.5181,-1.5181,-1.5181,-1.5174,-1.5038,-1.4658,-1.4122,-1.4394,-1.419,-1.3695,-1.4122,-1.4116,-1.3838,-1.3838,-1.3661,-1.3403,-1.3403,-1.3403,-1.3356,0.0,0.0,0.0,0.0,0.0,0.0,0.0,0.0,0.0,0.0,0.0,0.0,0.0,0.0,0.0,0.0,0.0,0.0,-0.7753,0.0,0.0,0.0,0.0,-1.0175,-1.0446,-1.0629,-1.0833,-1.1063,-1.1138,-1.1212,-1.1294,-1.1409,-1.1463,-1.1463,-1.1463,-1.1375,-1.1212,-1.0955,-1.0758,-1.0516,0.0,-0.9985,-0.9883,-0.9239,-0.8716,-0.8275,-0.7902,-0.7577,-0.7326,-0.74,-0.797,-0.8656,-0.9035,-0.9347,-0.968,-1.01,-1.1009,-1.1986,-1.2481,-1.3437,-1.4353,-1.4618,-1.4597,-1.4462,-1.4285,-1.398,-1.3519,-1.2732,-1.204,-1.1341,-1.0588,-1.0575,-1.1056,-1.2216,-1.2528,-1.3078,-1.4346,-1.4109,-1.3939,-1.4312,-1.4319,-1.4441,-1.4808,-1.4943,-1.4814,0.0,-1.474,-1.5059,-1.5174,-1.5113,-1.5194,-1.5459,-1.5357,-1.5296,-1.5296,-1.5262,-1.5221,-1.5181,-1.5181,-1.5181,-1.5174,-1.5038,-1.4821,-1.457,-1.4529,-1.4367,-1.4136,-1.4251,-1.4116,-1.3838,-1.3838,-1.3661,-1.3403,-1.3403,-1.3403,-1.3356,0.0,0.0,0.0,0.0,0.0,0.0,0.0,0.0,0.0,0.0,0.0,0.0,0.0,0.0,0.0,0.0,0.0,0.0,0.0,-0.757,0.0,0.0,-0.8588,-0.9049,-0.9293,-0.9503,-0.972,-0.9937,0.0,0.0,-1.0324,-1.0348,-1.0419,-1.0358,-1.0358,-1.0276,-1.012,-0.9958,0.0,0.0,0.0,0.0,0.0,0.0,-0.8187,-0.789,-0.759,-0.7529,-0.7665,-0.8343,-0.8866,-0.9395,-1.0317,-1.0622,-1.0799,-1.1606,-1.2298,-1.2908,-1.3444,-1.4197,-1.4828,-1.476,-1.4624,-1.4333,-1.3661,-1.3268,-1.2712,-1.1552,-1.0962,-1.0385,-0.9496,-0.9618,-1.0276,-1.1558,-1.206,-1.2739,-1.4021,-1.3966,-1.3919,-1.4258,-1.4299,-1.4536,-1.5126,-1.5181,-1.5045,0.0,-1.4753,-1.4835,-1.4916,-1.4841,-1.495,-1.5303,-1.5228,-1.5181,-1.5181,-1.5181,-1.5181,-1.5181,-1.5181,-1.5153,-1.5086,-1.4936,-1.4679,-1.4346,0.0,-1.4258,-1.4014,-1.415,-1.4061,-1.3745,-1.377,-1.3607,-1.3403,-1.3403,-1.3403,-1.337,0.0,0.0,0.0,0.0,0.0,0.0,0.0,0.0,0.0,0.0,-0.4676,0.0,0.0,0.0,0.0,0.0,0.0,0.0,0.0,0.0,0.0,-0.6821,-0.738,-0.7806,-0.7955,-0.8241,-0.8492,-0.871,0.0,0.0,0.0,0.0,0.0,0.0,0.0,0.0,0.0,0.0,0.0,0.0,0.0,0.0,0.0,0.0,0.0,-0.7346,-0.7433,-0.7563,-0.7997,-0.9381,-0.9808,-0.9992,-1.1341,-1.1701,-1.1911,-1.3356,-1.3566,-1.3553,-1.4597,-1.4936,-1.4957,-1.478,-1.4597,-1.4122,-1.2874,-1.2372,-1.1762,-1.0381,-1.0046,-0.9781,-0.8825,-0.9157,-0.9971,-1.1165,-1.1884,-1.2579,-1.3715,-1.4116,-1.4183,-1.419,-1.4272,-1.455,-1.5126,-1.5126,-1.512,-1.5174,-1.4706,-1.4414,-1.4414,-1.4414,-1.4652,-1.5167,-1.5181,-1.5181,-1.5181,-1.5181,-1.5181,-1.5181,-1.516,-1.5092,-1.4964,-1.4787,-1.4421,-1.3946,0.0,0.0,-1.3736,-1.3973,-1.398,-1.3824,-1.3682,-1.3539,-1.3403,-1.3403,-1.3403,-1.3376,0.0,0.0,0.0,0.0,0.0,0.0,0.0,0.0,0.0,0.0,-0.4879,-0.4931,0.0,0.0,0.0,0.0,0.0,0.0,0.0,0.0,0.0,0.0,-0.735,-0.7461,-0.7848,-0.7787,-0.778,-0.7834,-0.7909,0.0,0.0,0.0,0.0,0.0,0.0,0.0,0.0,0.0,0.0,0.0,0.0,0.0,0.0,0.0,0.0,0.0,-0.7468,-0.759,-0.7882,-0.9417,-1.0243,-1.0765,-1.2115,-1.2684,-1.2942,-1.3356,-1.3777,-1.415,-1.436,-1.4774,-1.5079,-1.4808,-1.4441,-1.396,-1.322,-1.2271,-1.1226,-1.0093,-0.9395,-0.8852,-0.8425,-0.8933,-0.9808,-1.1009,-1.1597,-1.2022,-1.2725,-1.3401,-1.3766,-1.3614,-1.4102,-1.4658,-1.5133,-1.4848,0.0,0.0,0.0,-1.5031,-1.5031,-1.5031,-1.5079,-1.5181,-1.5181,-1.5181,-1.5181,-1.5181,-1.5181,-1.5181,-1.5065,-1.4997,-1.4964,-1.4679,-1.4496,-1.4394,0.0,0.0,-1.4177,-1.4102,-1.398,-1.3824,-1.3682,-1.3539,-1.3403,-1.3403,-1.3403,-1.3376,0.0,0.0,0.0,0.0,0.0,0.0,0.0,-0.522,-0.5283,-0.5522,-0.5303,-0.5242,-0.5572,-0.5567,-0.5591,0.0,0.0,0.0,0.0,0.0,0.0,0.0,0.0,-0.753,-0.7807,-0.7902,-0.7868,-0.7706,0.0,-0.7868,-0.7706,-0.7706,-0.7665,-0.7584,-0.7584,-0.7536,0.0,0.0,0.0,0.0,0.0,0.0,0.0,0.0,0.0,0.0,0.0,-0.7645,-0.7875,-0.8981,-0.9652,-1.0337,-1.2155,-1.3044,-1.3424,-1.3498,-1.3939,-1.4407,-1.4407,-1.4733,-1.5018,-1.4794,-1.4285,-1.3539,-1.2393,-1.1382,-1.031,-0.8947,-0.8438,-0.8153,-0.7903,-0.8411,-0.9306,-1.0507,-1.1127,-1.175,-1.2745,-1.3251,-1.3581,-1.3865,-1.4183,-1.4516,-1.4808,-1.4638,-1.4604,-1.4814,0.0,-1.4936,-1.5167,-1.5181,-1.5181,-1.5181,-1.5181,-1.5181,-1.5181,-1.5181,-1.5147,-1.5072,-1.5004,-1.4889,-1.4726,-1.4577,-1.4468,-1.4394,-1.4333,0.0,-1.3838,-1.3919,-1.3729,-1.339,-1.3478,-1.3464,-1.3403,-1.3403,-1.3403,-1.339,0.0,0.0,0.0,0.0,0.0,0.0,0.0,-0.5537,-0.5576,-0.5798,-0.5703,-0.5688,-0.5882,-0.5613,-0.548,0.0,0.0,0.0,0.0,0.0,0.0,0.0,0.0,-0.7526,-0.7717,0.0,0.0,-0.7814,-0.8024,0.0,0.0,0.0,0.0,0.0,-0.7333,-0.7251,-0.7098,-0.7098,0.0,0.0,0.0,0.0,0.0,0.0,0.0,0.0,0.0,-0.7678,-0.7821,-0.8526,-0.8974,-0.9578,-1.1538,-1.2617,-1.3193,-1.3417,-1.3885,-1.4367,-1.4557,-1.4787,-1.493,-1.474,-1.4109,-1.3132,-1.1606,-1.0582,-0.9478,-0.8052,-0.7726,-0.7678,-0.7543,-0.8018,-0.8832,-1.0032,-1.053,-1.1285,-1.2739,-1.3037,-1.3422,-1.417,-1.4306,-1.4428,-1.4638,-1.457,0.0,-1.4645,0.0,0.0,-1.516,-1.5181,-1.5181,-1.5181,-1.5181,-1.5181,-1.5181,-1.5181,-1.5113,-1.497,-1.4936,-1.478,-1.4509,-1.4482,-1.4407,-1.4299,-1.4299,0.0,0.0,-1.3722,-1.3492,-1.299,-1.3288,-1.3403,-1.3403,-1.3403,-1.3403,-1.3397,0.0,0.0,0.0,0.0,0.0,0.0,0.0,-0.5639,-0.5892,-0.5973,-0.5984,-0.6018,-0.6233,-0.5847,-0.5639,0.0,0.0,0.0,0.0,0.0,0.0,0.0,0.0,0.0,0.0,0.0,0.0,-0.7814,-0.7712,0.0,0.0,0.0,0.0,0.0,0.0,-0.7105,-0.7098,-0.7098,0.0,0.0,0.0,0.0,0.0,0.0,0.0,0.0,0.0,-0.7631,-0.757,-0.8581,-0.8852,-0.8947,-1.004,-1.0894,-1.1782,-1.2745,-1.3349,-1.3892,-1.4706,-1.495,-1.4903,-1.4604,-1.3871,-1.2929,-1.183,-1.0575,-0.9374,-0.8411,-0.7835,-0.7529,-0.786,-0.8147,-0.8682,-0.9815,-0.9689,-1.0142,-1.1952,-1.2296,-1.2794,-1.3987,-1.4326,-1.4658,-1.5079,-1.4753,-1.4679,-1.5092,0.0,0.0,-1.5181,-1.5181,-1.5181,-1.5181,-1.5181,-1.5181,-1.5181,-1.5181,-1.5113,-1.497,-1.4828,-1.4672,-1.4509,-1.438,-1.4312,-1.4299,0.0,0.0,0.0,-1.3722,-1.3492,-1.299,-1.3288,-1.3403,-1.3403,-1.3403,-1.3403,-1.3383,0.0,0.0,0.0,0.0,0.0,0.0,-0.5745,-0.5984,-0.6163,-0.62,-0.6117,-0.5997,-0.5889,-0.5733,-0.5787,-0.609,0.0,0.0,0.0,0.0,0.0,0.0,0.0,0.0,0.0,0.0,-0.7535,-0.7779,-0.7811,0.0,0.0,0.0,0.0,0.0,0.0,-0.7278,-0.7278,-0.7278,0.0,0.0,0.0,0.0,0.0,0.0,0.0,0.0,0.0,0.0,-0.7814,-0.8052,-0.8147,-0.8214,-0.8492,-0.9008,-0.9788,-1.1199,-1.2311,-1.3186,-1.3641,-1.4156,-1.4536,-1.4414,-1.3641,-1.261,-1.1477,-1.031,-0.9171,-0.8085,-0.7604,-0.7455,-0.7726,-0.7828,-0.8201,-0.9161,-0.9138,-0.9593,-1.1545,-1.1878,-1.2534,-1.4048,-1.4387,-1.4584,0.0,0.0,-1.4584,0.0,0.0,0.0,-1.5167,-1.5181,-1.5181,-1.5181,-1.5181,-1.5181,-1.5181,-1.5181,-1.5065,-1.4828,-1.4767,-1.4618,-1.438,-1.4326,-1.4299,-1.4292,0.0,0.0,0.0,-1.3478,-1.32,-1.2488,-1.3146,-1.3403,-1.3403,-1.3403,-1.3403,-1.3376,0.0,0.0,0.0,0.0,0.0,-0.5507,-0.5823,-0.6095,-0.6308,-0.634,-0.625,-0.6112,-0.5891,-0.5898,-0.6031,-0.6244,-0.6312,0.0,0.0,0.0,0.0,0.0,0.0,0.0,0.0,0.0,-0.747,-0.7663,-0.7719,-0.7773,0.0,0.0,-0.7724,-0.7583,0.0,0.0,0.0,0.0,0.0,0.0,0.0,0.0,0.0,0.0,0.0,0.0,0.0,0.0,0.0,0.0,0.0,-0.774,-0.7678,-0.7848,-0.837,-0.9883,-1.128,-1.2413,-1.2793,-1.3519,-1.4143,-1.4055,-1.3241,-1.2162,-1.1009,-0.9903,-0.8825,-0.7807,-0.7441,-0.7353,-0.7502,-0.757,-0.7862,-0.8676,-0.8825,-0.9429,-1.1118,-1.1552,-1.225,-1.3729,0.0,-1.4272,0.0,-1.4631,0.0,0.0,0.0,0.0,0.0,-1.5181,-1.5181,-1.5181,-1.5181,-1.5181,-1.5181,-1.514,-1.4991,-1.474,-1.4692,-1.4475,-1.4109,-1.4238,-1.4204,-1.4034,0.0,0.0,0.0,-1.3356,-1.3091,-1.2338,-1.3098,-1.3403,-1.3403,-1.3403,-1.3403,-1.337,0.0,0.0,0.0,0.0,0.0,0.0,-0.5338,-0.5894,-0.6299,-0.6395,-0.648,-0.6487,-0.6487,-0.6445,-0.6338,-0.622,-0.6255,0.0,0.0,0.0,0.0,0.0,0.0,0.0,0.0,0.0,-0.7281,-0.7408,-0.7281,-0.7281,-0.7402,-0.7409,-0.7471,-0.7577,0.0,0.0,0.0,0.0,0.0,0.0,0.0,0.0,0.0,0.0,0.0,0.0,0.0,0.0,0.0,0.0,0.0,0.0,0.0,-0.7719,-0.7841,-0.9042,-1.0351,-1.1599,-1.2488,-1.3275,-1.3777,-1.3485,-1.2617,-1.1565,-1.0527,-0.9354,-0.8323,-0.7726,-0.7353,-0.7146,-0.7346,-0.7495,-0.7794,-0.8391,-0.8914,-0.9576,-1.0582,-1.1111,-1.1789,0.0,0.0,-1.3702,-1.4441,-1.4916,0.0,0.0,0.0,0.0,0.0,-1.5181,-1.5181,-1.5181,-1.5181,-1.5181,-1.5181,-1.5045,-1.4896,-1.474,-1.4584,-1.4204,-1.3648,-1.4095,-1.3973,0.0,0.0,0.0,0.0,-1.3444,-1.3268,-1.2766,-1.322,-1.3403,-1.3403,-1.3403,-1.3403,-1.3356,0.0,0.0,0.0,0.0,0.0,0.0,0.0,-0.5748,-0.6053,-0.6108,-0.6246,-0.6273,-0.6207,-0.6343,-0.6315,-0.6065,-0.6344,0.0,0.0,0.0,0.0,0.0,0.0,0.0,0.0,-0.7087,-0.7133,-0.7337,-0.7293,-0.7476,-0.7816,-0.7786,-0.7949,-0.8227,-0.7982,-0.7853,0.0,0.0,0.0,0.0,0.0,0.0,0.0,0.0,0.0,0.0,0.0,0.0,0.0,0.0,0.0,0.0,0.0,0.0,0.0,-0.7896,-0.9035,-1.0256,-1.0636,-1.1362,-1.1938,-1.164,-1.1165,-1.0575,-0.9836,-0.9049,-0.8316,-0.7719,-0.7441,-0.7312,-0.7405,-0.7495,-0.7896,-0.8852,-0.9118,-0.9685,-1.0989,-1.1565,0.0,-1.3295,-1.4129,-1.4713,0.0,0.0,0.0,0.0,0.0,0.0,0.0,-1.5038,-1.5079,-1.5181,-1.5086,-1.5038,-1.5038,-1.4889,-1.4733,-1.4584,-1.4536,-1.415,-1.3492,-1.3939,0.0,0.0,0.0,0.0,0.0,-1.3336,-1.318,-1.2773,-1.3227,-1.3403,-1.3403,-1.3403,-1.3403,-1.3356,0.0,0.0,0.0,0.0,0.0,0.0,0.0,-0.5687,-0.586,-0.6025,-0.6203,-0.6251,-0.6246,-0.645,-0.6384,-0.6008,-0.6458,0.0,0.0,0.0,0.0,0.0,0.0,0.0,-0.7046,-0.7051,-0.7033,-0.6935,-0.6935,-0.7069,-0.7225,-0.7337,-0.7645,-0.8077,-0.7846,-0.7925,0.0,0.0,0.0,0.0,0.0,0.0,0.0,0.0,0.0,0.0,0.0,0.0,0.0,0.0,0.0,0.0,0.0,0.0,0.0,0.0,-0.8072,-0.8954,-0.9442,-1.0188,-1.0785,-1.0602,-1.0243,-0.9802,-0.9252,-0.8621,-0.8031,-0.7604,-0.7482,-0.7421,-0.7305,-0.755,-0.7943,-0.8479,-0.9035,-0.9713,-1.0595,0.0,0.0,-1.3085,0.0,0.0,0.0,0.0,0.0,0.0,0.0,0.0,0.0,0.0,-1.4923,-1.5011,-1.493,-1.4882,-1.4882,-1.4733,-1.4604,-1.4509,-1.4401,-1.3927,-1.3161,-1.3718,0.0,0.0,0.0,0.0,0.0,-1.3322,-1.3234,-1.301,-1.3288,-1.3403,-1.3403,-1.3403,-1.3363,-1.3281,0.0,0.0,0.0,0.0,0.0,0.0,0.0,-0.5572,-0.5761,-0.6051,-0.6285,-0.6404,-0.648,-0.6701,-0.6585,-0.6052,0.0,0.0,0.0,0.0,0.0,0.0,0.0,0.0,-0.7193,-0.7149,-0.6939,-0.6431,-0.6374,-0.6269,-0.6049,-0.6331,-0.6781,-0.7425,-0.7433,-0.7763,0.0,0.0,0.0,0.0,0.0,0.0,0.0,0.0,0.0,0.0,0.0,0.0,0.0,0.0,0.0,0.0,0.0,0.0,0.0,0.0,0.0,0.0,0.0,-0.9617,-1.01,-1.008,-0.9659,-0.9144,-0.8723,-0.8085,0.0,-0.7428,-0.7516,-0.7529,-0.7213,-0.7638,-0.7961,-0.778,-0.892,-0.9808,-0.9734,-1.0636,0.0,0.0,-1.3376,0.0,0.0,0.0,0.0,0.0,0.0,0.0,0.0,0.0,-1.4719,-1.4706,-1.4706,-1.4713,-1.4726,-1.457,-1.4475,-1.4338,-1.4183,-1.3547,-1.2586,-1.333,0.0,0.0,0.0,0.0,0.0,-1.3403,-1.3403,-1.3403,-1.3403,-1.3403,-1.3397,-1.339,-1.3295,-1.3152,0.0,0.0,0.0,0.0,0.0,0.0,0.0,0.0,0.0,0.0,-0.6214,-0.641,-0.6572,-0.671,-0.6553,0.0,0.0,0.0,0.0,0.0,0.0,0.0,0.0,0.0,-0.7024,-0.689,-0.6699,-0.6483,-0.6255,-0.6296,-0.6546,-0.6605,-0.6958,-0.7629,-0.7648,-0.7786,0.0,0.0,0.0,0.0,0.0,0.0,0.0,0.0,0.0,0.0,-0.7292,-0.7346,0.0,0.0,0.0,0.0,0.0,0.0,0.0,0.0,-0.7098,-0.719,-0.7665,0.0,-0.8336,-0.8113,-0.8038,-0.7991,0.0,-0.7638,-0.7482,-0.7672,-0.774,-0.7773,-0.7773,-0.8177,-0.8682,-0.9076,-0.9618,-1.0251,-1.0724,-1.1898,0.0,-1.3152,-1.4183,-1.4787,0.0,0.0,0.0,0.0,0.0,0.0,0.0,0.0,-1.4516,-1.4407,-1.4401,-1.4455,-1.4563,-1.4421,-1.4028,-1.3245,-1.3508,-1.2862,-1.1485,-1.2262,0.0,0.0,0.0,0.0,-1.3403,-1.3403,-1.3403,-1.3403,-1.3403,-1.3403,-1.339,-1.3268,-1.3207,-1.3132,0.0,0.0,0.0,0.0,0.0,0.0,0.0,0.0,0.0,0.0,0.0,-0.5606,-0.6487,-0.615,0.0,0.0,0.0,0.0,0.0,0.0,0.0,0.0,0.0,-0.7117,-0.7117,-0.685,-0.6628,-0.645,-0.6165,-0.6098,-0.6191,-0.6147,-0.6531,-0.7323,-0.7677,-0.7819,0.0,0.0,0.0,0.0,0.0,0.0,0.0,0.0,0.0,0.0,-0.7031,-0.7136,0.0,-0.7522,-0.7597,-0.7584,0.0,0.0,0.0,0.0,-0.6943,-0.6903,-0.7041,-0.738,-0.776,-0.7943,-0.7896,-0.7834,-0.7977,-0.7678,-0.7434,-0.7665,-0.7712,-0.776,-0.7909,-0.8248,-0.8662,-0.9123,-0.9564,-1.0229,0.0,0.0,-1.2976,-1.3261,-1.3926,0.0,0.0,0.0,0.0,0.0,0.0,0.0,0.0,0.0,-1.4346,-1.4197,-1.4015,-1.3879,-1.3951,-1.3879,-1.3462,-1.2725,-1.2834,-1.2337,-1.1366,-1.1928,0.0,0.0,0.0,0.0,-1.3376,-1.3105,-1.3152,-1.3403,-1.3403,-1.3356,-1.3288,-1.32,-1.3085,-1.2949,0.0,0.0,0.0,0.0,0.0,0.0,0.0,0.0,0.0,0.0,0.0,0.0,0.0,0.0,0.0,0.0,0.0,0.0,0.0,0.0,0.0,0.0,-0.6979,-0.7154,-0.7099,-0.6826,-0.6608,-0.6331,-0.6107,-0.5867,-0.5605,-0.5586,-0.5979,-0.676,-0.7481,-0.7756,-0.7596,0.0,0.0,0.0,0.0,0.0,0.0,0.0,0.0,0.0,0.0,0.0,0.0,-0.7373,-0.7495,-0.7522,-0.7475,0.0,0.0,0.0,0.0,0.0,-0.681,-0.7177,-0.7719,-0.835,-0.8235,-0.7988,-0.8289,-0.7841,-0.748,-0.7658,-0.7719,-0.7794,-0.7984,-0.8323,-0.8648,-0.8879,-0.9456,0.0,-1.1681,-1.2291,-1.2745,-1.3125,0.0,0.0,0.0,0.0,0.0,0.0,0.0,0.0,0.0,0.0,0.0,-1.4041,-1.3687,-1.3413,-1.3307,-1.3326,-1.2964,-1.2325,-1.2219,-1.1884,-1.1406,-1.1694,-1.1902,0.0,0.0,0.0,-1.328,-1.2847,-1.2942,-1.3397,-1.3376,-1.3288,-1.3166,-1.3119,-1.2949,-1.2725,0.0,0.0,0.0,0.0,0.0,0.0,0.0,0.0,0.0,0.0,0.0,0.0,0.0,0.0,0.0,0.0,0.0,0.0,0.0,0.0,0.0,-0.6596,-0.6979,-0.7043,-0.6771,-0.6715,-0.6534,-0.6152,-0.6094,-0.597,-0.5761,-0.5745,-0.5978,-0.6478,-0.6818,-0.724,-0.7596,-0.7646,0.0,0.0,0.0,0.0,0.0,0.0,0.0,0.0,0.0,0.0,0.0,-0.6824,-0.7007,-0.7125,-0.6919,0.0,0.0,0.0,0.0,0.0,-0.718,-0.7378,-0.748,-0.7596,-0.7624,-0.7678,-0.7726,-0.755,-0.7569,-0.8108,-0.8262,-0.8472,-0.8927,-0.951,-0.9944,-0.9795,-1.0561,-1.1328,0.0,0.0,-1.3091,0.0,0.0,0.0,0.0,0.0,0.0,0.0,0.0,0.0,0.0,0.0,0.0,-1.3878,-1.3792,-1.3561,-1.3102,-1.279,-1.2228,-1.1305,-1.1593,-1.1257,-1.0401,-1.0749,-1.1153,0.0,0.0,-1.2319,-1.281,-1.3137,-1.3315,-1.339,-1.3261,-1.3193,-1.3146,-1.2888,-1.2766,-1.2712,0.0,0.0,0.0,0.0,0.0,0.0,0.0,0.0,0.0,0.0,0.0,0.0,0.0,0.0,0.0,0.0,0.0,0.0,0.0,0.0,-0.6366,-0.6325,-0.6488,-0.6649,-0.6715,-0.6603,-0.637,-0.612,-0.5991,-0.5885,-0.5851,-0.6052,-0.6141,-0.6183,-0.6881,-0.7291,-0.7391,-0.769,-0.7889,0.0,0.0,0.0,0.0,0.0,0.0,0.0,0.0,0.0,0.0,0.0,-0.6923,-0.7071,-0.6937,0.0,0.0,0.0,0.0,0.0,-0.6757,-0.7007,-0.7346,-0.7753,-0.7909,-0.8153,-0.8879,-0.8364,-0.797,-0.8818,-0.8594,-0.8431,-0.9098,-0.9562,-0.9985,-1.0555,0.0,-1.2311,-1.2599,-1.2908,-1.3234,0.0,0.0,0.0,0.0,0.0,0.0,0.0,0.0,0.0,0.0,0.0,0.0,0.0,-1.3474,-1.3232,-1.2836,-1.2474,-1.2139,-1.1758,-1.1741,-1.1599,-1.1352,-1.1499,-1.1718,-1.2133,0.0,-1.2323,-1.2926,-1.2855,-1.2942,-1.3159,-1.3085,-1.3003,-1.2908,-1.2691,-1.261,-1.261,0.0,0.0,0.0,0.0,0.0,0.0,0.0,0.0,0.0,0.0,0.0,0.0,0.0,0.0,0.0,0.0,0.0,0.0,0.0,-0.6443,-0.6384,-0.6359,-0.626,-0.6323,-0.6566,-0.6507,-0.6373,-0.6033,-0.6047,-0.5927,-0.5851,-0.6219,-0.6219,-0.5955,-0.6907,-0.7291,-0.7235,-0.7601,-0.7813,-0.7869,0.0,0.0,0.0,0.0,0.0,0.0,0.0,0.0,0.0,0.0,0.0,0.0,0.0,0.0,0.0,-0.6776,-0.6593,-0.6511,-0.6511,-0.677,-0.7233,-0.8072,-0.8245,-0.8486,-0.9903,-0.9089,-0.8319,-0.953,-0.9069,-0.8662,-0.9398,-0.9618,-1.0107,-1.1199,-1.221,-1.2915,-1.3091,-1.3214,0.0,0.0,0.0,0.0,0.0,0.0,0.0,0.0,0.0,0.0,0.0,0.0,0.0,0.0,-1.3237,-1.3017,-1.2899,-1.2516,-1.2249,-1.2255,-1.2017,-1.1999,-1.2262,-1.2253,-1.2322,-1.2491,-1.2138,-1.2357,-1.2923,-1.2637,-1.2651,-1.3036,-1.2922,-1.2813,-1.2664,-1.2549,-1.2501,-1.2522,0.0,0.0,0.0,0.0,0.0,0.0,0.0,0.0,0.0,0.0,0.0,0.0,0.0,0.0,0.0,0.0,0.0,0.0,0.0,-0.6964,-0.7013,-0.7138,-0.6811,-0.6525,-0.6152,-0.6589,-0.6527,-0.5833,-0.6377,-0.6277,-0.5605,-0.5912,-0.5986,-0.5902,-0.6331,-0.6774,-0.7179,-0.7113,-0.7278,-0.7558,-0.7014,0.0,0.0,0.0,0.0,0.0,0.0,0.0,0.0,0.0,0.0,0.0,0.0,0.0,-0.6869,-0.6749,-0.6593,-0.6559,-0.6923,-0.697,-0.7156,-0.8045,-0.7957,-0.8072,-0.964,-0.8959,-0.8406,-0.993,-0.9944,-0.9836,-1.031,-1.0636,-1.109,-1.187,-1.2298,-1.2779,0.0,0.0,0.0,0.0,0.0,0.0,0.0,0.0,0.0,0.0,0.0,0.0,0.0,0.0,0.0,0.0,0.0,-1.3327,-1.3321,-1.3036,-1.2604,-1.2127,-1.2081,-1.2081,-1.2127,-1.2069,-1.2008,-1.1873,-1.2244,-1.2417,-1.2407,-1.2769,-1.2929,-1.2949,-1.28,-1.2651,-1.2515,-1.2508,-1.2501,-1.2501,0.0,0.0,0.0,0.0,0.0,0.0,0.0,0.0,0.0,0.0,0.0,0.0,0.0,0.0,0.0,0.0,0.0,0.0,0.0,-0.5751,-0.5667,-0.6657,-0.6398,-0.6196,-0.6065,-0.6503,-0.6509,-0.6168,-0.6168,-0.5941,-0.5557,-0.5747,-0.5827,-0.5855,-0.6328,-0.6594,-0.6731,-0.6801,-0.6923,-0.7062,-0.6426,-0.6014,0.0,0.0,0.0,0.0,0.0,0.0,0.0,0.0,-0.6505,-0.6681,-0.6586,-0.6661,-0.6756,-0.6607,-0.6497,-0.6416,-0.6546,-0.6756,-0.7146,-0.8275,-0.8072,-0.8052,-0.9795,-0.9585,-0.9442,-1.0934,-1.0561,-0.995,-1.0188,-1.0765,-1.1409,-1.1972,-1.2542,0.0,0.0,0.0,0.0,0.0,0.0,0.0,0.0,0.0,0.0,0.0,0.0,0.0,0.0,0.0,0.0,0.0,0.0,-1.3214,-1.3125,-1.3023,-1.2853,-1.2644,-1.2663,-1.274,-1.2899,-1.2808,-1.269,-1.2553,-1.2714,-1.2715,-1.2575,-1.2734,-1.2759,-1.2671,-1.261,-1.2556,-1.2501,-1.2501,-1.2501,-1.2501,0.0,0.0,0.0,0.0,0.0,0.0,0.0,0.0,0.0,0.0,0.0,0.0,0.0,0.0,0.0,0.0,0.0,0.0,-0.5124,-0.4654,-0.478,-0.5841,-0.6042,-0.6168,-0.6162,-0.6378,-0.642,-0.6386,-0.5991,-0.5689,-0.5422,-0.5595,-0.5647,-0.5695,-0.6159,-0.6297,-0.6276,-0.6371,-0.642,-0.6454,-0.5851,-0.546,0.0,0.0,0.0,0.0,0.0,0.0,0.0,0.0,-0.6504,-0.662,-0.6559,-0.6614,-0.6681,-0.6573,-0.6512,-0.6471,-0.6471,-0.6729,-0.7193,-0.8248,-0.8079,-0.8147,-0.9998,-0.9964,-0.9944,-1.1396,-1.1049,-1.0516,-1.0493,-1.0975,-1.1525,0.0,-1.2501,0.0,0.0,0.0,0.0,0.0,0.0,0.0,0.0,0.0,0.0,0.0,0.0,0.0,0.0,0.0,0.0,0.0,0.0,0.0,-1.2963,-1.2963,-1.2963,-1.2963,-1.2893,-1.2986,-1.3261,-1.3152,-1.3024,-1.2888,-1.2888,-1.28,-1.2657,-1.2657,-1.2596,-1.2501,-1.2501,-1.2501,-1.2501,-1.2501,-1.2474,-1.2433,0.0,0.0,0.0,0.0,0.0,0.0,0.0,0.0,0.0,0.0,0.0,0.0,0.0,0.0,0.0,0.0,0.0,0.0,-0.2689,-0.3927,-0.4708,-0.4799,-0.5789,-0.6429,-0.6591,-0.627,-0.6212,-0.6417,-0.598,-0.5605,-0.5188,-0.5465,-0.5527,-0.539,-0.5695,-0.5889,-0.5977,-0.5802,-0.5767,-0.5843,-0.5228,-0.4819,-0.4588,0.0,0.0,0.0,0.0,0.0,0.0,0.0,-0.6511,-0.6538,-0.6647,-0.6702,-0.6702,-0.6702,-0.681,-0.6883,-0.6889,-0.6991,-0.724,-0.784,-0.788,-0.8323,-1.0263,-1.0025,-0.9774,-1.1118,-1.1626,-1.1735,-1.1443,-1.1396,-1.1497,-1.1782,-1.2094,0.0,0.0,0.0,0.0,0.0,0.0,0.0,0.0,0.0,0.0,0.0,0.0,0.0,0.0,0.0,0.0,0.0,0.0,0.0,-1.3036,-1.3036,-1.3036,-1.2956,-1.28,-1.2807,-1.3043,-1.3036,-1.2874,-1.2725,-1.2725,-1.2644,-1.2501,-1.2501,-1.2501,-1.2501,-1.2501,-1.2501,-1.2501,-1.2501,-1.2406,-1.2291,0.0,0.0,0.0,0.0,0.0,0.0,0.0,0.0,0.0,0.0,0.0,0.0,0.0,0.0,0.0,0.0,0.0,0.0,-0.2344,-0.2013,-0.2196,-0.3117,-0.4325,-0.4873,-0.4795,-0.5482,-0.5887,-0.5927,-0.5502,-0.5388,-0.5461,-0.5192,-0.5244,-0.57,-0.5618,-0.5513,-0.5384,-0.5344,-0.5333,-0.5208,-0.4699,-0.4555,-0.4588,0.0,0.0,0.0,0.0,0.0,0.0,0.0,0.0,0.0,-0.6484,-0.6675,-0.695,-0.6849,-0.6817,-0.681,-0.6977,-0.6991,-0.7139,-0.7997,-0.8323,-0.8676,-0.9578,-0.9978,-1.0453,-1.1484,-1.1687,-1.1558,-1.1151,-1.1599,-1.1979,-1.185,-1.2264,0.0,0.0,0.0,0.0,0.0,0.0,0.0,0.0,0.0,0.0,0.0,0.0,0.0,0.0,0.0,0.0,0.0,0.0,0.0,-1.2637,-1.2637,-1.2637,-1.2637,-1.2589,-1.2651,-1.2793,-1.2684,-1.261,-1.2569,-1.2569,-1.2542,-1.2501,-1.2501,-1.2501,-1.2488,-1.2393,-1.2352,-1.2338,-1.223,-1.2169,-1.2128,0.0,0.0,0.0,0.0,0.0,0.0,0.0,0.0,0.0,0.0,0.1605,0.1611,0.0,0.0,0.0,0.0,0.0,0.0,0.0,-0.0638,-0.1117,-0.242,-0.3545,-0.4297,-0.4579,-0.5085,-0.5449,-0.5659,-0.5483,-0.5331,-0.5252,-0.5073,-0.5115,-0.538,-0.5287,-0.5124,-0.4892,-0.4865,-0.4832,-0.4677,-0.4397,-0.4411,-0.4661,0.0,0.0,0.0,0.0,0.0,0.0,0.0,0.0,0.0,-0.6354,-0.6586,-0.6903,-0.6865,-0.6939,-0.7136,-0.7489,-0.7611,-0.7882,-0.8899,-0.9015,-0.9049,-0.968,-1.0215,-1.0873,-1.1884,-1.1986,-1.1823,-1.1606,-1.1959,0.0,-1.2121,0.0,0.0,0.0,0.0,0.0,0.0,0.0,0.0,0.0,0.0,0.0,0.0,0.0,0.0,0.0,0.0,0.0,0.0,0.0,0.0,-1.2501,-1.2501,-1.2474,-1.242,-1.242,-1.251,-1.2699,-1.2565,-1.2501,-1.2501,-1.244,-1.242,-1.2413,-1.2352,-1.2325,-1.2318,-1.223,-1.2196,-1.2189,-1.2094,-1.202,-1.1972,0.0,0.0,0.0,0.0,0.0,0.0,0.0,0.0,0.0,0.0,0.1531,0.1546,0.0,0.0,0.0,0.0,0.0,0.0,0.0,0.0319,-0.0882,-0.2082,-0.3141,-0.4238,-0.5401,-0.4965,-0.4995,-0.5508,-0.5652,-0.5367,-0.4781,-0.5047,-0.5035,-0.4847,-0.4847,-0.4741,-0.4553,-0.4479,-0.4381,-0.4311,-0.4233,-0.4402,-0.4731,-0.5142,0.0,0.0,0.0,0.0,0.0,0.0,0.0,0.0,-0.632,-0.6485,-0.6729,-0.6756,-0.7156,-0.7706,-0.818,-0.8479,-0.8927,-1.008,-0.9781,-0.9501,-1.0399,-1.069,-1.1084,-1.223,-1.2338,-1.2284,-1.2447,-1.2386,-1.2352,0.0,0.0,0.0,0.0,0.0,0.0,0.0,0.0,0.0,0.0,0.0,0.0,0.0,0.0,0.0,0.0,0.0,0.0,0.0,0.0,0.0,-1.2461,-1.2461,-1.24,0.0,-1.2347,-1.2422,-1.2589,-1.2567,-1.2538,-1.2531,-1.2325,-1.2271,-1.2257,-1.2121,-1.2135,-1.2135,-1.2047,-1.204,-1.204,-1.2026,-1.1932,-1.1809,0.0,0.0,0.0,0.0,0.0,0.0,0.0,0.0,0.0,0.0,0.0,0.0,0.0,0.0,0.0,0.0,0.0,0.0,0.0,0.116,0.0865,0.0651,-0.1118,-0.2992,-0.4906,-0.5059,-0.4999,-0.4822,-0.4839,-0.5089,-0.5574,-0.5042,-0.496,-0.5252,-0.5047,-0.4765,-0.4467,-0.452,-0.4596,-0.4596,-0.4198,-0.4259,-0.4575,-0.4981,-0.5132,0.0,0.0,0.0,0.0,0.0,0.0,0.0,-0.6463,-0.6634,-0.6926,-0.7156,-0.7407,-0.7746,-0.8431,-0.8404,-0.8384,-0.9232,-0.9476,-0.9869,-1.1233,-1.1294,-1.1274,-1.2006,-1.1945,-1.1877,-1.2264,-1.24,0.0,0.0,0.0,0.0,0.0,0.0,0.0,0.0,0.0,0.0,0.0,0.0,0.0,0.0,0.0,0.0,0.0,0.0,0.0,0.0,0.0,-1.2155,-1.2155,-1.2155,-1.2142,0.0,-1.2407,-1.2543,-1.2582,-1.2578,-1.2606,-1.2531,-1.2271,-1.2108,-1.2108,-1.2074,-1.2135,-1.2047,-1.1932,-1.1877,-1.1864,-1.1755,-1.1694,-1.1667,0.0,0.0,0.0,0.0,0.0,0.0,0.0,0.0,0.0,0.0,0.0,0.0,0.0,0.0,0.0,0.0,0.0,0.0,0.0,0.1406,0.1204,0.082,-0.1433,-0.3171,-0.4109,-0.4787,-0.5102,-0.5,-0.4767,-0.4819,-0.5107,-0.5047,-0.5039,-0.5048,-0.4897,-0.4667,-0.4365,-0.4332,-0.4441,-0.4586,-0.4339,-0.4594,-0.5141,-0.524,-0.542,-0.5661,-0.602,0.0,0.0,0.0,0.0,0.0,0.0,0.0,-0.6756,-0.698,-0.7156,-0.7441,-0.8187,-0.8533,-0.8893,-0.9788,-1.0297,-1.0717,-1.128,-1.1396,-1.147,-1.1789,-1.1843,-1.1904,-1.2135,0.0,0.0,0.0,0.0,0.0,0.0,0.0,0.0,0.0,0.0,0.0,0.0,0.0,0.0,0.0,0.0,0.0,0.0,0.0,0.0,0.0,-1.2135,-1.2135,-1.2135,-1.2135,-1.2175,-1.2247,-1.2395,-1.2647,-1.2948,-1.2734,-1.2582,-1.2575,-1.2134,-1.1952,-1.1945,-1.1877,-1.185,-1.1843,-1.1762,-1.1728,-1.1721,-1.1647,-1.1619,-1.1619,0.0,0.0,0.0,0.0,0.0,0.0,0.0,0.0,0.0,0.0,0.0,0.0,0.0,0.0,0.0,0.0,0.0,0.0,0.0,0.1392,0.0966,0.0,-0.2228,-0.343,-0.3353,-0.4468,-0.5111,-0.5228,-0.4877,-0.4617,-0.4509,-0.5094,-0.5124,-0.4822,-0.4773,-0.4585,-0.4287,-0.4069,-0.422,-0.4553,-0.4433,-0.4903,-0.5711,-0.5485,-0.5662,-0.609,-0.6,-0.6091,-0.6259,-0.6259,0.0,0.0,0.0,0.0,-0.6511,-0.6647,-0.681,-0.7045,-0.7759,-0.8696,-0.9659,-1.0663,-1.1151,-1.1335,-1.1049,-1.1294,-1.1525,-1.1606,-1.1837,-1.202,0.0,0.0,0.0,0.0,0.0,0.0,0.0,0.0,0.0,0.0,0.0,0.0,0.0,0.0,0.0,0.0,0.0,0.0,0.0,0.0,-1.2013,-1.1986,-1.1986,-1.1986,-1.1986,-1.206,-1.222,-1.2379,-1.2525,-1.2887,-1.3404,-1.2963,-1.2719,-1.2638,-1.207,-1.1796,-1.1782,-1.1667,-1.1619,-1.1619,-1.1619,-1.1619,-1.1619,-1.1619,-1.1619,-1.1619,0.0,0.0,0.0,0.0,0.0,0.0,0.0,0.0,0.0,0.0,0.1468,0.1464,0.1403,0.1396,0.0,0.0,0.0,0.0,0.1311,0.0,0.0,-0.0131,-0.1246,-0.2198,-0.3018,-0.4211,-0.4726,-0.4426,-0.4625,-0.4785,-0.5018,-0.5037,-0.514,-0.5284,-0.5043,-0.47,-0.4287,-0.4069,-0.4344,-0.4873,-0.4169,-0.4506,-0.5406,-0.5054,-0.5087,-0.5389,-0.5696,-0.5928,-0.602,-0.602,-0.6152,0.0,0.0,0.0,-0.6381,-0.662,-0.681,-0.7018,-0.7672,-0.8696,-0.9768,-1.0555,-1.0602,-1.0649,-1.1369,-1.1204,-1.1076,0.0,-1.1748,0.0,0.0,0.0,0.0,0.0,0.0,0.0,0.0,0.0,0.0,0.0,0.0,0.0,0.0,0.0,0.0,0.0,0.0,0.0,0.0,-1.1864,-1.1803,-1.1681,-1.1681,-1.1681,-1.1681,-1.2042,-1.2172,-1.2223,-1.2862,-1.342,-1.3833,-1.3372,-1.3036,-1.2748,-1.2302,-1.1935,-1.1647,-1.1626,-1.1619,-1.1619,-1.1619,-1.1619,-1.1619,-1.1619,-1.1619,-1.1619,0.0,0.0,0.0,0.0,0.0,0.0,0.0,0.0,0.0,0.0,0.0,0.1419,0.1393,0.1361,0.0,0.0,0.0,0.0,0.128,0.1319,0.0,0.0839,-0.0301,-0.1255,-0.1911,-0.334,-0.4093,-0.4153,-0.4407,-0.4793,-0.5333,-0.5292,-0.5312,-0.5382,-0.5357,-0.4957,-0.4295,-0.4214,-0.4351,-0.4613,-0.4241,-0.4609,-0.5347,-0.4821,-0.488,-0.5251,-0.5188,-0.528,-0.5407,-0.5436,-0.5662,-0.5918,-0.5976,0.0,0.0,0.0,-0.6383,-0.6552,-0.7746,-0.8391,-0.9089,-1.0595,-1.0493,-1.0304,-1.1375,-1.1274,-1.1008,-1.1525,0.0,0.0,0.0,0.0,0.0,0.0,0.0,0.0,0.0,0.0,0.0,0.0,0.0,0.0,0.0,0.0,0.0,0.0,0.0,0.0,-1.1714,-1.1714,-1.1687,-1.1619,-1.1619,0.0,-1.1619,-1.1979,-1.2409,-1.2832,-1.3396,-1.3753,-1.3904,-1.3682,-1.3325,-1.2753,-1.2402,-1.1979,-1.1619,-1.1619,-1.1619,-1.1619,-1.1619,-1.1619,-1.1619,-1.1619,-1.1619,-1.1619,0.0,0.0,0.0,0.0,0.0,0.0,0.0,0.0,0.0,0.0,0.0,0.1377,0.1369,0.0,0.0,0.0,0.0,0.0,0.129,0.0,0.0,0.0,0.0323,-0.0484,-0.0798,-0.2402,-0.3373,-0.3624,-0.4055,-0.4652,-0.5443,-0.5488,-0.5537,-0.5586,-0.5651,-0.5255,-0.4528,-0.4393,-0.445,-0.4572,-0.44,-0.4728,-0.5278,-0.4734,-0.4846,-0.5188,-0.4855,-0.4822,-0.4964,-0.4953,-0.5156,-0.5437,-0.5428,-0.5531,0.0,0.0,0.0,-0.5898,-0.7475,-0.7841,-0.8211,-1.0127,-1.0066,-0.9815,0.0,0.0,-1.0846,0.0,0.0,0.0,0.0,0.0,0.0,0.0,0.0,0.0,0.0,0.0,0.0,0.0,0.0,0.0,0.0,0.0,0.0,0.0,0.0,0.0,-1.1619,-1.1619,-1.1619,-1.1619,-1.1619,-1.1619,-1.1619,-1.2122,-1.2689,-1.3468,-1.3753,-1.3904,-1.3904,-1.3904,-1.3468,-1.2753,-1.2474,-1.2051,-1.1619,-1.1619,-1.1619,-1.1619,-1.1619,-1.1619,-1.1619,-1.166,-1.1674,-1.1681,0.0,0.0,0.0,0.0,0.0,0.0,0.0,0.0,0.0,0.0,0.0,0.1297,0.131,0.1305,0.1291,0.1299,0.1296,0.0,0.0,0.0,0.0,0.0,0.0,0.0,-0.0038,-0.1628,-0.2537,-0.2681,-0.3457,-0.4287,-0.5204,-0.5431,-0.5733,-0.6129,-0.5884,-0.5557,-0.5108,-0.4598,-0.4699,-0.512,-0.4516,-0.4633,-0.5103,-0.4788,-0.485,-0.5085,-0.4886,-0.4909,-0.5052,-0.4876,-0.4881,-0.4941,-0.5007,-0.4879,-0.4687,0.0,0.0,0.0,-0.6445,-0.698,-0.7442,-0.8689,-0.8906,-0.8933,0.0,0.0,0.0,0.0,0.0,0.0,0.0,0.0,0.0,0.0,0.0,0.0,0.0,0.0,0.0,0.0,0.0,0.0,0.0,0.0,0.0,0.0,0.0,0.0,-1.1619,-1.1619,-1.1619,-1.1619,-1.1619,-1.1619,-1.1619,-1.2402,-1.3111,-1.3904,-1.3904,-1.3904,-1.3904,-1.3904,-1.3468,-1.2824,-1.2753,-1.233,-1.1619,-1.1619,-1.1619,-1.1619,-1.1619,-1.1619,-1.1633,-1.1769,-1.1823,-1.1843,0.0,0.0,0.0,0.0,0.0,0.0,0.0,0.0,0.0,0.0,0.0,0.0,0.0,0.1286,0.1309,0.1298,0.1296,0.0,0.0,0.0,0.0,0.0,0.0,0.0,0.0148,-0.0447,-0.1334,-0.254,-0.2835,-0.361,-0.4818,-0.4994,-0.5226,-0.5512,-0.5998,-0.5786,-0.5059,-0.4924,-0.4666,-0.4423,-0.4517,-0.4652,-0.4777,-0.4561,-0.4733,-0.5045,-0.4585,-0.4588,-0.4736,-0.448,-0.4506,-0.4634,-0.4674,-0.4687,-0.4621,-0.4433,-0.4642,-0.5067,-0.5803,-0.6194,-0.6725,-0.8184,-0.818,-0.8133,-0.9218,-0.9618,0.0,0.0,0.0,0.0,0.0,0.0,0.0,0.0,0.0,0.0,0.0,0.0,0.0,0.0,0.0,0.0,0.0,0.0,0.0,0.0,0.0,0.0,-1.1606,-1.1278,-1.1321,-1.1613,-1.1619,-1.1835,-1.2402,-1.2681,-1.3182,-1.3904,-1.3904,-1.3904,-1.3904,-1.3904,-1.3468,-1.2824,-1.2824,-1.233,-1.1619,-1.1619,-1.1619,-1.1619,-1.1619,-1.1619,-1.1626,-1.1674,-1.1694,-1.1701,0.0,0.0,0.0,0.0,0.0,0.0,0.0,0.0,0.1284,0.1304,0.0,0.0,0.0,0.0,0.1307,0.1298,0.1286,0.1285,0.1296,0.1286,0.0,0.0,0.0,0.0,0.0719,0.0399,-0.0334,-0.1588,-0.1914,-0.2734,-0.3983,-0.4172,-0.4514,-0.5043,-0.5643,-0.5647,-0.5202,-0.5296,-0.5039,-0.4546,-0.4403,-0.4498,-0.4694,-0.3768,-0.4198,-0.5055,-0.3636,-0.3853,-0.4732,-0.3967,-0.4061,-0.4444,-0.4412,-0.4298,-0.4141,-0.3898,-0.4119,-0.4517,-0.4933,-0.5242,-0.5703,-0.691,-0.7066,-0.7156,-0.8236,0.0,0.0,0.0,0.0,0.0,0.0,0.0,0.0,0.0,0.0,0.0,0.0,0.0,0.0,0.0,0.0,0.0,0.0,0.0,0.0,0.0,0.0,0.0,-1.1606,-1.1264,-1.1307,-1.1613,-1.1763,-1.2115,-1.2824,-1.2896,-1.3253,-1.3904,-1.3904,-1.3904,-1.3904,-1.3904,-1.3444,-1.2671,-1.2671,-1.228,-1.1619,-1.1619,-1.1619,-1.1619,-1.1619,-1.1619,-1.1626,-1.1674,-1.1687,-1.1694,0.0,0.0,0.0,0.0,0.0,0.0,0.1396,0.1323,0.1263,0.1264,0.0,0.0,0.0,0.0,0.0,0.1303,0.1234,0.1228,0.1296,0.123,0.1275,0.1387,0.1604,0.1694,0.1683,0.0861,0.0368,0.0189,-0.0774,-0.1764,-0.2768,-0.3042,-0.3705,-0.4706,-0.4722,-0.5067,-0.5556,-0.5712,-0.5696,-0.547,-0.412,-0.4205,-0.4865,-0.2398,-0.311,-0.5119,-0.214,-0.2852,-0.5066,-0.3395,-0.3472,-0.4255,-0.4193,-0.3736,-0.3201,-0.3125,-0.329,-0.3572,0.0,0.0,0.0,-0.4963,0.0,0.0,-0.6516,0.0,0.0,0.0,0.0,0.0,0.0,0.0,0.0,0.0,0.0,0.0,0.0,0.0,0.0,0.0,0.0,0.0,0.0,0.0,0.0,0.0,0.0,-1.1606,-1.1619,-1.1619,-1.1619,-1.1619,-1.1972,-1.2402,-1.2817,-1.3095,-1.3523,-1.3888,-1.3888,-1.3888,-1.3888,-1.3888,-1.3365,-1.2507,-1.2507,-1.2179,-1.1606,-1.1606,-1.1606,-1.1606,-1.1606,-1.1606,-1.1619,-1.1762,-1.1809,-1.183,0.0,0.0,0.0,0.0,0.0,0.0895,0.089,0.085,0.0785,0.0,0.0,0.0,0.1093,0.1273,0.1362,0.1354,0.1326,0.1264,0.1291,0.13,0.126,0.1241,0.1531,0.1622,0.1472,0.1376,0.0977,0.0189,-0.019,-0.0815,-0.172,-0.1824,-0.2042,-0.2391,-0.3423,-0.3861,-0.3937,-0.4742,-0.4918,-0.4714,-0.4215,-0.3947,-0.3669,-0.2767,-0.2803,-0.3243,-0.2344,-0.2459,-0.311,-0.3457,-0.3345,-0.3166,-0.3729,-0.3712,-0.3458,-0.323,-0.3419,-0.3734,-0.3761,0.0,0.0,0.0,0.0,0.0,0.0,0.0,0.0,0.0,0.0,0.0,0.0,0.0,0.0,0.0,0.0,0.0,0.0,0.0,0.0,0.0,0.0,0.0,0.0,0.0,0.0,0.0,-1.1314,-1.1204,-1.1599,-1.1619,-1.1619,-1.1619,-1.1867,-1.2158,-1.2581,-1.2812,-1.3167,-1.3514,-1.3514,-1.3514,-1.3514,-1.3514,-1.3213,-1.2681,-1.2474,-1.2088,-1.1636,-1.1427,-1.1287,-1.1287,-1.1287,-1.1287,-1.1294,-1.1335,-1.1348,-1.1355,0.0,0.0,0.08,0.0706,0.0744,0.0736,0.069,0.0665,0.0648,0.0,0.0,0.0,0.0982,0.114,0.1275,0.1358,0.1326,0.1302,0.1284,0.1256,0.1254,0.1278,0.1459,0.1548,0.1542,0.1542,0.1287,0.0707,0.0564,0.0076,-0.0723,-0.0741,-0.0947,-0.1306,-0.2142,-0.2459,-0.2432,-0.3118,-0.3642,-0.3967,-0.3549,-0.3195,-0.2824,-0.1633,-0.1842,-0.261,-0.1371,-0.208,-0.3546,-0.2854,-0.2517,-0.2406,-0.3042,-0.3193,-0.3196,-0.3398,-0.3654,-0.3837,-0.3652,-0.392,-0.4253,-0.4366,0.0,0.0,0.0,-0.6087,0.0,0.0,0.0,0.0,0.0,0.0,0.0,0.0,0.0,0.0,0.0,0.0,0.0,0.0,0.0,0.0,0.0,0.0,0.0,0.0,-1.1341,-1.1314,-1.1511,-1.1525,-1.1497,-1.143,-1.1832,-1.2201,-1.241,-1.2865,-1.3162,-1.3368,-1.3368,-1.3368,-1.3368,-1.3368,-1.3122,-1.271,-1.2301,-1.1923,-1.145,-1.1111,-1.105,-1.1234,-1.1234,-1.1234,-1.1234,-1.1234,-1.1234,-1.1234,0.0,0.0,0.0693,0.0651,0.0659,0.0714,0.0621,0.061,0.0602,0.0,0.0641,0.0766,0.0935,0.1006,0.1087,0.1263,0.1295,0.1309,0.1312,0.1234,0.1236,0.1387,0.1389,0.1479,0.1641,0.1504,0.1382,0.1415,0.1266,0.0858,0.022,0.0225,-0.0152,-0.0834,-0.0945,-0.1034,-0.1178,-0.1398,-0.2091,-0.2972,-0.2404,-0.2248,-0.2187,0.0067,-0.0668,-0.2454,0.0142,-0.1539,-0.4516,-0.1791,-0.1384,-0.204,-0.2273,-0.235,-0.2571,-0.3436,-0.3757,-0.3824,-0.3612,-0.3675,-0.3833,-0.3833,-0.4033,0.0,-0.5069,-0.6058,0.0,0.0,0.0,0.0,0.0,0.0,0.0,0.0,0.0,0.0,0.0,0.0,0.0,0.0,0.0,0.0,0.0,0.0,-1.1389,-1.1389,-1.1518,-1.1538,-1.1396,-1.1375,-1.1301,-1.1165,-1.1902,-1.2239,-1.2239,-1.2977,-1.3311,-1.3311,-1.3311,-1.3311,-1.3311,-1.3311,-1.3086,-1.2598,-1.2187,-1.1703,-1.1247,-1.085,-1.0873,-1.1111,-1.1111,-1.1111,-1.1111,-1.1111,-1.1111,-1.1111,0.0135,0.0135,0.0138,0.0144,0.0142,0.0141,0.0146,0.0142,0.014,0.0142,0.0335,0.0537,0.0802,0.0985,0.1117,0.1215,0.1285,0.134,0.1363,0.1268,0.1198,0.1241,0.1376,0.1457,0.1392,0.1385,0.1406,0.1413,0.1269,0.1111,0.0978,0.1041,0.0975,0.0818,0.0115,-0.023,-0.0314,-0.1091,-0.1188,-0.084,-0.1091,-0.1177,-0.1129,-0.0135,0.0,-0.0262,0.0071,-0.0142,-0.0613,-0.0679,-0.1502,-0.2497,-0.2028,-0.1865,-0.1892,-0.2623,-0.2906,-0.3107,-0.3741,-0.3915,-0.394,-0.394,-0.3952,0.0,-0.4155,-0.4344,0.0,0.0,0.0,0.0,0.0,0.0,0.0,0.0,0.0,0.0,0.0,0.0,0.0,0.0,0.0,0.0,0.0,0.0,-1.1389,-1.1389,-1.1416,-1.1423,-1.1396,-1.1274,-1.1261,-1.1234,-1.1733,-1.2075,-1.2075,-1.261,-1.2938,-1.2938,-1.2938,-1.2938,-1.2938,-1.2938,-1.2855,-1.2757,-1.2094,-1.1806,-1.1644,-1.0982,-1.0751,-1.0806,-1.0806,-1.0806,-1.0806,-1.0806,-1.0806,-1.0806,0.0,0.0,0.0,0.0,0.0,0.0,0.0,0.0,0.0,0.0,0.0102,0.0309,0.0557,0.0707,0.0796,0.0957,0.1073,0.1146,0.116,0.1175,0.1191,0.1145,0.1231,0.1296,0.1262,0.1244,0.1253,0.1287,0.1231,0.121,0.119,0.1275,0.1305,0.1277,0.0808,0.0618,0.0598,0.0118,0.0,0.0141,-0.0545,-0.0597,-0.0255,-0.0069,0.007,0.0207,0.0072,0.0144,0.0141,-0.0864,-0.1037,-0.095,-0.1087,-0.0924,-0.1046,-0.2376,-0.2465,-0.2412,-0.3787,-0.3426,-0.2941,-0.3856,-0.3687,0.0,0.0,-0.4417,-0.469,0.0,0.0,0.0,0.0,0.0,0.0,0.0,0.0,0.0,0.0,0.0,0.0,0.0,0.0,0.0,0.0,0.0,-1.0852,-1.1274,-1.1274,-1.1246,-1.1172,-1.1097,-1.1023,-1.0948,-1.1545,-1.1903,-1.1903,-1.2351,-1.2576,-1.2576,-1.2371,-1.2305,-1.2305,-1.2305,-1.2305,-1.2246,-1.171,-1.1512,-1.1446,-1.0916,-1.0717,-1.0717,-1.0717,-1.0717,-1.0717,-1.0717,-1.0717,-1.0717,0.0,0.0,0.0,0.0,0.0,0.0,0.0,0.0,0.0,0.0,0.0,0.0108,0.0312,0.0363,0.0458,0.0628,0.0827,0.0914,0.0904,0.1076,0.1146,0.1151,0.1141,0.1147,0.1202,0.1147,0.114,0.1185,0.1196,0.1203,0.1203,0.1261,0.1305,0.1291,0.1236,0.1219,0.1208,0.1198,0.0934,0.0482,-0.0225,-0.0182,0.0316,0.007,0.0,0.0,0.0,0.0,-0.0144,-0.1054,-0.0386,0.0707,0.012,0.0114,-0.0054,-0.1853,-0.1794,-0.155,-0.3264,-0.258,-0.1758,-0.3269,-0.3031,-0.2744,0.0,0.0,0.0,-0.4898,0.0,0.0,0.0,0.0,0.0,0.0,0.0,0.0,0.0,0.0,0.0,0.0,0.0,0.0,0.0,0.0,-0.9825,-1.0714,-1.0681,-1.069,-1.0705,-1.0698,-1.0712,-1.079,-1.138,-1.171,-1.1776,-1.2048,-1.2173,-1.2173,-1.1909,-1.1776,-1.1776,-1.1776,-1.1776,-1.1776,-1.138,-1.1181,-1.1181,-1.085,-1.0717,-1.0717,-1.0717,-1.0717,-1.0717,-1.0717,-1.0717,-1.0717,0.0,0.0,0.0,0.0,0.0,0.0,0.0,0.0,0.0,0.0,0.0,0.0,0.0061,0.0279,0.0433,0.0415,0.0581,0.072,0.0983,0.0946,0.1019,0.1285,0.1216,0.119,0.1203,0.1133,0.1106,0.112,0.1175,0.1203,0.1203,0.1201,0.1232,0.13,0.1227,0.1101,0.0956,0.0979,0.0738,0.0345,0.0301,0.0176,0.0056,0.0,0.0,0.0,0.0,0.0,0.0,0.0136,0.0268,0.0528,0.097,0.1093,0.0886,0.0105,-0.0101,-0.0292,-0.1379,-0.1465,-0.1364,-0.1659,-0.165,-0.1535,-0.1576,0.0,-0.1724,-0.1578,0.0,0.0,0.0,0.0,0.0,0.0,0.0,0.0,0.0,0.0,0.0,0.0,0.0,0.0,0.0,0.0,0.0,-0.905,-0.8824,-0.9045,-0.9794,-0.9806,-1.0266,-1.1115,-1.1247,-1.1446,-1.1776,-1.1843,-1.185,-1.185,-1.185,-1.1776,-1.1776,-1.1776,-1.1776,-1.1776,-1.138,-1.1181,-1.1181,-1.085,-1.0717,-1.0717,-1.0717,-1.0717,-1.0717,-1.0717,-1.0717,-1.0717,0.0,0.0,0.0,0.0,0.0,0.0,0.0,0.0,0.0,0.0,0.0,0.0,0.0,0.012,0.0178,0.0191,0.0297,0.0498,0.058,0.0682,0.082,0.1042,0.1036,0.1101,0.1257,0.1155,0.1115,0.1102,0.1181,0.1203,0.1203,0.1197,0.1238,0.1283,0.1095,0.101,0.0956,0.0834,0.0591,0.033,0.0338,0.0221,0.0,0.0,0.0,0.0,0.0,0.0,0.0,0.0,0.0461,0.0,0.1049,0.1361,0.1458,0.0628,0.0642,0.0647,-0.0888,-0.0447,0.0149,-0.1045,-0.0908,-0.0624,-0.1144,-0.1285,-0.13,0.0,0.0,0.0,0.0,0.0,0.0,0.0,0.0,0.0,0.0,0.0,0.0,0.0,0.0,0.0,0.0,0.0,0.0,0.0,0.0,-0.8221,-0.857,-0.88,-0.9352,-1.0388,-1.0388,-1.0783,-1.1501,-1.1307,-1.1242,-1.1242,-1.1049,-1.0962,-1.1047,-1.1047,-1.1096,-1.1115,-1.0982,-1.0916,-1.0916,-1.0784,-1.0717,-1.0717,-1.0717,-1.0717,-1.0717,-1.0717,-1.0717,-1.0717,0.0,0.0,0.0,0.0,0.0,0.0,0.0,0.0,0.0,0.0,0.0,0.0,0.0,0.0,0.0,0.0,0.013,0.0247,0.0293,0.0431,0.0607,0.084,0.0902,0.1002,0.1205,0.1134,0.1103,0.1086,0.1142,0.1195,0.1203,0.1181,0.1181,0.1198,0.0994,0.0863,0.0785,0.0637,0.0414,0.0225,0.0229,0.0115,0.0,0.0,0.0,0.0,0.0,0.0,0.0,0.0065,0.0458,0.0,0.0952,0.0,0.1459,0.0797,0.0978,0.1115,-0.021,0.0,0.0,0.0,0.0,0.0,0.0,0.0,0.0,0.0,0.0,0.0,0.0,0.0,-0.0777,-0.0477,0.0,0.0,0.0,0.0,0.0,0.0,0.0,0.0,0.0,0.0,0.0,0.0,0.0,0.0,-0.7089,-0.7434,-0.8187,-0.95,-0.9246,-0.9627,-1.0587,-1.0015,-0.9952,-1.0531,-1.0276,-1.0331,-1.0561,-1.0561,-1.0558,-1.0602,-1.0602,-1.0602,-1.0602,-1.0643,-1.0656,-1.0663,-1.0704,-1.0717,-1.0717,-1.0717,-1.0717,-1.0717,0.0,0.0,0.0,0.0,0.0,0.0,0.0,0.0,0.0,0.0,0.0,0.0,0.0,0.0,0.0,0.0,0.0,0.0066,0.0258,0.0308,0.0414,0.0687,0.0869,0.0981,0.0899,0.1109,0.1181,0.1086,0.1087,0.1137,0.1202,0.1137,0.1048,0.0913,0.0916,0.0701,0.0346,0.0377,0.024,0.0,0.0,0.0,0.0,0.0,0.0,0.0,0.0,0.0,0.0,0.0274,0.0403,0.0,0.0,0.0,0.0,0.0,0.0,0.0,0.0,0.0,0.0,0.1496,0.0,0.0,0.0,0.0,0.137,0.0,0.0,0.0,0.1231,0.065,0.0396,0.1094,-0.0199,0.0,0.0,0.0,0.0,0.0,0.0,0.0,0.0,0.0,0.0,0.0,0.0,0.0,-0.5261,-0.5705,-0.6769,-0.8788,-0.7901,-0.7837,-0.8857,-0.7576,-0.7896,-0.9825,-0.9825,-1.0143,-1.0792,-1.0792,-1.0608,-1.0297,-1.0297,-1.0297,-1.0304,-1.0439,-1.05,-1.0514,-1.0663,-1.0717,-1.0717,-1.0717,-1.0717,-1.0717,0.0,0.0,0.0,0.0,0.0,0.0,0.0,0.0,0.0,0.0,0.0,0.0,0.0,0.0,0.0,0.0,0.0,0.0,0.007,0.0135,0.0197,0.052,0.0514,0.0624,0.0758,0.079,0.076,0.0719,0.0757,0.0791,0.0785,0.0778,0.0745,0.0683,0.0567,0.0447,0.0302,0.0165,0.006,0.0,0.0,0.0,0.0,0.0,0.0,0.0,0.0,0.0,0.0,0.0139,0.0278,0.0495,0.0685,0.08,0.0857,0.1026,0.0916,0.0,0.0,0.0,0.1115,0.1317,0.0,0.0,0.0,0.0,0.0,0.0,0.0,0.0,0.1317,0.1109,0.1013,0.1245,0.0806,0.0503,0.0,0.0,0.0,0.0,0.0,0.0,0.0,0.0,0.0,0.0,0.0,0.0,0.0,-0.3382,-0.4321,-0.5631,-0.5255,-0.5866,-0.7542,-0.6234,-0.6239,-0.7547,-0.686,-0.7209,-0.8352,-0.8352,-0.9097,-1.027,-1.027,-1.0397,-1.0601,-1.065,-1.0598,-1.0493,-1.0548,-1.0629,-1.0717,-1.0717,-1.0717,-1.0717,0.0,0.0,0.0,0.0,0.0,0.0,0.0,0.0,0.0,0.0,0.0,0.0,0.0,0.0,0.0,0.0,0.0,0.0,0.0,0.0,0.0068,0.0284,0.0314,0.0405,0.0574,0.0624,0.0617,0.0525,0.0575,0.0557,0.0598,0.0572,0.0523,0.0487,0.0363,0.0265,0.0196,0.0056,0.0,0.0,0.0,0.0,0.0,0.0,0.0,0.0,0.0,0.0,0.0,0.0,0.0143,0.0364,0.0356,0.0491,0.0627,0.0715,0.0619,0.0523,0.0724,0.0731,0.0,0.11,0.113,0.0,0.1442,0.0,0.0,0.0,0.0,0.0,0.0,0.1205,0.1304,0.1167,0.1218,0.1284,0.0,0.111,0.0,0.0,0.0,0.0,0.0,0.0,-0.0622,-0.1013,0.0,0.0,0.0,0.0,-0.2614,-0.3689,-0.3379,-0.3977,-0.5468,-0.4303,-0.4364,-0.5655,-0.5039,-0.5371,-0.6478,-0.6478,-0.7448,-0.9093,-0.9093,-0.9412,-0.9988,-1.0238,-1.0249,-1.0024,-1.0388,-1.0555,-1.0643,-1.0704,-1.0717,-1.0717,0.0,0.0,0.0,0.0,0.0,0.0,0.0,0.0,0.0,0.0,0.0,0.0,0.0,0.0,0.0,0.0,0.0,0.0,0.0,0.0,0.0,0.0,0.0262,0.0373,0.0269,0.0519,0.063,0.0574,0.0492,0.0503,0.0566,0.0504,0.0402,0.0292,0.0276,0.0169,0.0,0.0,0.0,0.0,0.0,0.0,0.0,0.0,0.0,0.0,0.0,0.0,0.0,0.0,0.0,0.0,0.0,0.0,0.0,0.0,0.0,0.0071,0.0416,0.0482,0.0542,0.0822,0.0,0.0,0.0,0.0,0.114,0.0,0.0,0.0,0.0,0.1016,0.1276,0.0994,0.1142,0.1258,0.114,0.1145,0.0,0.0,0.0,0.0,0.0,0.0815,0.0937,0.0114,0.0905,0.0785,0.0,0.0,0.0,-0.2796,-0.2223,-0.2235,-0.2895,-0.1906,-0.2396,-0.4239,-0.4177,-0.4545,-0.5219,-0.5219,-0.5831,-0.6813,-0.6874,-0.7429,-0.8366,-0.9236,-0.9361,-0.9137,-1.0108,-1.0487,-1.0521,-1.0663,-1.0717,-1.0717,0.0,0.0,0.0,0.0,0.0,0.0,0.0,0.0,0.0,0.0,0.0,0.0,0.0,0.0,0.0,0.0,0.0,0.0,0.0,0.0,0.0,0.0,0.0075,0.0072,0.0069,0.0129,0.0181,0.0168,0.0148,0.0136,0.0133,0.0121,0.0112,0.0071,0.0078,0.0042,0.0,0.0,0.0,0.0,0.0,0.0,0.0,0.0,0.0,0.0,0.0,0.0,0.0,0.0,0.0,0.0,0.0,0.0,0.0,0.0,0.0,0.0,0.0072,0.0143,0.0211,0.0541,0.0584,0.062,0.0,0.0,0.0,0.0,0.0,0.0,0.0,0.0,0.1077,0.13,0.13,0.1281,0.1202,0.1157,0.0,0.1182,0.0,0.0,0.0,0.1102,0.1145,0.0971,0.1135,0.0,0.0,0.0,0.0,-0.0549,-0.0544,-0.096,-0.1847,-0.0894,-0.1013,-0.2216,-0.1479,-0.1725,-0.2895,-0.2895,-0.3812,-0.546,-0.6446,-0.7062,-0.7368,-0.8506,-0.8767,-0.8443,-0.9303,-1.0006,-1.0663,-1.0704,-1.0717,-1.0717,0.0,0.0,0.0,0.0,0.0,0.0,0.0,0.0,0.0,0.0,0.0,0.0,0.0,0.0,0.0,0.0,0.0,0.0,0.0,0.0,0.0,0.0,0.0,0.0,0.0,0.0,0.0,0.0,0.0,0.0,0.0,0.0,0.0,0.0,0.0,0.0,0.0,0.0,0.0,0.0,0.0,0.0,0.0,0.0,0.0,0.0,0.0,0.0,0.0,0.0,0.0,0.0,0.0,0.0,0.0,0.0,0.0,0.0,0.0,0.0,0.0071,0.0209,0.027,0.0325,0.0627,0.0675,0.0603,0.0,0.0,0.0,0.0,0.0,0.0,0.1372,0.1362,0.1275,0.1212,0.1183,0.1194,0.0,0.1237,0.0,0.0,0.0,0.0,0.0,0.0,0.0,0.0,0.0,0.0,0.0,0.0052,-0.0274,-0.0812,-0.0282,-0.0285,-0.0838,-0.0299,-0.0424,-0.1111,-0.1111,-0.2033,-0.3689,-0.4426,-0.4977,-0.5471,-0.694,-0.7291,-0.7055,-0.835,-0.9222,-0.9854,-1.012,-1.0452,-1.0717,0.0,0.0,0.0,0.0,0.0,0.0,0.0,0.0,0.0,0.0,0.0,0.0,0.0,0.0,0.0,0.0,0.0,0.0,0.0,0.0,0.0,0.0,0.0,0.0,0.0,0.0,0.0,0.0,0.0,0.0,0.0,0.0,0.0,0.0,0.0,0.0,0.0,0.0,0.0,0.0,0.0,0.0,0.0,0.0,0.0,0.0,0.0,0.0,0.0,0.0,0.0,0.0,0.0,0.0,0.0,0.0,0.0,0.0,0.0,0.0,0.0,0.0,0.0,0.0068,0.0262,0.0325,0.0325,0.0325,0.0571,0.0,0.0,0.0,0.0,0.1183,0.1208,0.1208,0.1113,0.1159,0.1187,0.1154,0.0,0.0,0.0,0.0,0.0,0.0,0.0,0.0,0.0,0.0,0.0,0.0,0.0,0.0,0.0,0.0,0.0,0.0,0.0,0.0,0.0,0.0,-0.0617,-0.1726,-0.1911,-0.2466,-0.3264,-0.4862,-0.5486,-0.5582,-0.739,-0.8313,-0.8656,-0.9316,-0.9915,-1.0452,0.0,0.0,0.0,0.0,0.0,0.0,0.0,0.0,0.0,0.0,0.0,0.0,0.0,0.0,0.0,0.0,0.0,0.0,0.0,0.0,0.0,0.0,0.0,0.0,0.0,0.0,0.0,0.0,0.0,0.0,0.0,0.0,0.0,0.0,0.0,0.0,0.0,0.0,0.0,0.0,0.0,0.0,0.0,0.0,0.0,0.0,0.0,0.0,0.0,0.0,0.0,0.0,0.0,0.0,0.0,0.0,0.0,0.0,0.0,0.0,0.0,0.0,0.0,0.0,0.0067,0.0067,0.0067,0.0067,0.0131,0.0191,0.0314,0.0,0.0,0.0,0.0,0.0778,0.0703,0.0703,0.0759,0.094,0.0947,0.0,0.0,0.0,0.0,0.0,0.0,0.0,0.0,0.0,0.0,0.0,0.0,0.0,0.0,0.0,0.0,0.0,0.0,0.0,0.0,0.0,-0.0123,-0.0432,-0.1541,-0.1911,-0.1911,-0.3018,-0.4247,-0.5492,-0.6869,-0.7922,-0.859,-0.8717,-0.8856,-0.9123,0.0,0.0,0.0,0.0,0.0,0.0,0.0,0.0,0.0,0.0,0.0,0.0,0.0,0.0,0.0,0.0,0.0,0.0,0.0,0.0,0.0,0.0,0.0,0.0,0.0,0.0,0.0,0.0,0.0,0.0,0.0,0.0,0.0,0.0,0.0,0.0,0.0,0.0,0.0,0.0,0.0,0.0,0.0,0.0,0.0,0.0,0.0,0.0,0.0,0.0,0.0,0.0,0.0,0.0,0.0,0.0,0.0,0.0,0.0,0.0,0.0,0.0,0.0,0.0,0.0,0.0,0.0,0.0,0.0,0.0064,0.0304,0.0452,0.0,0.0,0.0,0.0,0.0,0.0649,0.0689,0.0749,0.0784,0.0815,0.0,0.0,0.0,0.0,0.0,0.0,0.0,0.0,0.0,0.0,0.0,0.0,0.0,0.0,0.0,0.0,0.0,0.0,0.0,0.0,0.0,-0.0062,-0.0679,-0.0864,-0.0802,-0.1602,-0.2759,-0.3989,-0.5212,-0.5958,-0.651,-0.765,-0.8051,-0.8251,0.0,0.0,0.0,0.0,0.0,0.0,0.0,0.0,0.0,0.0,0.0,0.0,0.0,0.0,0.0,0.0,0.0,0.0,0.0,0.0,0.0,0.0,0.0,0.0,0.0,0.0,0.0,0.0,0.0,0.0,0.0,0.0,0.0,0.0,0.0,0.0,0.0,0.0,0.0,0.0,0.0,0.0,0.0,0.0,0.0,0.0,0.0,0.0,0.0,0.0,0.0,0.0,0.0,0.0,0.0,0.0,0.0,0.0,0.0,0.0,0.0,0.0,0.0,0.0,0.0,0.0,0.0,0.0,0.0,0.0064,0.0236,0.0226,0.0,0.0,0.0,0.0,0.0,0.0,0.0566,0.0523,0.0578,0.0611,0.0,0.0,0.0,0.0,0.0,0.0,0.0234,0.0255,0.0,0.0,0.0,0.0,0.0,0.0,0.0,0.0,0.0,0.0,0.0,0.0,0.0,0.0,0.0,0.0062,0.0062,-0.0802,-0.1506,-0.2319,-0.3413,-0.4063,-0.4501,-0.6176,-0.7045,-0.745,0.0,0.0,0.0,0.0,0.0,0.0,0.0,0.0,0.0,0.0,0.0,0.0,0.0,0.0,0.0,0.0,0.0,0.0,0.0,0.0,0.0,0.0,0.0,0.0,0.0,0.0,0.0,0.0,0.0,0.0,0.0,0.0,0.0,0.0,0.0,0.0,0.0,0.0,0.0,0.0,0.0,0.0,0.0,0.0,0.0,0.0,0.0,0.0,0.0,0.0,0.0,0.0,0.0,0.0,0.0,0.0,0.0,0.0,0.0,0.0,0.0,0.0,0.0,0.0,0.0,0.0,0.0,0.0,0.0,0.0,0.0,0.0,0.0055,0.0,0.0,0.0,0.0,0.0,0.0131,0.0305,0.0337,0.0369,0.0,0.0,0.0,0.0,0.0,0.0,0.0297,0.0248,0.0,0.0,0.0,0.0,0.0,0.0,0.0,0.0,0.0,0.0,0.0,0.0,0.0,0.0,0.0,0.0185,0.037,-0.0925,-0.1192,-0.0903,-0.2254,-0.3408,-0.43,-0.4501,-0.5443,-0.6719,0.0,0.0,0.0,0.0,0.0,0.0,0.0,0.0,0.0,0.0,0.0,0.0,0.0,0.0,0.0,0.0,0.0,0.0,0.0,0.0,0.0,0.0,0.0,0.0,0.0,0.0,0.0,0.0,0.0,0.0,0.0,0.0,0.0,0.0,0.0,0.0,0.0,0.0,0.0,0.0,0.0,0.0,0.0,0.0,0.0,0.0,0.0,0.0,0.0,0.0,0.0,0.0,0.0,0.0,0.0,0.0,0.0,0.0,0.0,0.0,0.0,0.0,0.0,0.0,0.0,0.0,0.0,0.0,0.0,0.0,0.0,0.0,0.0,0.0,0.0,0.0,0.0,0.0,0.0,0.0097,0.0139,0.0135,0.0,0.0,0.0,0.0,0.0,0.0,0.0,0.0,0.0,0.0,0.0,0.0,0.0,0.0,0.0,0.0,0.0,0.0,0.0,0.0,0.0,0.0,0.0,0.0062,0.0185,-0.0185,0.0,0.0322,-0.0902,-0.1508,-0.1814,-0.2685,-0.3895,-0.5242,0.0,0.0,0.0,0.0,0.0,0.0,0.0,0.0,0.0,0.0,0.0,0.0,0.0,0.0,0.0,0.0,0.0,0.0,0.0,0.0,0.0,0.0,0.0,0.0,0.0,0.0,0.0,0.0,0.0,0.0,0.0,0.0,0.0,0.0,0.0,0.0,0.0,0.0,0.0,0.0,0.0,0.0,0.0,0.0,0.0,0.0,0.0,0.0,0.0,0.0,0.0,0.0,0.0,0.0,0.0,0.0,0.0,0.0,0.0,0.0,0.0,0.0,0.0,0.0,0.0,0.0,0.0,0.0,0.0,0.0,0.0,0.0,0.0,0.0,0.0,0.0,0.0,0.0,0.0,0.0,0.0,0.0,0.0,0.0,0.0,0.0,0.0,0.0,0.0,0.0,0.0,0.0,0.0,0.0,0.0,0.0,0.0,0.0,0.0,0.0,0.0,0.0,0.0,0.0,0.0,0.0,0.0,0.0247,0.0628,0.1031,0.0193,-0.0066,-0.0134,-0.1142,-0.2417,-0.3694,0.0,0.0,0.0,0.0,0.0,0.0,0.0,0.0,0.0,0.0,0.0,0.0,0.0,0.0,0.0,0.0,0.0,0.0,0.0,0.0,0.0,0.0,0.0,0.0,0.0,0.0,0.0,0.0,0.0,0.0,0.0,0.0,0.0,0.0,0.0,0.0,0.0,0.0,0.0,0.0,0.0,0.0,0.0,0.0,0.0,0.0,0.0,0.0,0.0,0.0,0.0,0.0,0.0,0.0,0.0,0.0,0.0,0.0,0.0,0.0,0.0,0.0,0.0,0.0,0.0,0.0,0.0,0.0,0.0,0.0,0.0,0.0,0.0,0.0,0.0,0.0,0.0,0.0,0.0,0.0,0.0,0.0,0.0,0.0,0.0,0.0,0.0,0.0,0.0,0.0,0.0,0.0,0.0,0.0,0.0,0.0,0.0,0.0,0.0,0.0,0.0,0.0,0.0,0.0,0.0,0.0,0.0,0.0,0.044,0.1096,0.1096,0.0656,0.0,0.0,-0.094,-0.235,0.0,0.0,0.0,0.0,0.0,0.0,0.0,0.0,0.0,0.0,0.0,0.0,0.0,0.0,0.0,0.0,0.0,0.0,0.0,0.0,0.0,0.0,0.0,0.0,0.0,0.0,0.0,0.0,0.0,0.0,0.0,0.0,0.0,0.0,0.0,0.0,0.0,0.0,0.0,0.0,0.0,0.0,0.0,0.0,0.0,0.0,0.0,0.0,0.0,0.0,0.0,0.0,0.0,0.0,0.0,0.0,0.0,0.0,0.0,0.0,0.0,0.0,0.0,0.0,0.0,0.0,0.0,0.0,0.0,0.0,0.0,0.0,0.0,0.0,0.0,0.0,0.0,0.0,0.0,0.0,0.0,0.0,0.0,0.0,0.0,0.0,0.0,0.0,0.0,0.0,0.0,0.0,0.0,0.0,0.0,0.0,0.0,0.0,0.0,0.0,0.0,0.0,0.0,0.0,0.0,0.0,0.0,0.0,0.0251,0.071,0.071,0.0854,0.1076,0.1076,0.0336,-0.0739,0.0159,0.0,0.0,0.0,0.0,0.0,0.0,0.0,0.0,0.0,0.0,0.0,0.0,0.0,0.0,0.0,0.0,0.0,0.0,0.0,0.0,0.0,0.0,0.0,0.0,0.0,0.0,0.0,0.0,0.0,0.0,0.0,0.0,0.0,0.0,0.0,0.0,0.0,0.0,0.0,0.0,0.0,0.0,0.0,0.0,0.0,0.0,0.0,0.0,0.0,0.0,0.0,0.0,0.0,0.0,0.0,0.0,0.0,0.0,0.0,0.0,0.0,0.0,0.0,0.0,0.0,0.0,0.0,0.0,0.0,0.0,0.0,0.0,0.0,0.0,0.0,0.0,0.0,0.0,0.0,0.0,0.0,0.0,0.0,0.0,0.0,0.0,0.0,0.0,0.0,0.0,0.0,0.0,0.0,0.0,0.0,0.0,0.0,0.0,0.0,0.0,0.0,0.0,0.0,0.0,0.0,0.0,0.0,0.0189,0.0517,0.0517,0.0854,0.1414,0.1548,0.1144,0.0538,0.0502,0.0168,0.0,0.0,0.0,0.0,0.0,0.0,0.0,0.0,0.0,0.0,0.0,0.0,0.0,0.0,0.0,0.0,0.0,0.0,0.0,0.0,0.0,0.0,0.0,0.0,0.0,0.0,0.0,0.0,0.0,0.0,0.0,0.0,0.0,0.0,0.0,0.0,0.0,0.0,0.0,0.0,0.0,0.0,0.0,0.0,0.0,0.0,0.0,0.0,0.0,0.0,0.0,0.0,0.0,0.0,0.0,0.0,0.0,0.0,0.0,0.0,0.0,0.0,0.0,0.0,0.0,0.0,0.0,0.0,0.0,0.0,0.0,0.0,0.0,0.0,0.0,0.0,0.0,0.0,0.0,0.0,0.0,0.0,0.0,0.0,0.0,0.0,0.0,0.0,0.0,0.0,0.0,0.0,0.0,0.0,0.0,0.0,0.0,0.0,0.0,0.0,0.0,0.0,0.0,0.0,0.0,0.0,0.0189,0.0452,0.0452,0.0723,0.1077,0.1414,0.1548,0.1481,0.0,0.0,0.1585,0.0244,0.0,0.0,0.0,0.0,0.0,0.0,0.0,0.0,0.0,0.0,0.0,0.0,0.0,0.0,0.0,0.0,0.0,0.0,0.0,0.0,0.0,0.0,0.0,0.0,0.0,0.0,0.0,0.0,0.0,0.0,0.0,0.0,0.0,0.0,0.0,0.0,0.0,0.0,0.0,0.0,0.0,0.0,0.0,0.0,0.0,0.0,0.0,0.0,0.0,0.0,0.0,0.0,0.0,0.0,0.0,0.0,0.0,0.0,0.0,0.0,0.0,0.0,0.0,0.0,0.0,0.0,0.0,0.0,0.0,0.0,0.0,0.0,0.0,0.0,0.0,0.0,0.0,0.0,0.0,0.0,0.0,0.0,0.0,0.0,0.0,0.0,0.0,0.0,0.0,0.0,0.0,0.0,0.0,0.0,0.0,0.0,0.0,0.0,0.0,0.0,0.0,0.0,0.0,0.0,0.0063,0.0129,0.0129,0.0329,0.0673,0.0741,0.1144,0.1548,0.319,0.2703,0.2089,0.0329,0.0,0.0,0.0,0.0,0.0,0.0,0.0,0.0,0.0,0.0,0.0,0.0,0.0,0.0,0.0,0.0,0.0,0.0,0.0,0.0,0.0,0.0,0.0,0.0,0.0,0.0,0.0,0.0,0.0,0.0,0.0,0.0,0.0,0.0,0.0,0.0,0.0,0.0,0.0,0.0,0.0,0.0,0.0,0.0,0.0,0.0,0.0,0.0,0.0,0.0,0.0,0.0,0.0,0.0,0.0,0.0,0.0,0.0,0.0,0.0,0.0,0.0,0.0,0.0,0.0,0.0,0.0,0.0,0.0,0.0,0.0,0.0,0.0,0.0,0.0,0.0,0.0,0.0,0.0,0.0,0.0,0.0,0.0,0.0,0.0,0.0,0.0,0.0,0.0,0.0,0.0,0.0,0.0,0.0,0.0,0.0,0.0,0.0,0.0,0.0,0.0,0.0,0.0,0.0,0.0,0.0,0.0,0.0131,0.0269,0.0471,0.0741,0.1144,0.4197,0.3528,0.2856,0.0757,0.0421,0.0337,0.0,0.0,0.0,0.0,0.0,0.0,0.0,0.0,0.0,0.0,0.0,0.0,0.0,0.0,0.0,0.0,0.0,0.0,0.0,0.0,0.0,0.0,0.0,0.0,0.0,0.0,0.0,0.0,0.0,0.0,0.0,0.0,0.0,0.0,0.0,0.0,0.0,0.0,0.0,0.0,0.0,0.0,0.0,0.0,0.0,0.0,0.0,0.0,0.0,0.0,0.0,0.0,0.0,0.0,0.0,0.0,0.0,0.0,0.0,0.0,0.0,0.0,0.0,0.0,0.0,0.0,0.0,0.0,0.0,0.0,0.0,0.0,0.0,0.0,0.0,0.0,0.0,0.0,0.0,0.0,0.0,0.0,0.0,0.0,0.0,0.0,0.0,0.0,0.0,0.0,0.0,0.0,0.0,0.0,0.0,0.0,0.0,0.0,0.0,0.0,0.0,0.0,0.0,0.0,0.0,0.0,0.0067,0.0337,0.0471,0.0606,0.7634,0.7296,0.6208,0.2856,0.227,0.1766,0.0253,0.0,0.0,0.0,0.0,0.0,0.0,0.0,0.0,0.0,0.0,0.0,0.0,0.0,0.0,0.0,0.0,0.0,0.0,0.0,0.0,0.0,0.0,0.0,0.0,0.0,0.0,0.0,0.0,0.0,0.0,0.0,0.0,0.0,0.0,0.0,0.0,0.0,0.0,0.0,0.0,0.0,0.0,0.0,0.0,0.0,0.0,0.0,0.0,0.0,0.0,0.0,0.0,0.0,0.0,0.0,0.0,0.0,0.0,0.0,0.0,0.0,0.0,0.0,0.0,0.0,0.0,0.0,0.0,0.0,0.0,0.0,0.0,0.0,0.0,0.0,0.0,0.0,0.0,0.0,0.0,0.0,0.0,0.0,0.0,0.0,0.0,0.0,0.0,0.0,0.0,0.0,0.0,0.0,0.0,0.0,0.0,0.0,0.0,0.0,0.0,0.0,0.0,0.0,0.0,0.0,0.0,0.0067,0.0269,0.0539,0.847,0.7801,0.6878,0.4533,0.361,0.2772,0.1598,0.143,0.1093,0.0168,0.0,0.0,0.0,0.0,0.0,0.0,0.0,0.0,0.0,0.0,0.0,0.0,0.0,0.0,0.0,0.0,0.0,0.0,0.0,0.0,0.0,0.0,0.0,0.0,0.0,0.0,0.0,0.0,0.0,0.0,0.0,0.0,0.0,0.0,0.0,0.0,0.0,0.0,0.0,0.0,0.0,0.0,0.0,0.0,0.0,0.0,0.0,0.0,0.0,0.0,0.0,0.0,0.0,0.0,0.0,0.0,0.0,0.0,0.0,0.0,0.0,0.0,0.0,0.0,0.0,0.0,0.0,0.0,0.0,0.0,0.0,0.0,0.0,0.0,0.0,0.0,0.0,0.0,0.0,0.0,0.0,0.0,0.0,0.0,0.0,0.0,0.0,0.0,0.0,0.0,0.0,0.0,0.0,0.0,0.0,0.0,0.0,0.0,0.0,0.0,0.0,0.0,0.0,0.0,0.0067,0.0269,0.8975,0.8303,0.7634,0.6292,0.5287,0.4365,0.3444,0.336,0.2688,0.0842,0.0589,0.0505,0.0084,0.0,0.0,0.0,0.0,0.0,0.0,0.0,0.0,0.0,0.0,0.0,0.0,0.0,0.0,0.0,0.0,0.0,0.0,0.0,0.0,0.0,0.0,0.0,0.0,0.0,0.0,0.0,0.0,0.0,0.0,0.0,0.0,0.0,0.0,0.0,0.0,0.0,0.0,0.0,0.0,0.0,0.0,0.0,0.0,0.0,0.0,0.0,0.0,0.0,0.0,0.0,0.0,0.0,0.0,0.0,0.0,0.0,0.0,0.0,0.0,0.0,0.0,0.0,0.0,0.0,0.0,0.0,0.0,0.0,0.0,0.0,0.0,0.0,0.0,0.0,0.0,0.0,0.0,0.0,0.0,0.0,0.0,0.0,0.0,0.0,0.0,0.0,0.0,0.0,0.0,0.0,0.0,0.0,0.0,0.0,0.0,0.0,0.0,0.0,0.0,0.0,0.0,0.0067,1.057,1.0487,0.9898,0.8219,0.7801,0.7212,0.5454,0.5203,0.4533,0.2772,0.252,0.1849,0.0168,0.0,0.0,0.0,0.0,0.0,0.0,0.0,0.0,0.0,0.0,0.0,0.0,0.0,0.0,0.0,0.0,0.0,0.0,0.0,0.0,0.0,0.0,0.0,0.0,0.0,0.0,0.0,0.0,0.0,0.0,0.0,0.0,0.0,0.0,0.0,0.0,0.0,0.0,0.0,0.0,0.0,0.0,0.0,0.0,0.0,0.0,0.0,0.0,0.0,0.0,0.0,0.0,0.0,0.0,0.0,0.0,0.0,0.0,0.0,0.0,0.0,0.0,0.0,0.0,0.0,0.0,0.0,0.0,0.0,0.0,0.0,0.0,0.0,0.0,0.0,0.0,0.0,0.0,0.0,0.0,0.0,0.0,0.0,0.0,0.0,0.0,0.0,0.0,0.0,0.0,0.0,0.0,0.0,0.0,0.0,0.0,0.0,0.0,0.0,0.0,0.0,0.0,0.0067,1.0737,1.0737,1.0487,0.9815,0.9731,0.9142,0.7379,0.7045,0.6459,0.4616,0.4365,0.3696,0.1849,0.1682,0.1262,0.0084,0.0,0.0,0.0,0.0,0.0,0.0,0.0,0.0,0.0,0.0,0.0,0.0,0.0,0.0,0.0,0.0,0.0,0.0,0.0,0.0,0.0,0.0,0.0,0.0,0.0,0.0,0.0,0.0,0.0,0.0,0.0,0.0,0.0,0.0,0.0,0.0,0.0,0.0,0.0,0.0,0.0,0.0,0.0,0.0,0.0,0.0,0.0,0.0,0.0,0.0,0.0,0.0,0.0,0.0,0.0,0.0,0.0,0.0,0.0,0.0,0.0,0.0,0.0,0.0,0.0,0.0,0.0,0.0,0.0,0.0,0.0,0.0,0.0,0.0,0.0,0.0,0.0,0.0,0.0,0.0,0.0,0.0,0.0,0.0,0.0,0.0,0.0,0.0,0.0,0.0,0.0,0.0,0.0,0.0,0.0,0.0,0.0,0.0,0.0,0.0,1.0737,1.0737,1.0737,1.0737,1.0737,1.0315,0.9059,0.8892,0.8303,0.6459,0.6208,0.5538,0.3778,0.3528,0.2856,0.101,0.0842,0.0589,0.0,0.0,0.0,0.0,0.0,0.0,0.0,0.0,0.0,0.0,0.0,0.0,0.0,0.0,0.0,0.0,0.0,0.0,0.0,0.0,0.0,0.0,0.0,0.0,0.0,0.0,0.0,0.0,0.0,0.0,0.0,0.0,0.0,0.0,0.0,0.0,0.0,0.0,0.0,0.0,0.0,0.0,0.0,0.0,0.0,0.0,0.0,0.0,0.0,0.0,0.0,0.0,0.0,0.0,0.0,0.0,0.0,0.0,0.0,0.0,0.0,0.0,0.0,0.0,0.0,0.0,0.0,0.0,0.0,0.0,0.0,0.0,0.0,0.0,0.0,0.0,0.0,0.0,0.0,0.0,0.0,0.0,0.0,0.0,0.0,0.0,0.0,0.0,0.0,0.0,0.0,0.0,0.0,0.0,0.0,0.0,0.0,0.0,1.0737,1.0737,1.0737,1.0737,1.0737,1.0737,1.0737,1.0737,1.0065,0.8386,0.8136,0.7463,0.5622,0.5454,0.47,0.2856,0.2688,0.1933,0.0084,0.0,0.0,0.0,0.0,0.0,0.0,0.0,0.0,0.0,0.0,0.0,0.0,0.0,0.0,0.0,0.0,0.0,0.0,0.0,0.0,0.0,0.0,0.0,0.0,0.0,0.0,0.0,0.0,0.0,0.0,0.0,0.0,0.0,0.0,0.0,0.0,0.0,0.0,0.0,0.0,0.0,0.0,0.0,0.0,0.0,0.0,0.0,0.0,0.0,0.0,0.0,0.0,0.0,0.0,0.0,0.0,0.0,0.0,0.0,0.0,0.0,0.0,0.0,0.0,0.0,0.0,0.0,0.0,0.0,0.0,0.0,0.0,0.0,0.0,0.0,0.0,0.0,0.0,0.0,0.0,0.0,0.0,0.0,0.0,0.0,0.0,0.0,0.0,0.0,0.0,0.0,0.0,0.0,0.0,0.0,0.0,0.0,1.0737,1.0737,1.0737,1.0737,1.0737,1.0737,1.0737,1.0737,1.0487,0.9981,0.9898,0.9226,0.7467,0.7296,0.6543,0.4784,0.3444,0.1933,0.0084,0.0,0.0,0.0,0.0,0.0,0.0,0.0,0.0,0.0,0.0,0.0,0.0,0.0,0.0,0.0,0.0,0.0,0.0,0.0,0.0,0.0,0.0,0.0,0.0,0.0,0.0,0.0,0.0,0.0,0.0,0.0,0.0,0.0,0.0,0.0,0.0,0.0,0.0,0.0,0.0,0.0,0.0,0.0,0.0,0.0,0.0,0.0,0.0,0.0,0.0,0.0,0.0,0.0,0.0,0.0,0.0,0.0,0.0,0.0,0.0,0.0,0.0,0.0,0.0,0.0,0.0,0.0,0.0,0.0,0.0,0.0,0.0,0.0,0.0,0.0,0.0,0.0,0.0,0.0,0.0,0.0,0.0,0.0,0.0,0.0,0.0,0.0,0.0,0.0,0.0,0.0,0.0,0.0,0.0,0.0,0.0,0.0,1.0654,1.0737,1.0737,1.0737,1.0737,1.0737,1.0737,1.0737,1.0737,1.0737,1.0737,1.0315,0.9226,0.9142,0.8386,0.6627,0.4784,0.3276,0.2186,0.2102,0.185,0.1093,0.1093,0.0757,0.0,0.0,0.0,0.0,0.0,0.0,0.0,0.0,0.0,0.0,0.0,0.0,0.0,0.0,0.0,0.0,0.0,0.0,0.0,0.0,0.0,0.0,0.0,0.0,0.0,0.0,0.0,0.0,0.0,0.0,0.0,0.0,0.0,0.0,0.0,0.0,0.0,0.0,0.0,0.0,0.0,0.0,0.0,0.0,0.0,0.0,0.0,0.0,0.0,0.0,0.0,0.0,0.0,0.0,0.0,0.0,0.0,0.0,0.0,0.0,0.0,0.0,0.0,0.0,0.0,0.0,0.0,0.0,0.0,0.0,0.0,0.0,0.0,0.0,0.0,0.0,0.0,0.0,0.0,0.0,0.0,0.0,0.0,0.0,0.0,0.0,0.0,0.0,0.0,0.0,0.0,0.0,1.0654,1.0737,1.0737,1.0737,1.0737,1.0737,1.0737,1.0737,1.0737,1.0737,1.0737,1.0737,1.0737,1.0737,1.0065,0.847,0.671,0.5538,0.5371,0.5371,0.47,0.3024,0.294,0.2186,0.0505,0.0168,0.0,0.0,0.0,0.0,0.0,0.0,0.0,0.0,0.0,0.0,0.0,0.0,0.0,0.0,0.0,0.0,0.0,0.0,0.0,0.0,0.0,0.0,0.0,0.0,0.0,0.0,0.0,0.0,0.0,0.0,0.0,0.0,0.0,0.0,0.0,0.0,0.0,0.0,0.0,0.0,0.0,0.0,0.0,0.0,0.0,0.0,0.0,0.0,0.0,0.0,0.0,0.0,0.0,0.0,0.0,0.0,0.0,0.0,0.0,0.0,0.0,0.0,0.0,0.0,0.0,0.0,0.0,0.0,0.0,0.0,0.0,0.0,0.0,0.0,0.0,0.0,0.0,0.0,0.0,0.0,0.0,0.0,0.0,0.0,0.0,0.0,0.0,0.0,0.0,0.0,1.1237,1.0987,1.0737,1.0737,1.0737,1.0737,1.0737,1.0737,1.0737,1.0737,1.0737,1.0737,1.0737,1.0737,1.057,1.0148,0.8553,0.6878,0.5454,0.5371,0.5203,0.4868,0.4784,0.4616,0.4197,0.143,0.0,0.0,0.0,0.0,0.0,0.0,0.0,0.0,0.0,0.0,0.0,0.0,0.0,0.0,0.0,0.0,0.0,0.0,0.0,0.0,0.0,0.0,0.0,0.0,0.0,0.0,0.0,0.0,0.0,0.0,0.0,0.0,0.0,0.0,0.0,0.0,0.0,0.0,0.0,0.0,0.0,0.0,0.0,0.0,0.0,0.0,0.0,0.0,0.0,0.0,0.0,0.0,0.0,0.0,0.0,0.0,0.0,0.0,0.0,0.0,0.0,0.0,0.0,0.0,0.0,0.0,0.0,0.0,0.0,0.0,0.0,0.0,0.0,0.0,0.0,0.0,0.0,0.0,0.0,0.0,0.0,0.0,0.0,0.0,0.0,0.0,0.0,0.0,0.0,0.0,1.1403,1.1237,1.0987,1.0737,1.0737,1.0737,1.0737,1.0737,1.0737,1.0737,1.0737,1.0737,1.0737,1.0737,1.0737,1.0737,0.9898,0.8971,0.7968,0.7968,0.7547,0.671,0.671,0.6292,0.5454,0.3528,0.2186,0.1262,0.1262,0.0842,0.0,0.0,0.0,0.0,0.0,0.0,0.0,0.0,0.0,0.0,0.0,0.0,0.0,0.0,0.0,0.0,0.0,0.0,0.0,0.0,0.0,0.0,0.0,0.0,0.0,0.0,0.0,0.0,0.0,0.0,0.0,0.0,0.0,0.0,0.0,0.0,0.0,0.0,0.0,0.0,0.0,0.0,0.0,0.0,0.0,0.0,0.0,0.0,0.0,0.0,0.0,0.0,0.0,0.0,0.0,0.0,0.0,0.0,0.0,0.0,0.0,0.0,0.0,0.0,0.0,0.0,0.0,0.0,0.0,0.0,0.0,0.0,0.0,0.0,0.0,0.0,0.0,0.0,0.0,0.0,0.0,0.0,0.0,0.0,0.0,0.0,1.1653,1.1653,1.1486,1.107,1.1153,1.1153,1.0987,1.0904,1.0904,1.0737,1.0737,1.0737,1.0737,1.0737,1.0737,1.0737,1.0737,1.0737,1.0737,1.0737,1.0148,0.8804,0.8637,0.7885,0.6543,0.6376,0.5287,0.3192,0.3192,0.227,0.0421,0.0421,0.0337,0.0,0.0,0.0,0.0,0.0,0.0,0.0,0.0,0.0,0.0,0.0,0.0,0.0,0.0,0.0,0.0,0.0,0.0,0.0,0.0,0.0,0.0,0.0,0.0,0.0,0.0,0.0,0.0,0.0,0.0,0.0,0.0,0.0,0.0,0.0,0.0,0.0,0.0,0.0,0.0,0.0,0.0,0.0,0.0,0.0,0.0,0.0,0.0,0.0,0.0,0.0,0.0,0.0,0.0,0.0,0.0,0.0,0.0,0.0,0.0,0.0,0.0,0.0,0.0,0.0,0.0,0.0,0.0,0.0,0.0,0.0,0.0,0.0,0.0,0.0,0.0,0.0,0.0,0.0,0.0,0.0,0.0,0.0,1.2484,1.2484,1.2484,1.2401,1.281,1.281,1.2069,1.1902,1.1653,1.082,1.0737,1.0737,1.0737,1.0737,1.0737,1.0737,1.0737,1.0737,1.0737,1.0737,1.0987,1.1564,1.0815,1.0648,1.1148,1.0398,0.8386,0.5036,0.5036,0.4113,0.2354,0.2354,0.1514,0.0,0.0,0.0,0.0,0.0,0.0,0.0,0.0,0.0,0.0,0.0,0.0,0.0,0.0,0.0,0.0,0.0,0.0,0.0,0.0,0.0,0.0,0.0,0.0,0.0,0.0,0.0,0.0,0.0,0.0,0.0,0.0,0.0,0.0,0.0,0.0,0.0,0.0,0.0,0.0,0.0,0.0,0.0,0.0,0.0,0.0,0.0,0.0,0.0,0.0,0.0,0.0,0.0,0.0,0.0,0.0,0.0,0.0,0.0,0.0,0.0,0.0,0.0,0.0,0.0,0.0,0.0,0.0,0.0,0.0,0.0,0.0,0.0,0.0,0.0,0.0,0.0,0.0,0.0,0.0,0.0,0.0,0.0,1.2733,1.2733,1.2733,1.2733,1.2899,1.2975,1.281,1.2401,1.1986,1.157,1.1486,1.132,1.0737,1.0737,1.0737,1.0737,1.0737,1.0737,1.0737,1.1153,1.1653,1.2069,1.2146,1.2395,1.281,1.2395,1.1469,0.9878,0.7877,0.5957,0.4197,0.4197,0.3276,0.1514,0.1514,0.0926,0.0,0.0,0.0,0.0,0.0,0.0,0.0,0.0,0.0,0.0,0.0,0.0,0.0,0.0,0.0,0.0,0.0,0.0,0.0,0.0,0.0,0.0,0.0,0.0,0.0,0.0,0.0,0.0,0.0,0.0,0.0,0.0,0.0,0.0,0.0,0.0,0.0,0.0,0.0,0.0,0.0,0.0,0.0,0.0,0.0,0.0,0.0,0.0,0.0,0.0,0.0,0.0,0.0,0.0,0.0,0.0,0.0,0.0,0.0,0.0,0.0,0.0,0.0,0.0,0.0,0.0,0.0,0.0,0.0,0.0,0.0,0.0,0.0,0.0,0.0,0.0,0.0,0.0,0.0,0.0]}]]